<?xml version="1.0" encoding="UTF-8" standalone="no" ?>
<gpx xmlns="http://www.topografix.com/GPX/1/1" xmlns:xsi="http://www.w3.org/2001/XMLSchema-instance" xsi:schemaLocation="http://www.topografix.com/GPX/1/1 http://www.topografix.com/GPX/1/1/gpx.xsd" version="1.1" creator="VisuGPX - https://www.visugpx.com">
  <metadata>
    <name>Vire et Pointe des Excellences et Rocher de l'Homme</name>
    <desc><![CDATA[Cette belle bambée largement hors sentiers offre des vues à couper le souffle sur les 3 pics de Belledonne, les Grandes Rousses, la Meije, le Mont Blanc, la Grande Casse, le Mont Aiguille,…

La randonnée débute par la Vire des Excellences (cf. topo de [url=https://www.pascal-sombardier.com/2024/07/la-vire-des-excellences.html]Pascal Sombardier[/url]), puis enchaîne l'ascension de la Pointe des Excellences et le parcours de ses crêtes Nord, avant de se rendre au Col puis au sommet du Rocher de l'Homme, belvédère offrant les vues précitées et bien plus.

L'itinéraire n'est qu'une des nombreuses possibilités, voir [url=https://www.visorando.com/randonnee-rocher-de-l-homme-2/]cette autre façon de boucler le Rocher de l'Homme[/url].

]]></desc>
  </metadata>
  <wpt lat="45.22172" lon="5.95501">
    <ele>1304</ele>
    <name><![CDATA[Point de passage 1]]></name>
    <type><![CDATA[GENERIC]]></type>
  </wpt>
  <wpt lat="45.22171" lon="5.95513">
    <ele>1297</ele>
    <name><![CDATA[Point de passage 2]]></name>
    <type><![CDATA[GENERIC]]></type>
  </wpt>
  <trk>
    <name><![CDATA[Vire et Pointe des Excellences et Rocher de l'Homme]]></name>
    <trkseg>
      <trkpt lat="45.22172" lon="5.95501">
        <ele>1304</ele>
        <time>2026-07-07T03:07:39.000Z</time>
      </trkpt>
      <trkpt lat="45.22162" lon="5.95498">
        <ele>1292</ele>
        <time>2026-07-07T03:09:03.000Z</time>
      </trkpt>
      <trkpt lat="45.22154" lon="5.9549">
        <ele>1295</ele>
        <time>2026-07-07T03:09:12.000Z</time>
      </trkpt>
      <trkpt lat="45.22145" lon="5.95489">
        <ele>1296</ele>
        <time>2026-07-07T03:09:27.000Z</time>
      </trkpt>
      <trkpt lat="45.22139" lon="5.95471">
        <ele>1297</ele>
        <time>2026-07-07T03:09:36.000Z</time>
      </trkpt>
      <trkpt lat="45.22134" lon="5.9546">
        <ele>1296</ele>
        <time>2026-07-07T03:09:45.000Z</time>
      </trkpt>
      <trkpt lat="45.22139" lon="5.95473">
        <ele>1295</ele>
        <time>2026-07-07T03:09:56.000Z</time>
      </trkpt>
      <trkpt lat="45.22144" lon="5.95485">
        <ele>1294</ele>
        <time>2026-07-07T03:10:04.000Z</time>
      </trkpt>
      <trkpt lat="45.22151" lon="5.95492">
        <ele>1295</ele>
        <time>2026-07-07T03:10:11.000Z</time>
      </trkpt>
      <trkpt lat="45.22152" lon="5.95506">
        <ele>1294</ele>
        <time>2026-07-07T03:10:19.000Z</time>
      </trkpt>
      <trkpt lat="45.22155" lon="5.95519">
        <ele>1295</ele>
        <time>2026-07-07T03:10:27.000Z</time>
      </trkpt>
      <trkpt lat="45.22157" lon="5.95532">
        <ele>1296</ele>
        <time>2026-07-07T03:10:40.000Z</time>
      </trkpt>
      <trkpt lat="45.22148" lon="5.95534">
        <ele>1296</ele>
        <time>2026-07-07T03:10:46.000Z</time>
      </trkpt>
      <trkpt lat="45.22143" lon="5.95523">
        <ele>1299</ele>
        <time>2026-07-07T03:10:55.000Z</time>
      </trkpt>
      <trkpt lat="45.22136" lon="5.95514">
        <ele>1301</ele>
        <time>2026-07-07T03:11:07.000Z</time>
      </trkpt>
      <trkpt lat="45.22128" lon="5.95505">
        <ele>1302</ele>
        <time>2026-07-07T03:11:19.000Z</time>
      </trkpt>
      <trkpt lat="45.22121" lon="5.95496">
        <ele>1304</ele>
        <time>2026-07-07T03:11:31.000Z</time>
      </trkpt>
      <trkpt lat="45.22113" lon="5.95489">
        <ele>1305</ele>
        <time>2026-07-07T03:11:42.000Z</time>
      </trkpt>
      <trkpt lat="45.22105" lon="5.95483">
        <ele>1307</ele>
        <time>2026-07-07T03:11:53.000Z</time>
      </trkpt>
      <trkpt lat="45.22096" lon="5.95478">
        <ele>1308</ele>
        <time>2026-07-07T03:12:03.000Z</time>
      </trkpt>
      <trkpt lat="45.22086" lon="5.95473">
        <ele>1311</ele>
        <time>2026-07-07T03:12:17.000Z</time>
      </trkpt>
      <trkpt lat="45.22077" lon="5.95469">
        <ele>1312</ele>
        <time>2026-07-07T03:12:30.000Z</time>
      </trkpt>
      <trkpt lat="45.22068" lon="5.95464">
        <ele>1314</ele>
        <time>2026-07-07T03:12:42.000Z</time>
      </trkpt>
      <trkpt lat="45.22059" lon="5.95461">
        <ele>1318</ele>
        <time>2026-07-07T03:12:59.000Z</time>
      </trkpt>
      <trkpt lat="45.22049" lon="5.95462">
        <ele>1320</ele>
        <time>2026-07-07T03:13:18.000Z</time>
      </trkpt>
      <trkpt lat="45.2204" lon="5.95463">
        <ele>1320</ele>
        <time>2026-07-07T03:13:33.000Z</time>
      </trkpt>
      <trkpt lat="45.22031" lon="5.95466">
        <ele>1323</ele>
        <time>2026-07-07T03:13:52.000Z</time>
      </trkpt>
      <trkpt lat="45.22022" lon="5.95465">
        <ele>1329</ele>
        <time>2026-07-07T03:14:12.000Z</time>
      </trkpt>
      <trkpt lat="45.22012" lon="5.95466">
        <ele>1329</ele>
        <time>2026-07-07T03:14:23.000Z</time>
      </trkpt>
      <trkpt lat="45.22003" lon="5.95471">
        <ele>1331</ele>
        <time>2026-07-07T03:14:40.000Z</time>
      </trkpt>
      <trkpt lat="45.21994" lon="5.95474">
        <ele>1336</ele>
        <time>2026-07-07T03:14:57.000Z</time>
      </trkpt>
      <trkpt lat="45.21986" lon="5.95482">
        <ele>1337</ele>
        <time>2026-07-07T03:15:11.000Z</time>
      </trkpt>
      <trkpt lat="45.21981" lon="5.95493">
        <ele>1340</ele>
        <time>2026-07-07T03:15:26.000Z</time>
      </trkpt>
      <trkpt lat="45.21982" lon="5.95505">
        <ele>1341</ele>
        <time>2026-07-07T03:15:38.000Z</time>
      </trkpt>
      <trkpt lat="45.21984" lon="5.95518">
        <ele>1344</ele>
        <time>2026-07-07T03:15:48.000Z</time>
      </trkpt>
      <trkpt lat="45.2199" lon="5.95529">
        <ele>1346</ele>
        <time>2026-07-07T03:16:04.000Z</time>
      </trkpt>
      <trkpt lat="45.21997" lon="5.95538">
        <ele>1348</ele>
        <time>2026-07-07T03:16:17.000Z</time>
      </trkpt>
      <trkpt lat="45.22002" lon="5.9555">
        <ele>1347</ele>
        <time>2026-07-07T03:16:30.000Z</time>
      </trkpt>
      <trkpt lat="45.22006" lon="5.95563">
        <ele>1350</ele>
        <time>2026-07-07T03:16:42.000Z</time>
      </trkpt>
      <trkpt lat="45.2201" lon="5.95575">
        <ele>1352</ele>
        <time>2026-07-07T03:16:55.000Z</time>
      </trkpt>
      <trkpt lat="45.22016" lon="5.95586">
        <ele>1353</ele>
        <time>2026-07-07T03:17:06.000Z</time>
      </trkpt>
      <trkpt lat="45.22018" lon="5.95598">
        <ele>1356</ele>
        <time>2026-07-07T03:17:17.000Z</time>
      </trkpt>
      <trkpt lat="45.22021" lon="5.95611">
        <ele>1355</ele>
        <time>2026-07-07T03:17:27.000Z</time>
      </trkpt>
      <trkpt lat="45.22023" lon="5.95623">
        <ele>1355</ele>
        <time>2026-07-07T03:17:35.000Z</time>
      </trkpt>
      <trkpt lat="45.22026" lon="5.95637">
        <ele>1358</ele>
        <time>2026-07-07T03:17:45.000Z</time>
      </trkpt>
      <trkpt lat="45.2202" lon="5.95648">
        <ele>1360</ele>
        <time>2026-07-07T03:17:56.000Z</time>
      </trkpt>
      <trkpt lat="45.22011" lon="5.95654">
        <ele>1363</ele>
        <time>2026-07-07T03:18:07.000Z</time>
      </trkpt>
      <trkpt lat="45.22002" lon="5.95658">
        <ele>1363</ele>
        <time>2026-07-07T03:18:16.000Z</time>
      </trkpt>
      <trkpt lat="45.21994" lon="5.95667">
        <ele>1361</ele>
        <time>2026-07-07T03:18:25.000Z</time>
      </trkpt>
      <trkpt lat="45.21986" lon="5.95676">
        <ele>1363</ele>
        <time>2026-07-07T03:18:35.000Z</time>
      </trkpt>
      <trkpt lat="45.2198" lon="5.95686">
        <ele>1364</ele>
        <time>2026-07-07T03:18:45.000Z</time>
      </trkpt>
      <trkpt lat="45.21973" lon="5.95696">
        <ele>1364</ele>
        <time>2026-07-07T03:18:57.000Z</time>
      </trkpt>
      <trkpt lat="45.21968" lon="5.95707">
        <ele>1365</ele>
        <time>2026-07-07T03:19:08.000Z</time>
      </trkpt>
      <trkpt lat="45.21961" lon="5.95716">
        <ele>1367</ele>
        <time>2026-07-07T03:19:19.000Z</time>
      </trkpt>
      <trkpt lat="45.21953" lon="5.95723">
        <ele>1369</ele>
        <time>2026-07-07T03:19:29.000Z</time>
      </trkpt>
      <trkpt lat="45.21947" lon="5.95733">
        <ele>1370</ele>
        <time>2026-07-07T03:19:39.000Z</time>
      </trkpt>
      <trkpt lat="45.21942" lon="5.95744">
        <ele>1373</ele>
        <time>2026-07-07T03:19:53.000Z</time>
      </trkpt>
      <trkpt lat="45.21937" lon="5.95755">
        <ele>1375</ele>
        <time>2026-07-07T03:20:10.000Z</time>
      </trkpt>
      <trkpt lat="45.21932" lon="5.95765">
        <ele>1377</ele>
        <time>2026-07-07T03:20:23.000Z</time>
      </trkpt>
      <trkpt lat="45.21927" lon="5.95776">
        <ele>1379</ele>
        <time>2026-07-07T03:20:38.000Z</time>
      </trkpt>
      <trkpt lat="45.21924" lon="5.95788">
        <ele>1381</ele>
        <time>2026-07-07T03:20:53.000Z</time>
      </trkpt>
      <trkpt lat="45.21919" lon="5.958">
        <ele>1384</ele>
        <time>2026-07-07T03:21:10.000Z</time>
      </trkpt>
      <trkpt lat="45.21915" lon="5.95812">
        <ele>1388</ele>
        <time>2026-07-07T03:21:23.000Z</time>
      </trkpt>
      <trkpt lat="45.21908" lon="5.95821">
        <ele>1391</ele>
        <time>2026-07-07T03:21:37.000Z</time>
      </trkpt>
      <trkpt lat="45.21906" lon="5.95834">
        <ele>1392</ele>
        <time>2026-07-07T03:21:51.000Z</time>
      </trkpt>
      <trkpt lat="45.219" lon="5.95843">
        <ele>1395</ele>
        <time>2026-07-07T03:22:42.000Z</time>
      </trkpt>
      <trkpt lat="45.21892" lon="5.95852">
        <ele>1396</ele>
        <time>2026-07-07T03:23:51.000Z</time>
      </trkpt>
      <trkpt lat="45.21884" lon="5.95858">
        <ele>1395</ele>
        <time>2026-07-07T03:24:02.000Z</time>
      </trkpt>
      <trkpt lat="45.21875" lon="5.95862">
        <ele>1394</ele>
        <time>2026-07-07T03:24:11.000Z</time>
      </trkpt>
      <trkpt lat="45.21867" lon="5.95869">
        <ele>1392</ele>
        <time>2026-07-07T03:24:19.000Z</time>
      </trkpt>
      <trkpt lat="45.21857" lon="5.9587">
        <ele>1391</ele>
        <time>2026-07-07T03:24:26.000Z</time>
      </trkpt>
      <trkpt lat="45.21848" lon="5.95867">
        <ele>1392</ele>
        <time>2026-07-07T03:24:34.000Z</time>
      </trkpt>
      <trkpt lat="45.2184" lon="5.95876">
        <ele>1390</ele>
        <time>2026-07-07T03:24:41.000Z</time>
      </trkpt>
      <trkpt lat="45.21832" lon="5.95882">
        <ele>1389</ele>
        <time>2026-07-07T03:24:48.000Z</time>
      </trkpt>
      <trkpt lat="45.21825" lon="5.9589">
        <ele>1389</ele>
        <time>2026-07-07T03:24:55.000Z</time>
      </trkpt>
      <trkpt lat="45.21817" lon="5.95897">
        <ele>1387</ele>
        <time>2026-07-07T03:25:03.000Z</time>
      </trkpt>
      <trkpt lat="45.2181" lon="5.95905">
        <ele>1389</ele>
        <time>2026-07-07T03:25:14.000Z</time>
      </trkpt>
      <trkpt lat="45.21801" lon="5.95911">
        <ele>1393</ele>
        <time>2026-07-07T03:25:23.000Z</time>
      </trkpt>
      <trkpt lat="45.21793" lon="5.95916">
        <ele>1393</ele>
        <time>2026-07-07T03:25:32.000Z</time>
      </trkpt>
      <trkpt lat="45.21786" lon="5.95925">
        <ele>1394</ele>
        <time>2026-07-07T03:25:43.000Z</time>
      </trkpt>
      <trkpt lat="45.21779" lon="5.95935">
        <ele>1396</ele>
        <time>2026-07-07T03:25:56.000Z</time>
      </trkpt>
      <trkpt lat="45.2177" lon="5.95939">
        <ele>1396</ele>
        <time>2026-07-07T03:26:08.000Z</time>
      </trkpt>
      <trkpt lat="45.21763" lon="5.95945">
        <ele>1394</ele>
        <time>2026-07-07T03:26:17.000Z</time>
      </trkpt>
      <trkpt lat="45.21755" lon="5.95955">
        <ele>1394</ele>
        <time>2026-07-07T03:26:26.000Z</time>
      </trkpt>
      <trkpt lat="45.21747" lon="5.95962">
        <ele>1397</ele>
        <time>2026-07-07T03:26:35.000Z</time>
      </trkpt>
      <trkpt lat="45.21738" lon="5.95968">
        <ele>1399</ele>
        <time>2026-07-07T03:26:45.000Z</time>
      </trkpt>
      <trkpt lat="45.21728" lon="5.9597">
        <ele>1401</ele>
        <time>2026-07-07T03:26:58.000Z</time>
      </trkpt>
      <trkpt lat="45.2172" lon="5.95978">
        <ele>1401</ele>
        <time>2026-07-07T03:27:13.000Z</time>
      </trkpt>
      <trkpt lat="45.21711" lon="5.95982">
        <ele>1401</ele>
        <time>2026-07-07T03:27:25.000Z</time>
      </trkpt>
      <trkpt lat="45.21701" lon="5.95983">
        <ele>1403</ele>
        <time>2026-07-07T03:27:36.000Z</time>
      </trkpt>
      <trkpt lat="45.21692" lon="5.95987">
        <ele>1405</ele>
        <time>2026-07-07T03:27:47.000Z</time>
      </trkpt>
      <trkpt lat="45.21682" lon="5.95993">
        <ele>1406</ele>
        <time>2026-07-07T03:28:00.000Z</time>
      </trkpt>
      <trkpt lat="45.21674" lon="5.95999">
        <ele>1405</ele>
        <time>2026-07-07T03:28:10.000Z</time>
      </trkpt>
      <trkpt lat="45.21665" lon="5.96002">
        <ele>1405</ele>
        <time>2026-07-07T03:28:21.000Z</time>
      </trkpt>
      <trkpt lat="45.21657" lon="5.96007">
        <ele>1407</ele>
        <time>2026-07-07T03:28:35.000Z</time>
      </trkpt>
      <trkpt lat="45.21647" lon="5.96008">
        <ele>1406</ele>
        <time>2026-07-07T03:28:46.000Z</time>
      </trkpt>
      <trkpt lat="45.21638" lon="5.96013">
        <ele>1405</ele>
        <time>2026-07-07T03:28:56.000Z</time>
      </trkpt>
      <trkpt lat="45.21628" lon="5.96015">
        <ele>1404</ele>
        <time>2026-07-07T03:29:08.000Z</time>
      </trkpt>
      <trkpt lat="45.21619" lon="5.96015">
        <ele>1406</ele>
        <time>2026-07-07T03:29:20.000Z</time>
      </trkpt>
      <trkpt lat="45.2161" lon="5.96019">
        <ele>1404</ele>
        <time>2026-07-07T03:29:29.000Z</time>
      </trkpt>
      <trkpt lat="45.21601" lon="5.96023">
        <ele>1404</ele>
        <time>2026-07-07T03:29:37.000Z</time>
      </trkpt>
      <trkpt lat="45.21594" lon="5.9603">
        <ele>1405</ele>
        <time>2026-07-07T03:29:46.000Z</time>
      </trkpt>
      <trkpt lat="45.21584" lon="5.96033">
        <ele>1406</ele>
        <time>2026-07-07T03:29:58.000Z</time>
      </trkpt>
      <trkpt lat="45.21575" lon="5.96036">
        <ele>1406</ele>
        <time>2026-07-07T03:30:11.000Z</time>
      </trkpt>
      <trkpt lat="45.21565" lon="5.96042">
        <ele>1407</ele>
        <time>2026-07-07T03:30:22.000Z</time>
      </trkpt>
      <trkpt lat="45.21556" lon="5.96043">
        <ele>1408</ele>
        <time>2026-07-07T03:30:35.000Z</time>
      </trkpt>
      <trkpt lat="45.21548" lon="5.96053">
        <ele>1406</ele>
        <time>2026-07-07T03:30:49.000Z</time>
      </trkpt>
      <trkpt lat="45.2154" lon="5.96058">
        <ele>1407</ele>
        <time>2026-07-07T03:31:01.000Z</time>
      </trkpt>
      <trkpt lat="45.21531" lon="5.96062">
        <ele>1409</ele>
        <time>2026-07-07T03:31:14.000Z</time>
      </trkpt>
      <trkpt lat="45.21522" lon="5.96068">
        <ele>1409</ele>
        <time>2026-07-07T03:31:28.000Z</time>
      </trkpt>
      <trkpt lat="45.21513" lon="5.96071">
        <ele>1411</ele>
        <time>2026-07-07T03:31:44.000Z</time>
      </trkpt>
      <trkpt lat="45.21504" lon="5.96069">
        <ele>1413</ele>
        <time>2026-07-07T03:32:00.000Z</time>
      </trkpt>
      <trkpt lat="45.21495" lon="5.96072">
        <ele>1413</ele>
        <time>2026-07-07T03:32:13.000Z</time>
      </trkpt>
      <trkpt lat="45.21485" lon="5.96073">
        <ele>1413</ele>
        <time>2026-07-07T03:32:24.000Z</time>
      </trkpt>
      <trkpt lat="45.21476" lon="5.96074">
        <ele>1413</ele>
        <time>2026-07-07T03:32:40.000Z</time>
      </trkpt>
      <trkpt lat="45.21467" lon="5.96079">
        <ele>1415</ele>
        <time>2026-07-07T03:32:55.000Z</time>
      </trkpt>
      <trkpt lat="45.21457" lon="5.9608">
        <ele>1414</ele>
        <time>2026-07-07T03:33:07.000Z</time>
      </trkpt>
      <trkpt lat="45.21449" lon="5.96083">
        <ele>1415</ele>
        <time>2026-07-07T03:33:18.000Z</time>
      </trkpt>
      <trkpt lat="45.21439" lon="5.96088">
        <ele>1416</ele>
        <time>2026-07-07T03:33:33.000Z</time>
      </trkpt>
      <trkpt lat="45.2143" lon="5.96091">
        <ele>1414</ele>
        <time>2026-07-07T03:33:43.000Z</time>
      </trkpt>
      <trkpt lat="45.21421" lon="5.96096">
        <ele>1417</ele>
        <time>2026-07-07T03:33:54.000Z</time>
      </trkpt>
      <trkpt lat="45.21412" lon="5.96101">
        <ele>1417</ele>
        <time>2026-07-07T03:34:06.000Z</time>
      </trkpt>
      <trkpt lat="45.21403" lon="5.96097">
        <ele>1419</ele>
        <time>2026-07-07T03:34:24.000Z</time>
      </trkpt>
      <trkpt lat="45.21394" lon="5.96095">
        <ele>1419</ele>
        <time>2026-07-07T03:34:35.000Z</time>
      </trkpt>
      <trkpt lat="45.21384" lon="5.96094">
        <ele>1420</ele>
        <time>2026-07-07T03:34:49.000Z</time>
      </trkpt>
      <trkpt lat="45.21375" lon="5.96094">
        <ele>1423</ele>
        <time>2026-07-07T03:35:10.000Z</time>
      </trkpt>
      <trkpt lat="45.21368" lon="5.96086">
        <ele>1426</ele>
        <time>2026-07-07T03:35:34.000Z</time>
      </trkpt>
      <trkpt lat="45.21359" lon="5.96079">
        <ele>1429</ele>
        <time>2026-07-07T03:35:50.000Z</time>
      </trkpt>
      <trkpt lat="45.2135" lon="5.9608">
        <ele>1428</ele>
        <time>2026-07-07T03:35:59.000Z</time>
      </trkpt>
      <trkpt lat="45.2134" lon="5.9608">
        <ele>1429</ele>
        <time>2026-07-07T03:36:12.000Z</time>
      </trkpt>
      <trkpt lat="45.21331" lon="5.96078">
        <ele>1431</ele>
        <time>2026-07-07T03:36:22.000Z</time>
      </trkpt>
      <trkpt lat="45.21322" lon="5.96081">
        <ele>1432</ele>
        <time>2026-07-07T03:36:33.000Z</time>
      </trkpt>
      <trkpt lat="45.21313" lon="5.96086">
        <ele>1432</ele>
        <time>2026-07-07T03:36:47.000Z</time>
      </trkpt>
      <trkpt lat="45.21304" lon="5.96092">
        <ele>1435</ele>
        <time>2026-07-07T03:37:00.000Z</time>
      </trkpt>
      <trkpt lat="45.21297" lon="5.96101">
        <ele>1436</ele>
        <time>2026-07-07T03:37:18.000Z</time>
      </trkpt>
      <trkpt lat="45.21288" lon="5.96107">
        <ele>1437</ele>
        <time>2026-07-07T03:37:30.000Z</time>
      </trkpt>
      <trkpt lat="45.2128" lon="5.96111">
        <ele>1439</ele>
        <time>2026-07-07T03:37:44.000Z</time>
      </trkpt>
      <trkpt lat="45.21271" lon="5.96117">
        <ele>1438</ele>
        <time>2026-07-07T03:38:03.000Z</time>
      </trkpt>
      <trkpt lat="45.21262" lon="5.96119">
        <ele>1439</ele>
        <time>2026-07-07T03:38:15.000Z</time>
      </trkpt>
      <trkpt lat="45.21253" lon="5.96119">
        <ele>1441</ele>
        <time>2026-07-07T03:38:30.000Z</time>
      </trkpt>
      <trkpt lat="45.21244" lon="5.96117">
        <ele>1443</ele>
        <time>2026-07-07T03:38:41.000Z</time>
      </trkpt>
      <trkpt lat="45.21233" lon="5.96119">
        <ele>1444</ele>
        <time>2026-07-07T03:39:01.000Z</time>
      </trkpt>
      <trkpt lat="45.21224" lon="5.96119">
        <ele>1443</ele>
        <time>2026-07-07T03:39:13.000Z</time>
      </trkpt>
      <trkpt lat="45.21215" lon="5.96125">
        <ele>1446</ele>
        <time>2026-07-07T03:39:30.000Z</time>
      </trkpt>
      <trkpt lat="45.21206" lon="5.96126">
        <ele>1448</ele>
        <time>2026-07-07T03:39:42.000Z</time>
      </trkpt>
      <trkpt lat="45.21198" lon="5.9613">
        <ele>1448</ele>
        <time>2026-07-07T03:39:53.000Z</time>
      </trkpt>
      <trkpt lat="45.21189" lon="5.96137">
        <ele>1449</ele>
        <time>2026-07-07T03:40:06.000Z</time>
      </trkpt>
      <trkpt lat="45.21181" lon="5.96147">
        <ele>1450</ele>
        <time>2026-07-07T03:40:23.000Z</time>
      </trkpt>
      <trkpt lat="45.21173" lon="5.96152">
        <ele>1451</ele>
        <time>2026-07-07T03:40:36.000Z</time>
      </trkpt>
      <trkpt lat="45.21165" lon="5.96158">
        <ele>1452</ele>
        <time>2026-07-07T03:40:52.000Z</time>
      </trkpt>
      <trkpt lat="45.21159" lon="5.96169">
        <ele>1453</ele>
        <time>2026-07-07T03:41:11.000Z</time>
      </trkpt>
      <trkpt lat="45.21152" lon="5.96176">
        <ele>1455</ele>
        <time>2026-07-07T03:41:33.000Z</time>
      </trkpt>
      <trkpt lat="45.21143" lon="5.96185">
        <ele>1458</ele>
        <time>2026-07-07T03:42:14.000Z</time>
      </trkpt>
      <trkpt lat="45.21133" lon="5.9619">
        <ele>1458</ele>
        <time>2026-07-07T03:42:29.000Z</time>
      </trkpt>
      <trkpt lat="45.21127" lon="5.962">
        <ele>1459</ele>
        <time>2026-07-07T03:42:54.000Z</time>
      </trkpt>
      <trkpt lat="45.2112" lon="5.96208">
        <ele>1463</ele>
        <time>2026-07-07T03:43:41.000Z</time>
      </trkpt>
      <trkpt lat="45.21113" lon="5.96217">
        <ele>1462</ele>
        <time>2026-07-07T03:43:52.000Z</time>
      </trkpt>
      <trkpt lat="45.21106" lon="5.96225">
        <ele>1462</ele>
        <time>2026-07-07T03:44:10.000Z</time>
      </trkpt>
      <trkpt lat="45.21098" lon="5.96231">
        <ele>1461</ele>
        <time>2026-07-07T03:44:39.000Z</time>
      </trkpt>
      <trkpt lat="45.21091" lon="5.96238">
        <ele>1467</ele>
        <time>2026-07-07T03:45:50.000Z</time>
      </trkpt>
      <trkpt lat="45.21083" lon="5.96246">
        <ele>1468</ele>
        <time>2026-07-07T03:46:01.000Z</time>
      </trkpt>
      <trkpt lat="45.21074" lon="5.96251">
        <ele>1466</ele>
        <time>2026-07-07T03:46:16.000Z</time>
      </trkpt>
      <trkpt lat="45.21065" lon="5.96253">
        <ele>1465</ele>
        <time>2026-07-07T03:46:39.000Z</time>
      </trkpt>
      <trkpt lat="45.21056" lon="5.96255">
        <ele>1463</ele>
        <time>2026-07-07T03:46:55.000Z</time>
      </trkpt>
      <trkpt lat="45.21046" lon="5.9626">
        <ele>1462</ele>
        <time>2026-07-07T03:47:07.000Z</time>
      </trkpt>
      <trkpt lat="45.21037" lon="5.96264">
        <ele>1465</ele>
        <time>2026-07-07T03:48:44.000Z</time>
      </trkpt>
      <trkpt lat="45.21032" lon="5.96274">
        <ele>1467</ele>
        <time>2026-07-07T03:49:15.000Z</time>
      </trkpt>
      <trkpt lat="45.21023" lon="5.96272">
        <ele>1469</ele>
        <time>2026-07-07T03:49:30.000Z</time>
      </trkpt>
      <trkpt lat="45.21013" lon="5.96275">
        <ele>1469</ele>
        <time>2026-07-07T03:49:41.000Z</time>
      </trkpt>
      <trkpt lat="45.21005" lon="5.9628">
        <ele>1470</ele>
        <time>2026-07-07T03:49:53.000Z</time>
      </trkpt>
      <trkpt lat="45.20998" lon="5.96289">
        <ele>1471</ele>
        <time>2026-07-07T03:50:09.000Z</time>
      </trkpt>
      <trkpt lat="45.2099" lon="5.96296">
        <ele>1472</ele>
        <time>2026-07-07T03:56:11.000Z</time>
      </trkpt>
      <trkpt lat="45.20981" lon="5.96299">
        <ele>1476</ele>
        <time>2026-07-07T03:56:51.000Z</time>
      </trkpt>
      <trkpt lat="45.20971" lon="5.96303">
        <ele>1475</ele>
        <time>2026-07-07T03:57:06.000Z</time>
      </trkpt>
      <trkpt lat="45.20962" lon="5.96303">
        <ele>1477</ele>
        <time>2026-07-07T03:57:19.000Z</time>
      </trkpt>
      <trkpt lat="45.20955" lon="5.96311">
        <ele>1477</ele>
        <time>2026-07-07T03:57:37.000Z</time>
      </trkpt>
      <trkpt lat="45.20945" lon="5.96309">
        <ele>1481</ele>
        <time>2026-07-07T03:58:06.000Z</time>
      </trkpt>
      <trkpt lat="45.20936" lon="5.96312">
        <ele>1482</ele>
        <time>2026-07-07T03:58:19.000Z</time>
      </trkpt>
      <trkpt lat="45.2093" lon="5.96323">
        <ele>1479</ele>
        <time>2026-07-07T03:58:37.000Z</time>
      </trkpt>
      <trkpt lat="45.20922" lon="5.96331">
        <ele>1480</ele>
        <time>2026-07-07T03:58:50.000Z</time>
      </trkpt>
      <trkpt lat="45.20916" lon="5.96342">
        <ele>1482</ele>
        <time>2026-07-07T03:59:03.000Z</time>
      </trkpt>
      <trkpt lat="45.20911" lon="5.96353">
        <ele>1484</ele>
        <time>2026-07-07T03:59:20.000Z</time>
      </trkpt>
      <trkpt lat="45.20902" lon="5.96353">
        <ele>1487</ele>
        <time>2026-07-07T03:59:33.000Z</time>
      </trkpt>
      <trkpt lat="45.20893" lon="5.96357">
        <ele>1487</ele>
        <time>2026-07-07T03:59:47.000Z</time>
      </trkpt>
      <trkpt lat="45.20885" lon="5.96363">
        <ele>1489</ele>
        <time>2026-07-07T04:00:04.000Z</time>
      </trkpt>
      <trkpt lat="45.2088" lon="5.96374">
        <ele>1492</ele>
        <time>2026-07-07T04:00:25.000Z</time>
      </trkpt>
      <trkpt lat="45.2087" lon="5.96373">
        <ele>1494</ele>
        <time>2026-07-07T04:00:43.000Z</time>
      </trkpt>
      <trkpt lat="45.20863" lon="5.9638">
        <ele>1496</ele>
        <time>2026-07-07T04:00:53.000Z</time>
      </trkpt>
      <trkpt lat="45.20855" lon="5.96387">
        <ele>1497</ele>
        <time>2026-07-07T04:01:04.000Z</time>
      </trkpt>
      <trkpt lat="45.20845" lon="5.96388">
        <ele>1503</ele>
        <time>2026-07-07T04:01:17.000Z</time>
      </trkpt>
      <trkpt lat="45.20838" lon="5.96397">
        <ele>1504</ele>
        <time>2026-07-07T04:01:27.000Z</time>
      </trkpt>
      <trkpt lat="45.20829" lon="5.96399">
        <ele>1503</ele>
        <time>2026-07-07T04:01:42.000Z</time>
      </trkpt>
      <trkpt lat="45.2082" lon="5.96404">
        <ele>1503</ele>
        <time>2026-07-07T04:01:55.000Z</time>
      </trkpt>
      <trkpt lat="45.2081" lon="5.96399">
        <ele>1507</ele>
        <time>2026-07-07T04:02:16.000Z</time>
      </trkpt>
      <trkpt lat="45.20803" lon="5.96392">
        <ele>1507</ele>
        <time>2026-07-07T04:02:29.000Z</time>
      </trkpt>
      <trkpt lat="45.20796" lon="5.96383">
        <ele>1509</ele>
        <time>2026-07-07T04:02:40.000Z</time>
      </trkpt>
      <trkpt lat="45.20786" lon="5.96381">
        <ele>1510</ele>
        <time>2026-07-07T04:02:49.000Z</time>
      </trkpt>
      <trkpt lat="45.20777" lon="5.96385">
        <ele>1514</ele>
        <time>2026-07-07T04:03:22.000Z</time>
      </trkpt>
      <trkpt lat="45.20779" lon="5.96398">
        <ele>1519</ele>
        <time>2026-07-07T04:04:20.000Z</time>
      </trkpt>
      <trkpt lat="45.20784" lon="5.96409">
        <ele>1521</ele>
        <time>2026-07-07T04:04:39.000Z</time>
      </trkpt>
      <trkpt lat="45.20785" lon="5.96423">
        <ele>1521</ele>
        <time>2026-07-07T04:05:20.000Z</time>
      </trkpt>
      <trkpt lat="45.20791" lon="5.96435">
        <ele>1524</ele>
        <time>2026-07-07T04:05:28.000Z</time>
      </trkpt>
      <trkpt lat="45.20786" lon="5.96424">
        <ele>1530</ele>
        <time>2026-07-07T04:05:59.000Z</time>
      </trkpt>
      <trkpt lat="45.20779" lon="5.96415">
        <ele>1529</ele>
        <time>2026-07-07T04:06:12.000Z</time>
      </trkpt>
      <trkpt lat="45.20772" lon="5.96422">
        <ele>1534</ele>
        <time>2026-07-07T04:06:40.000Z</time>
      </trkpt>
      <trkpt lat="45.20775" lon="5.96435">
        <ele>1537</ele>
        <time>2026-07-07T04:06:52.000Z</time>
      </trkpt>
      <trkpt lat="45.20772" lon="5.96448">
        <ele>1540</ele>
        <time>2026-07-07T04:07:14.000Z</time>
      </trkpt>
      <trkpt lat="45.20774" lon="5.96461">
        <ele>1541</ele>
        <time>2026-07-07T04:07:27.000Z</time>
      </trkpt>
      <trkpt lat="45.20772" lon="5.96449">
        <ele>1548</ele>
        <time>2026-07-07T04:08:03.000Z</time>
      </trkpt>
      <trkpt lat="45.20763" lon="5.96442">
        <ele>1544</ele>
        <time>2026-07-07T04:08:26.000Z</time>
      </trkpt>
      <trkpt lat="45.20755" lon="5.96436">
        <ele>1544</ele>
        <time>2026-07-07T04:08:33.000Z</time>
      </trkpt>
      <trkpt lat="45.20752" lon="5.96424">
        <ele>1545</ele>
        <time>2026-07-07T04:08:44.000Z</time>
      </trkpt>
      <trkpt lat="45.20745" lon="5.96433">
        <ele>1545</ele>
        <time>2026-07-07T04:09:06.000Z</time>
      </trkpt>
      <trkpt lat="45.20746" lon="5.96446">
        <ele>1550</ele>
        <time>2026-07-07T04:12:16.000Z</time>
      </trkpt>
      <trkpt lat="45.20748" lon="5.96459">
        <ele>1552</ele>
        <time>2026-07-07T04:12:25.000Z</time>
      </trkpt>
      <trkpt lat="45.20747" lon="5.96473">
        <ele>1559</ele>
        <time>2026-07-07T04:12:38.000Z</time>
      </trkpt>
      <trkpt lat="45.20742" lon="5.96461">
        <ele>1563</ele>
        <time>2026-07-07T04:13:36.000Z</time>
      </trkpt>
      <trkpt lat="45.20738" lon="5.96448">
        <ele>1565</ele>
        <time>2026-07-07T04:14:12.000Z</time>
      </trkpt>
      <trkpt lat="45.2073" lon="5.96441">
        <ele>1564</ele>
        <time>2026-07-07T04:14:33.000Z</time>
      </trkpt>
      <trkpt lat="45.20722" lon="5.96435">
        <ele>1565</ele>
        <time>2026-07-07T04:14:47.000Z</time>
      </trkpt>
      <trkpt lat="45.20712" lon="5.96429">
        <ele>1567</ele>
        <time>2026-07-07T04:14:58.000Z</time>
      </trkpt>
      <trkpt lat="45.20715" lon="5.96441">
        <ele>1571</ele>
        <time>2026-07-07T04:15:32.000Z</time>
      </trkpt>
      <trkpt lat="45.20706" lon="5.96438">
        <ele>1573</ele>
        <time>2026-07-07T04:16:15.000Z</time>
      </trkpt>
      <trkpt lat="45.207" lon="5.96428">
        <ele>1577</ele>
        <time>2026-07-07T04:16:32.000Z</time>
      </trkpt>
      <trkpt lat="45.20693" lon="5.96419">
        <ele>1582</ele>
        <time>2026-07-07T04:16:48.000Z</time>
      </trkpt>
      <trkpt lat="45.20686" lon="5.96409">
        <ele>1582</ele>
        <time>2026-07-07T04:17:02.000Z</time>
      </trkpt>
      <trkpt lat="45.20678" lon="5.96403">
        <ele>1580</ele>
        <time>2026-07-07T04:17:10.000Z</time>
      </trkpt>
      <trkpt lat="45.20677" lon="5.96416">
        <ele>1589</ele>
        <time>2026-07-07T04:17:48.000Z</time>
      </trkpt>
      <trkpt lat="45.20672" lon="5.96427">
        <ele>1590</ele>
        <time>2026-07-07T04:18:00.000Z</time>
      </trkpt>
      <trkpt lat="45.20668" lon="5.96439">
        <ele>1592</ele>
        <time>2026-07-07T04:18:15.000Z</time>
      </trkpt>
      <trkpt lat="45.20675" lon="5.96449">
        <ele>1591</ele>
        <time>2026-07-07T04:18:26.000Z</time>
      </trkpt>
      <trkpt lat="45.2068" lon="5.9646">
        <ele>1596</ele>
        <time>2026-07-07T04:18:38.000Z</time>
      </trkpt>
      <trkpt lat="45.20672" lon="5.96454">
        <ele>1597</ele>
        <time>2026-07-07T04:18:59.000Z</time>
      </trkpt>
      <trkpt lat="45.20665" lon="5.96445">
        <ele>1599</ele>
        <time>2026-07-07T04:19:19.000Z</time>
      </trkpt>
      <trkpt lat="45.2066" lon="5.96434">
        <ele>1601</ele>
        <time>2026-07-07T04:19:38.000Z</time>
      </trkpt>
      <trkpt lat="45.2065" lon="5.96428">
        <ele>1599</ele>
        <time>2026-07-07T04:19:47.000Z</time>
      </trkpt>
      <trkpt lat="45.20648" lon="5.96442">
        <ele>1603</ele>
        <time>2026-07-07T04:20:05.000Z</time>
      </trkpt>
      <trkpt lat="45.20655" lon="5.9645">
        <ele>1603</ele>
        <time>2026-07-07T04:20:15.000Z</time>
      </trkpt>
      <trkpt lat="45.20656" lon="5.96463">
        <ele>1605</ele>
        <time>2026-07-07T04:20:29.000Z</time>
      </trkpt>
      <trkpt lat="45.20657" lon="5.96476">
        <ele>1608</ele>
        <time>2026-07-07T04:20:41.000Z</time>
      </trkpt>
      <trkpt lat="45.2066" lon="5.96488">
        <ele>1614</ele>
        <time>2026-07-07T04:20:58.000Z</time>
      </trkpt>
      <trkpt lat="45.20665" lon="5.965">
        <ele>1616</ele>
        <time>2026-07-07T04:21:26.000Z</time>
      </trkpt>
      <trkpt lat="45.20674" lon="5.96504">
        <ele>1616</ele>
        <time>2026-07-07T04:21:35.000Z</time>
      </trkpt>
      <trkpt lat="45.20665" lon="5.96499">
        <ele>1619</ele>
        <time>2026-07-07T04:21:46.000Z</time>
      </trkpt>
      <trkpt lat="45.20656" lon="5.96495">
        <ele>1621</ele>
        <time>2026-07-07T04:22:07.000Z</time>
      </trkpt>
      <trkpt lat="45.2066" lon="5.96508">
        <ele>1621</ele>
        <time>2026-07-07T04:22:25.000Z</time>
      </trkpt>
      <trkpt lat="45.20666" lon="5.96522">
        <ele>1624</ele>
        <time>2026-07-07T04:22:45.000Z</time>
      </trkpt>
      <trkpt lat="45.20657" lon="5.96518">
        <ele>1629</ele>
        <time>2026-07-07T04:23:13.000Z</time>
      </trkpt>
      <trkpt lat="45.20649" lon="5.96513">
        <ele>1629</ele>
        <time>2026-07-07T04:23:27.000Z</time>
      </trkpt>
      <trkpt lat="45.2064" lon="5.96519">
        <ele>1634</ele>
        <time>2026-07-07T04:23:52.000Z</time>
      </trkpt>
      <trkpt lat="45.20649" lon="5.96524">
        <ele>1637</ele>
        <time>2026-07-07T04:24:06.000Z</time>
      </trkpt>
      <trkpt lat="45.20656" lon="5.96532">
        <ele>1639</ele>
        <time>2026-07-07T04:24:20.000Z</time>
      </trkpt>
      <trkpt lat="45.20665" lon="5.96537">
        <ele>1638</ele>
        <time>2026-07-07T04:24:34.000Z</time>
      </trkpt>
      <trkpt lat="45.20671" lon="5.96547">
        <ele>1639</ele>
        <time>2026-07-07T04:24:47.000Z</time>
      </trkpt>
      <trkpt lat="45.2068" lon="5.96552">
        <ele>1638</ele>
        <time>2026-07-07T04:25:13.000Z</time>
      </trkpt>
      <trkpt lat="45.20671" lon="5.96549">
        <ele>1644</ele>
        <time>2026-07-07T04:26:51.000Z</time>
      </trkpt>
      <trkpt lat="45.20662" lon="5.9655">
        <ele>1646</ele>
        <time>2026-07-07T04:27:06.000Z</time>
      </trkpt>
      <trkpt lat="45.20652" lon="5.96547">
        <ele>1648</ele>
        <time>2026-07-07T04:27:24.000Z</time>
      </trkpt>
      <trkpt lat="45.20642" lon="5.96547">
        <ele>1649</ele>
        <time>2026-07-07T04:27:35.000Z</time>
      </trkpt>
      <trkpt lat="45.20632" lon="5.96546">
        <ele>1650</ele>
        <time>2026-07-07T04:27:46.000Z</time>
      </trkpt>
      <trkpt lat="45.20623" lon="5.96541">
        <ele>1653</ele>
        <time>2026-07-07T04:27:55.000Z</time>
      </trkpt>
      <trkpt lat="45.20613" lon="5.96543">
        <ele>1653</ele>
        <time>2026-07-07T04:28:12.000Z</time>
      </trkpt>
      <trkpt lat="45.20606" lon="5.96534">
        <ele>1652</ele>
        <time>2026-07-07T04:28:25.000Z</time>
      </trkpt>
      <trkpt lat="45.20601" lon="5.96524">
        <ele>1656</ele>
        <time>2026-07-07T04:28:42.000Z</time>
      </trkpt>
      <trkpt lat="45.20594" lon="5.96514">
        <ele>1656</ele>
        <time>2026-07-07T04:28:56.000Z</time>
      </trkpt>
      <trkpt lat="45.20586" lon="5.96508">
        <ele>1653</ele>
        <time>2026-07-07T04:29:08.000Z</time>
      </trkpt>
      <trkpt lat="45.2058" lon="5.96496">
        <ele>1657</ele>
        <time>2026-07-07T04:29:18.000Z</time>
      </trkpt>
      <trkpt lat="45.20573" lon="5.96488">
        <ele>1658</ele>
        <time>2026-07-07T04:29:25.000Z</time>
      </trkpt>
      <trkpt lat="45.20564" lon="5.96483">
        <ele>1659</ele>
        <time>2026-07-07T04:29:39.000Z</time>
      </trkpt>
      <trkpt lat="45.20558" lon="5.96474">
        <ele>1659</ele>
        <time>2026-07-07T04:29:50.000Z</time>
      </trkpt>
      <trkpt lat="45.20552" lon="5.96464">
        <ele>1664</ele>
        <time>2026-07-07T04:30:02.000Z</time>
      </trkpt>
      <trkpt lat="45.20544" lon="5.96454">
        <ele>1664</ele>
        <time>2026-07-07T04:30:14.000Z</time>
      </trkpt>
      <trkpt lat="45.20537" lon="5.96445">
        <ele>1663</ele>
        <time>2026-07-07T04:30:26.000Z</time>
      </trkpt>
      <trkpt lat="45.20535" lon="5.96431">
        <ele>1666</ele>
        <time>2026-07-07T04:30:46.000Z</time>
      </trkpt>
      <trkpt lat="45.20533" lon="5.96419">
        <ele>1668</ele>
        <time>2026-07-07T04:31:03.000Z</time>
      </trkpt>
      <trkpt lat="45.20532" lon="5.96405">
        <ele>1669</ele>
        <time>2026-07-07T04:31:21.000Z</time>
      </trkpt>
      <trkpt lat="45.20532" lon="5.96391">
        <ele>1671</ele>
        <time>2026-07-07T04:31:38.000Z</time>
      </trkpt>
      <trkpt lat="45.20532" lon="5.96378">
        <ele>1672</ele>
        <time>2026-07-07T04:31:53.000Z</time>
      </trkpt>
      <trkpt lat="45.20529" lon="5.96365">
        <ele>1672</ele>
        <time>2026-07-07T04:32:09.000Z</time>
      </trkpt>
      <trkpt lat="45.20522" lon="5.96356">
        <ele>1676</ele>
        <time>2026-07-07T04:32:24.000Z</time>
      </trkpt>
      <trkpt lat="45.20513" lon="5.96353">
        <ele>1686</ele>
        <time>2026-07-07T04:33:29.000Z</time>
      </trkpt>
      <trkpt lat="45.20508" lon="5.96342">
        <ele>1689</ele>
        <time>2026-07-07T04:33:41.000Z</time>
      </trkpt>
      <trkpt lat="45.20499" lon="5.96346">
        <ele>1693</ele>
        <time>2026-07-07T04:34:18.000Z</time>
      </trkpt>
      <trkpt lat="45.20495" lon="5.96333">
        <ele>1701</ele>
        <time>2026-07-07T04:35:13.000Z</time>
      </trkpt>
      <trkpt lat="45.20494" lon="5.9632">
        <ele>1703</ele>
        <time>2026-07-07T04:35:27.000Z</time>
      </trkpt>
      <trkpt lat="45.20491" lon="5.96308">
        <ele>1704</ele>
        <time>2026-07-07T04:35:42.000Z</time>
      </trkpt>
      <trkpt lat="45.2049" lon="5.96295">
        <ele>1706</ele>
        <time>2026-07-07T04:36:28.000Z</time>
      </trkpt>
      <trkpt lat="45.20488" lon="5.96282">
        <ele>1708</ele>
        <time>2026-07-07T04:36:50.000Z</time>
      </trkpt>
      <trkpt lat="45.20486" lon="5.96269">
        <ele>1710</ele>
        <time>2026-07-07T04:37:07.000Z</time>
      </trkpt>
      <trkpt lat="45.2048" lon="5.96259">
        <ele>1711</ele>
        <time>2026-07-07T04:37:21.000Z</time>
      </trkpt>
      <trkpt lat="45.20472" lon="5.96254">
        <ele>1715</ele>
        <time>2026-07-07T04:37:39.000Z</time>
      </trkpt>
      <trkpt lat="45.20462" lon="5.96251">
        <ele>1719</ele>
        <time>2026-07-07T04:38:04.000Z</time>
      </trkpt>
      <trkpt lat="45.20453" lon="5.96252">
        <ele>1719</ele>
        <time>2026-07-07T04:38:12.000Z</time>
      </trkpt>
      <trkpt lat="45.20443" lon="5.96249">
        <ele>1722</ele>
        <time>2026-07-07T04:38:24.000Z</time>
      </trkpt>
      <trkpt lat="45.20433" lon="5.96245">
        <ele>1722</ele>
        <time>2026-07-07T04:38:34.000Z</time>
      </trkpt>
      <trkpt lat="45.20424" lon="5.96247">
        <ele>1724</ele>
        <time>2026-07-07T04:38:46.000Z</time>
      </trkpt>
      <trkpt lat="45.20415" lon="5.96241">
        <ele>1726</ele>
        <time>2026-07-07T04:38:59.000Z</time>
      </trkpt>
      <trkpt lat="45.20406" lon="5.96238">
        <ele>1728</ele>
        <time>2026-07-07T04:39:09.000Z</time>
      </trkpt>
      <trkpt lat="45.20397" lon="5.96234">
        <ele>1732</ele>
        <time>2026-07-07T04:39:22.000Z</time>
      </trkpt>
      <trkpt lat="45.20388" lon="5.96232">
        <ele>1732</ele>
        <time>2026-07-07T04:39:33.000Z</time>
      </trkpt>
      <trkpt lat="45.20379" lon="5.9623">
        <ele>1734</ele>
        <time>2026-07-07T04:39:47.000Z</time>
      </trkpt>
      <trkpt lat="45.2037" lon="5.96225">
        <ele>1737</ele>
        <time>2026-07-07T04:40:00.000Z</time>
      </trkpt>
      <trkpt lat="45.20361" lon="5.96222">
        <ele>1738</ele>
        <time>2026-07-07T04:40:11.000Z</time>
      </trkpt>
      <trkpt lat="45.20352" lon="5.9622">
        <ele>1739</ele>
        <time>2026-07-07T04:40:27.000Z</time>
      </trkpt>
      <trkpt lat="45.20343" lon="5.96215">
        <ele>1741</ele>
        <time>2026-07-07T04:40:41.000Z</time>
      </trkpt>
      <trkpt lat="45.20335" lon="5.9621">
        <ele>1741</ele>
        <time>2026-07-07T04:40:54.000Z</time>
      </trkpt>
      <trkpt lat="45.2033" lon="5.96221">
        <ele>1744</ele>
        <time>2026-07-07T04:41:25.000Z</time>
      </trkpt>
      <trkpt lat="45.20337" lon="5.96231">
        <ele>1745</ele>
        <time>2026-07-07T04:41:37.000Z</time>
      </trkpt>
      <trkpt lat="45.20344" lon="5.9624">
        <ele>1750</ele>
        <time>2026-07-07T04:41:56.000Z</time>
      </trkpt>
      <trkpt lat="45.20351" lon="5.96249">
        <ele>1749</ele>
        <time>2026-07-07T04:42:08.000Z</time>
      </trkpt>
      <trkpt lat="45.20358" lon="5.96259">
        <ele>1753</ele>
        <time>2026-07-07T04:42:24.000Z</time>
      </trkpt>
      <trkpt lat="45.20364" lon="5.96268">
        <ele>1752</ele>
        <time>2026-07-07T04:42:35.000Z</time>
      </trkpt>
      <trkpt lat="45.20372" lon="5.96277">
        <ele>1756</ele>
        <time>2026-07-07T04:42:52.000Z</time>
      </trkpt>
      <trkpt lat="45.20379" lon="5.96285">
        <ele>1755</ele>
        <time>2026-07-07T04:43:04.000Z</time>
      </trkpt>
      <trkpt lat="45.20387" lon="5.96292">
        <ele>1757</ele>
        <time>2026-07-07T04:43:15.000Z</time>
      </trkpt>
      <trkpt lat="45.20395" lon="5.96301">
        <ele>1759</ele>
        <time>2026-07-07T04:43:28.000Z</time>
      </trkpt>
      <trkpt lat="45.20402" lon="5.96308">
        <ele>1759</ele>
        <time>2026-07-07T04:43:43.000Z</time>
      </trkpt>
      <trkpt lat="45.2041" lon="5.96317">
        <ele>1763</ele>
        <time>2026-07-07T04:43:57.000Z</time>
      </trkpt>
      <trkpt lat="45.20416" lon="5.96328">
        <ele>1764</ele>
        <time>2026-07-07T04:44:16.000Z</time>
      </trkpt>
      <trkpt lat="45.20407" lon="5.96327">
        <ele>1768</ele>
        <time>2026-07-07T04:45:02.000Z</time>
      </trkpt>
      <trkpt lat="45.20397" lon="5.96327">
        <ele>1772</ele>
        <time>2026-07-07T04:45:17.000Z</time>
      </trkpt>
      <trkpt lat="45.20387" lon="5.96324">
        <ele>1773</ele>
        <time>2026-07-07T04:45:31.000Z</time>
      </trkpt>
      <trkpt lat="45.20378" lon="5.9632">
        <ele>1774</ele>
        <time>2026-07-07T04:45:44.000Z</time>
      </trkpt>
      <trkpt lat="45.20369" lon="5.96316">
        <ele>1775</ele>
        <time>2026-07-07T04:45:55.000Z</time>
      </trkpt>
      <trkpt lat="45.2036" lon="5.96311">
        <ele>1778</ele>
        <time>2026-07-07T04:46:09.000Z</time>
      </trkpt>
      <trkpt lat="45.20351" lon="5.96306">
        <ele>1778</ele>
        <time>2026-07-07T04:46:19.000Z</time>
      </trkpt>
      <trkpt lat="45.20342" lon="5.96303">
        <ele>1782</ele>
        <time>2026-07-07T04:46:33.000Z</time>
      </trkpt>
      <trkpt lat="45.20341" lon="5.96316">
        <ele>1782</ele>
        <time>2026-07-07T04:47:05.000Z</time>
      </trkpt>
      <trkpt lat="45.20348" lon="5.96325">
        <ele>1784</ele>
        <time>2026-07-07T04:47:18.000Z</time>
      </trkpt>
      <trkpt lat="45.20354" lon="5.96336">
        <ele>1786</ele>
        <time>2026-07-07T04:47:35.000Z</time>
      </trkpt>
      <trkpt lat="45.20361" lon="5.96344">
        <ele>1787</ele>
        <time>2026-07-07T04:47:49.000Z</time>
      </trkpt>
      <trkpt lat="45.20352" lon="5.96343">
        <ele>1792</ele>
        <time>2026-07-07T04:48:24.000Z</time>
      </trkpt>
      <trkpt lat="45.20342" lon="5.96338">
        <ele>1795</ele>
        <time>2026-07-07T04:48:37.000Z</time>
      </trkpt>
      <trkpt lat="45.20333" lon="5.96333">
        <ele>1797</ele>
        <time>2026-07-07T04:48:50.000Z</time>
      </trkpt>
      <trkpt lat="45.20324" lon="5.96329">
        <ele>1799</ele>
        <time>2026-07-07T04:49:00.000Z</time>
      </trkpt>
      <trkpt lat="45.20316" lon="5.96322">
        <ele>1800</ele>
        <time>2026-07-07T04:49:10.000Z</time>
      </trkpt>
      <trkpt lat="45.20306" lon="5.96318">
        <ele>1802</ele>
        <time>2026-07-07T04:49:26.000Z</time>
      </trkpt>
      <trkpt lat="45.20298" lon="5.96309">
        <ele>1803</ele>
        <time>2026-07-07T04:49:40.000Z</time>
      </trkpt>
      <trkpt lat="45.20289" lon="5.96303">
        <ele>1805</ele>
        <time>2026-07-07T04:49:54.000Z</time>
      </trkpt>
      <trkpt lat="45.20281" lon="5.96298">
        <ele>1806</ele>
        <time>2026-07-07T04:50:06.000Z</time>
      </trkpt>
      <trkpt lat="45.20272" lon="5.96296">
        <ele>1808</ele>
        <time>2026-07-07T04:50:23.000Z</time>
      </trkpt>
      <trkpt lat="45.20262" lon="5.96294">
        <ele>1809</ele>
        <time>2026-07-07T04:50:37.000Z</time>
      </trkpt>
      <trkpt lat="45.20253" lon="5.96291">
        <ele>1808</ele>
        <time>2026-07-07T04:50:48.000Z</time>
      </trkpt>
      <trkpt lat="45.20243" lon="5.96292">
        <ele>1809</ele>
        <time>2026-07-07T04:51:03.000Z</time>
      </trkpt>
      <trkpt lat="45.20233" lon="5.96293">
        <ele>1812</ele>
        <time>2026-07-07T04:51:17.000Z</time>
      </trkpt>
      <trkpt lat="45.20224" lon="5.96296">
        <ele>1814</ele>
        <time>2026-07-07T04:51:42.000Z</time>
      </trkpt>
      <trkpt lat="45.20215" lon="5.96301">
        <ele>1817</ele>
        <time>2026-07-07T04:51:57.000Z</time>
      </trkpt>
      <trkpt lat="45.20206" lon="5.96304">
        <ele>1818</ele>
        <time>2026-07-07T04:52:09.000Z</time>
      </trkpt>
      <trkpt lat="45.20197" lon="5.96306">
        <ele>1821</ele>
        <time>2026-07-07T04:52:26.000Z</time>
      </trkpt>
      <trkpt lat="45.20187" lon="5.96309">
        <ele>1821</ele>
        <time>2026-07-07T04:52:39.000Z</time>
      </trkpt>
      <trkpt lat="45.20177" lon="5.96309">
        <ele>1822</ele>
        <time>2026-07-07T04:52:50.000Z</time>
      </trkpt>
      <trkpt lat="45.20168" lon="5.96307">
        <ele>1825</ele>
        <time>2026-07-07T04:53:13.000Z</time>
      </trkpt>
      <trkpt lat="45.20161" lon="5.96299">
        <ele>1827</ele>
        <time>2026-07-07T04:53:29.000Z</time>
      </trkpt>
      <trkpt lat="45.20154" lon="5.96291">
        <ele>1829</ele>
        <time>2026-07-07T04:53:43.000Z</time>
      </trkpt>
      <trkpt lat="45.20145" lon="5.96287">
        <ele>1830</ele>
        <time>2026-07-07T04:54:19.000Z</time>
      </trkpt>
      <trkpt lat="45.20136" lon="5.96285">
        <ele>1831</ele>
        <time>2026-07-07T04:54:31.000Z</time>
      </trkpt>
      <trkpt lat="45.20126" lon="5.96284">
        <ele>1833</ele>
        <time>2026-07-07T04:54:43.000Z</time>
      </trkpt>
      <trkpt lat="45.20117" lon="5.96283">
        <ele>1835</ele>
        <time>2026-07-07T04:54:56.000Z</time>
      </trkpt>
      <trkpt lat="45.20108" lon="5.96282">
        <ele>1836</ele>
        <time>2026-07-07T04:55:09.000Z</time>
      </trkpt>
      <trkpt lat="45.20098" lon="5.96283">
        <ele>1836</ele>
        <time>2026-07-07T04:55:53.000Z</time>
      </trkpt>
      <trkpt lat="45.2009" lon="5.9629">
        <ele>1839</ele>
        <time>2026-07-07T04:56:05.000Z</time>
      </trkpt>
      <trkpt lat="45.20092" lon="5.96303">
        <ele>1839</ele>
        <time>2026-07-07T04:57:50.000Z</time>
      </trkpt>
      <trkpt lat="45.20082" lon="5.96305">
        <ele>1843</ele>
        <time>2026-07-07T04:58:05.000Z</time>
      </trkpt>
      <trkpt lat="45.20075" lon="5.96314">
        <ele>1843</ele>
        <time>2026-07-07T04:58:15.000Z</time>
      </trkpt>
      <trkpt lat="45.20066" lon="5.96318">
        <ele>1846</ele>
        <time>2026-07-07T04:58:28.000Z</time>
      </trkpt>
      <trkpt lat="45.20058" lon="5.96326">
        <ele>1846</ele>
        <time>2026-07-07T04:58:41.000Z</time>
      </trkpt>
      <trkpt lat="45.20052" lon="5.96337">
        <ele>1846</ele>
        <time>2026-07-07T04:58:52.000Z</time>
      </trkpt>
      <trkpt lat="45.20046" lon="5.96347">
        <ele>1847</ele>
        <time>2026-07-07T04:59:03.000Z</time>
      </trkpt>
      <trkpt lat="45.20041" lon="5.96358">
        <ele>1849</ele>
        <time>2026-07-07T04:59:13.000Z</time>
      </trkpt>
      <trkpt lat="45.20036" lon="5.9637">
        <ele>1851</ele>
        <time>2026-07-07T04:59:25.000Z</time>
      </trkpt>
      <trkpt lat="45.20031" lon="5.9638">
        <ele>1852</ele>
        <time>2026-07-07T04:59:38.000Z</time>
      </trkpt>
      <trkpt lat="45.20026" lon="5.96391">
        <ele>1854</ele>
        <time>2026-07-07T04:59:50.000Z</time>
      </trkpt>
      <trkpt lat="45.2002" lon="5.96402">
        <ele>1856</ele>
        <time>2026-07-07T05:00:04.000Z</time>
      </trkpt>
      <trkpt lat="45.20014" lon="5.96413">
        <ele>1857</ele>
        <time>2026-07-07T05:00:18.000Z</time>
      </trkpt>
      <trkpt lat="45.20008" lon="5.96422">
        <ele>1858</ele>
        <time>2026-07-07T05:00:29.000Z</time>
      </trkpt>
      <trkpt lat="45.20001" lon="5.96431">
        <ele>1859</ele>
        <time>2026-07-07T05:00:42.000Z</time>
      </trkpt>
      <trkpt lat="45.19993" lon="5.96437">
        <ele>1860</ele>
        <time>2026-07-07T05:00:55.000Z</time>
      </trkpt>
      <trkpt lat="45.19984" lon="5.9644">
        <ele>1862</ele>
        <time>2026-07-07T05:01:07.000Z</time>
      </trkpt>
      <trkpt lat="45.19974" lon="5.96441">
        <ele>1862</ele>
        <time>2026-07-07T05:01:19.000Z</time>
      </trkpt>
      <trkpt lat="45.19965" lon="5.96442">
        <ele>1864</ele>
        <time>2026-07-07T05:01:31.000Z</time>
      </trkpt>
      <trkpt lat="45.19955" lon="5.96439">
        <ele>1865</ele>
        <time>2026-07-07T05:01:46.000Z</time>
      </trkpt>
      <trkpt lat="45.19946" lon="5.96438">
        <ele>1866</ele>
        <time>2026-07-07T05:01:56.000Z</time>
      </trkpt>
      <trkpt lat="45.19936" lon="5.96436">
        <ele>1868</ele>
        <time>2026-07-07T05:02:11.000Z</time>
      </trkpt>
      <trkpt lat="45.19927" lon="5.96439">
        <ele>1869</ele>
        <time>2026-07-07T05:02:25.000Z</time>
      </trkpt>
      <trkpt lat="45.19918" lon="5.96443">
        <ele>1872</ele>
        <time>2026-07-07T05:02:44.000Z</time>
      </trkpt>
      <trkpt lat="45.19909" lon="5.96446">
        <ele>1872</ele>
        <time>2026-07-07T05:02:55.000Z</time>
      </trkpt>
      <trkpt lat="45.199" lon="5.9645">
        <ele>1874</ele>
        <time>2026-07-07T05:03:12.000Z</time>
      </trkpt>
      <trkpt lat="45.19891" lon="5.96455">
        <ele>1876</ele>
        <time>2026-07-07T05:03:32.000Z</time>
      </trkpt>
      <trkpt lat="45.19882" lon="5.96458">
        <ele>1877</ele>
        <time>2026-07-07T05:03:47.000Z</time>
      </trkpt>
      <trkpt lat="45.19874" lon="5.96467">
        <ele>1877</ele>
        <time>2026-07-07T05:03:59.000Z</time>
      </trkpt>
      <trkpt lat="45.19865" lon="5.96471">
        <ele>1879</ele>
        <time>2026-07-07T05:04:14.000Z</time>
      </trkpt>
      <trkpt lat="45.19856" lon="5.96472">
        <ele>1883</ele>
        <time>2026-07-07T05:04:38.000Z</time>
      </trkpt>
      <trkpt lat="45.19847" lon="5.96468">
        <ele>1884</ele>
        <time>2026-07-07T05:04:52.000Z</time>
      </trkpt>
      <trkpt lat="45.19838" lon="5.96469">
        <ele>1885</ele>
        <time>2026-07-07T05:05:05.000Z</time>
      </trkpt>
      <trkpt lat="45.19839" lon="5.96482">
        <ele>1887</ele>
        <time>2026-07-07T05:05:20.000Z</time>
      </trkpt>
      <trkpt lat="45.19839" lon="5.96496">
        <ele>1890</ele>
        <time>2026-07-07T05:05:45.000Z</time>
      </trkpt>
      <trkpt lat="45.19839" lon="5.96509">
        <ele>1892</ele>
        <time>2026-07-07T05:05:59.000Z</time>
      </trkpt>
      <trkpt lat="45.19837" lon="5.96521">
        <ele>1896</ele>
        <time>2026-07-07T05:06:20.000Z</time>
      </trkpt>
      <trkpt lat="45.19838" lon="5.96534">
        <ele>1897</ele>
        <time>2026-07-07T05:06:49.000Z</time>
      </trkpt>
      <trkpt lat="45.1984" lon="5.96548">
        <ele>1899</ele>
        <time>2026-07-07T05:07:17.000Z</time>
      </trkpt>
      <trkpt lat="45.1984" lon="5.96562">
        <ele>1900</ele>
        <time>2026-07-07T05:07:31.000Z</time>
      </trkpt>
      <trkpt lat="45.1984" lon="5.96575">
        <ele>1901</ele>
        <time>2026-07-07T05:07:45.000Z</time>
      </trkpt>
      <trkpt lat="45.1983" lon="5.96576">
        <ele>1903</ele>
        <time>2026-07-07T05:08:07.000Z</time>
      </trkpt>
      <trkpt lat="45.19823" lon="5.96585">
        <ele>1904</ele>
        <time>2026-07-07T05:08:20.000Z</time>
      </trkpt>
      <trkpt lat="45.19813" lon="5.96586">
        <ele>1900</ele>
        <time>2026-07-07T05:08:37.000Z</time>
      </trkpt>
      <trkpt lat="45.19804" lon="5.96582">
        <ele>1899</ele>
        <time>2026-07-07T05:08:53.000Z</time>
      </trkpt>
      <trkpt lat="45.19794" lon="5.96579">
        <ele>1900</ele>
        <time>2026-07-07T05:09:03.000Z</time>
      </trkpt>
      <trkpt lat="45.19786" lon="5.96571">
        <ele>1899</ele>
        <time>2026-07-07T05:09:24.000Z</time>
      </trkpt>
      <trkpt lat="45.19778" lon="5.96563">
        <ele>1898</ele>
        <time>2026-07-07T05:09:35.000Z</time>
      </trkpt>
      <trkpt lat="45.19768" lon="5.96564">
        <ele>1895</ele>
        <time>2026-07-07T05:09:51.000Z</time>
      </trkpt>
      <trkpt lat="45.19759" lon="5.96559">
        <ele>1894</ele>
        <time>2026-07-07T05:10:02.000Z</time>
      </trkpt>
      <trkpt lat="45.19752" lon="5.96552">
        <ele>1895</ele>
        <time>2026-07-07T05:10:11.000Z</time>
      </trkpt>
      <trkpt lat="45.19743" lon="5.96546">
        <ele>1893</ele>
        <time>2026-07-07T05:10:22.000Z</time>
      </trkpt>
      <trkpt lat="45.19735" lon="5.96541">
        <ele>1891</ele>
        <time>2026-07-07T05:10:33.000Z</time>
      </trkpt>
      <trkpt lat="45.19727" lon="5.96532">
        <ele>1890</ele>
        <time>2026-07-07T05:10:41.000Z</time>
      </trkpt>
      <trkpt lat="45.19718" lon="5.96531">
        <ele>1889</ele>
        <time>2026-07-07T05:10:52.000Z</time>
      </trkpt>
      <trkpt lat="45.19709" lon="5.96534">
        <ele>1890</ele>
        <time>2026-07-07T05:11:02.000Z</time>
      </trkpt>
      <trkpt lat="45.197" lon="5.96536">
        <ele>1890</ele>
        <time>2026-07-07T05:11:19.000Z</time>
      </trkpt>
      <trkpt lat="45.1969" lon="5.96536">
        <ele>1891</ele>
        <time>2026-07-07T05:11:30.000Z</time>
      </trkpt>
      <trkpt lat="45.19681" lon="5.96531">
        <ele>1892</ele>
        <time>2026-07-07T05:12:16.000Z</time>
      </trkpt>
      <trkpt lat="45.19672" lon="5.96526">
        <ele>1893</ele>
        <time>2026-07-07T05:12:31.000Z</time>
      </trkpt>
      <trkpt lat="45.19664" lon="5.96521">
        <ele>1896</ele>
        <time>2026-07-07T05:12:53.000Z</time>
      </trkpt>
      <trkpt lat="45.19654" lon="5.96518">
        <ele>1898</ele>
        <time>2026-07-07T05:13:07.000Z</time>
      </trkpt>
      <trkpt lat="45.19647" lon="5.96526">
        <ele>1904</ele>
        <time>2026-07-07T05:13:45.000Z</time>
      </trkpt>
      <trkpt lat="45.19638" lon="5.96529">
        <ele>1906</ele>
        <time>2026-07-07T05:14:02.000Z</time>
      </trkpt>
      <trkpt lat="45.19632" lon="5.96539">
        <ele>1906</ele>
        <time>2026-07-07T05:14:37.000Z</time>
      </trkpt>
      <trkpt lat="45.19627" lon="5.96551">
        <ele>1906</ele>
        <time>2026-07-07T05:14:50.000Z</time>
      </trkpt>
      <trkpt lat="45.19623" lon="5.96562">
        <ele>1904</ele>
        <time>2026-07-07T05:15:06.000Z</time>
      </trkpt>
      <trkpt lat="45.19622" lon="5.96575">
        <ele>1901</ele>
        <time>2026-07-07T05:15:18.000Z</time>
      </trkpt>
      <trkpt lat="45.19618" lon="5.96588">
        <ele>1903</ele>
        <time>2026-07-07T05:15:32.000Z</time>
      </trkpt>
      <trkpt lat="45.19608" lon="5.96591">
        <ele>1906</ele>
        <time>2026-07-07T05:15:55.000Z</time>
      </trkpt>
      <trkpt lat="45.196" lon="5.96594">
        <ele>1909</ele>
        <time>2026-07-07T05:16:09.000Z</time>
      </trkpt>
      <trkpt lat="45.19591" lon="5.96598">
        <ele>1905</ele>
        <time>2026-07-07T05:16:21.000Z</time>
      </trkpt>
      <trkpt lat="45.19583" lon="5.96605">
        <ele>1906</ele>
        <time>2026-07-07T05:16:30.000Z</time>
      </trkpt>
      <trkpt lat="45.19581" lon="5.9662">
        <ele>1907</ele>
        <time>2026-07-07T05:16:39.000Z</time>
      </trkpt>
      <trkpt lat="45.19577" lon="5.96633">
        <ele>1908</ele>
        <time>2026-07-07T05:16:50.000Z</time>
      </trkpt>
      <trkpt lat="45.1957" lon="5.96641">
        <ele>1910</ele>
        <time>2026-07-07T05:17:00.000Z</time>
      </trkpt>
      <trkpt lat="45.19563" lon="5.96649">
        <ele>1911</ele>
        <time>2026-07-07T05:17:12.000Z</time>
      </trkpt>
      <trkpt lat="45.19557" lon="5.9666">
        <ele>1912</ele>
        <time>2026-07-07T05:17:24.000Z</time>
      </trkpt>
      <trkpt lat="45.1955" lon="5.96669">
        <ele>1913</ele>
        <time>2026-07-07T05:17:37.000Z</time>
      </trkpt>
      <trkpt lat="45.19542" lon="5.96675">
        <ele>1914</ele>
        <time>2026-07-07T05:17:48.000Z</time>
      </trkpt>
      <trkpt lat="45.19533" lon="5.9668">
        <ele>1915</ele>
        <time>2026-07-07T05:17:59.000Z</time>
      </trkpt>
      <trkpt lat="45.19523" lon="5.96685">
        <ele>1917</ele>
        <time>2026-07-07T05:18:09.000Z</time>
      </trkpt>
      <trkpt lat="45.19514" lon="5.9669">
        <ele>1918</ele>
        <time>2026-07-07T05:18:21.000Z</time>
      </trkpt>
      <trkpt lat="45.19504" lon="5.96691">
        <ele>1919</ele>
        <time>2026-07-07T05:18:32.000Z</time>
      </trkpt>
      <trkpt lat="45.19494" lon="5.96696">
        <ele>1919</ele>
        <time>2026-07-07T05:18:41.000Z</time>
      </trkpt>
      <trkpt lat="45.19485" lon="5.96698">
        <ele>1919</ele>
        <time>2026-07-07T05:18:52.000Z</time>
      </trkpt>
      <trkpt lat="45.19475" lon="5.96697">
        <ele>1919</ele>
        <time>2026-07-07T05:19:02.000Z</time>
      </trkpt>
      <trkpt lat="45.19466" lon="5.96696">
        <ele>1922</ele>
        <time>2026-07-07T05:19:14.000Z</time>
      </trkpt>
      <trkpt lat="45.19457" lon="5.96695">
        <ele>1924</ele>
        <time>2026-07-07T05:19:25.000Z</time>
      </trkpt>
      <trkpt lat="45.19449" lon="5.96701">
        <ele>1925</ele>
        <time>2026-07-07T05:19:36.000Z</time>
      </trkpt>
      <trkpt lat="45.19444" lon="5.96712">
        <ele>1925</ele>
        <time>2026-07-07T05:19:49.000Z</time>
      </trkpt>
      <trkpt lat="45.19438" lon="5.96723">
        <ele>1925</ele>
        <time>2026-07-07T05:19:58.000Z</time>
      </trkpt>
      <trkpt lat="45.19432" lon="5.96732">
        <ele>1928</ele>
        <time>2026-07-07T05:20:09.000Z</time>
      </trkpt>
      <trkpt lat="45.19424" lon="5.96739">
        <ele>1929</ele>
        <time>2026-07-07T05:20:21.000Z</time>
      </trkpt>
      <trkpt lat="45.19416" lon="5.96732">
        <ele>1930</ele>
        <time>2026-07-07T05:20:33.000Z</time>
      </trkpt>
      <trkpt lat="45.19409" lon="5.96724">
        <ele>1931</ele>
        <time>2026-07-07T05:20:45.000Z</time>
      </trkpt>
      <trkpt lat="45.19402" lon="5.96715">
        <ele>1930</ele>
        <time>2026-07-07T05:20:56.000Z</time>
      </trkpt>
      <trkpt lat="45.19392" lon="5.96715">
        <ele>1931</ele>
        <time>2026-07-07T05:21:06.000Z</time>
      </trkpt>
      <trkpt lat="45.19387" lon="5.96725">
        <ele>1933</ele>
        <time>2026-07-07T05:21:17.000Z</time>
      </trkpt>
      <trkpt lat="45.19381" lon="5.96735">
        <ele>1935</ele>
        <time>2026-07-07T05:21:29.000Z</time>
      </trkpt>
      <trkpt lat="45.19375" lon="5.96746">
        <ele>1937</ele>
        <time>2026-07-07T05:21:42.000Z</time>
      </trkpt>
      <trkpt lat="45.19372" lon="5.96759">
        <ele>1940</ele>
        <time>2026-07-07T05:22:03.000Z</time>
      </trkpt>
      <trkpt lat="45.19363" lon="5.96761">
        <ele>1943</ele>
        <time>2026-07-07T05:22:22.000Z</time>
      </trkpt>
      <trkpt lat="45.19354" lon="5.96755">
        <ele>1948</ele>
        <time>2026-07-07T05:22:48.000Z</time>
      </trkpt>
      <trkpt lat="45.19345" lon="5.96755">
        <ele>1950</ele>
        <time>2026-07-07T05:23:02.000Z</time>
      </trkpt>
      <trkpt lat="45.19335" lon="5.96754">
        <ele>1949</ele>
        <time>2026-07-07T05:23:12.000Z</time>
      </trkpt>
      <trkpt lat="45.19325" lon="5.96755">
        <ele>1948</ele>
        <time>2026-07-07T05:23:22.000Z</time>
      </trkpt>
      <trkpt lat="45.19315" lon="5.96759">
        <ele>1946</ele>
        <time>2026-07-07T05:23:32.000Z</time>
      </trkpt>
      <trkpt lat="45.19306" lon="5.96763">
        <ele>1946</ele>
        <time>2026-07-07T05:23:41.000Z</time>
      </trkpt>
      <trkpt lat="45.19298" lon="5.96769">
        <ele>1946</ele>
        <time>2026-07-07T05:23:49.000Z</time>
      </trkpt>
      <trkpt lat="45.19289" lon="5.96767">
        <ele>1946</ele>
        <time>2026-07-07T05:23:58.000Z</time>
      </trkpt>
      <trkpt lat="45.19281" lon="5.96759">
        <ele>1946</ele>
        <time>2026-07-07T05:24:10.000Z</time>
      </trkpt>
      <trkpt lat="45.19274" lon="5.96751">
        <ele>1946</ele>
        <time>2026-07-07T05:24:20.000Z</time>
      </trkpt>
      <trkpt lat="45.19265" lon="5.96744">
        <ele>1945</ele>
        <time>2026-07-07T05:24:29.000Z</time>
      </trkpt>
      <trkpt lat="45.19257" lon="5.96735">
        <ele>1947</ele>
        <time>2026-07-07T05:24:38.000Z</time>
      </trkpt>
      <trkpt lat="45.1925" lon="5.96728">
        <ele>1949</ele>
        <time>2026-07-07T05:24:50.000Z</time>
      </trkpt>
      <trkpt lat="45.19241" lon="5.96733">
        <ele>1948</ele>
        <time>2026-07-07T05:33:11.000Z</time>
      </trkpt>
      <trkpt lat="45.1925" lon="5.96738">
        <ele>1949</ele>
        <time>2026-07-07T05:34:51.000Z</time>
      </trkpt>
      <trkpt lat="45.19241" lon="5.96733">
        <ele>1949</ele>
        <time>2026-07-07T05:38:22.000Z</time>
      </trkpt>
      <trkpt lat="45.19239" lon="5.96746">
        <ele>1947</ele>
        <time>2026-07-07T05:38:29.000Z</time>
      </trkpt>
      <trkpt lat="45.19235" lon="5.9676">
        <ele>1944</ele>
        <time>2026-07-07T05:38:35.000Z</time>
      </trkpt>
      <trkpt lat="45.1923" lon="5.96772">
        <ele>1947</ele>
        <time>2026-07-07T05:38:43.000Z</time>
      </trkpt>
      <trkpt lat="45.19229" lon="5.96786">
        <ele>1945</ele>
        <time>2026-07-07T05:38:50.000Z</time>
      </trkpt>
      <trkpt lat="45.19229" lon="5.968">
        <ele>1945</ele>
        <time>2026-07-07T05:38:57.000Z</time>
      </trkpt>
      <trkpt lat="45.1923" lon="5.96814">
        <ele>1944</ele>
        <time>2026-07-07T05:39:05.000Z</time>
      </trkpt>
      <trkpt lat="45.19229" lon="5.96828">
        <ele>1942</ele>
        <time>2026-07-07T05:39:13.000Z</time>
      </trkpt>
      <trkpt lat="45.19222" lon="5.96838">
        <ele>1942</ele>
        <time>2026-07-07T05:39:26.000Z</time>
      </trkpt>
      <trkpt lat="45.19214" lon="5.96845">
        <ele>1942</ele>
        <time>2026-07-07T05:39:38.000Z</time>
      </trkpt>
      <trkpt lat="45.19206" lon="5.9685">
        <ele>1944</ele>
        <time>2026-07-07T05:39:48.000Z</time>
      </trkpt>
      <trkpt lat="45.19196" lon="5.96854">
        <ele>1946</ele>
        <time>2026-07-07T05:39:56.000Z</time>
      </trkpt>
      <trkpt lat="45.19187" lon="5.96854">
        <ele>1946</ele>
        <time>2026-07-07T05:40:05.000Z</time>
      </trkpt>
      <trkpt lat="45.19177" lon="5.96852">
        <ele>1949</ele>
        <time>2026-07-07T05:40:16.000Z</time>
      </trkpt>
      <trkpt lat="45.19168" lon="5.96858">
        <ele>1949</ele>
        <time>2026-07-07T05:40:26.000Z</time>
      </trkpt>
      <trkpt lat="45.1916" lon="5.96865">
        <ele>1950</ele>
        <time>2026-07-07T05:40:37.000Z</time>
      </trkpt>
      <trkpt lat="45.19152" lon="5.96871">
        <ele>1952</ele>
        <time>2026-07-07T05:40:46.000Z</time>
      </trkpt>
      <trkpt lat="45.19144" lon="5.96877">
        <ele>1954</ele>
        <time>2026-07-07T05:40:58.000Z</time>
      </trkpt>
      <trkpt lat="45.19135" lon="5.96881">
        <ele>1955</ele>
        <time>2026-07-07T05:41:08.000Z</time>
      </trkpt>
      <trkpt lat="45.19126" lon="5.96888">
        <ele>1957</ele>
        <time>2026-07-07T05:41:19.000Z</time>
      </trkpt>
      <trkpt lat="45.19118" lon="5.96895">
        <ele>1960</ele>
        <time>2026-07-07T05:41:30.000Z</time>
      </trkpt>
      <trkpt lat="45.19111" lon="5.96905">
        <ele>1963</ele>
        <time>2026-07-07T05:41:42.000Z</time>
      </trkpt>
      <trkpt lat="45.19105" lon="5.96914">
        <ele>1961</ele>
        <time>2026-07-07T05:41:54.000Z</time>
      </trkpt>
      <trkpt lat="45.19097" lon="5.96921">
        <ele>1962</ele>
        <time>2026-07-07T05:42:05.000Z</time>
      </trkpt>
      <trkpt lat="45.19088" lon="5.96927">
        <ele>1966</ele>
        <time>2026-07-07T05:42:20.000Z</time>
      </trkpt>
      <trkpt lat="45.19097" lon="5.96932">
        <ele>1969</ele>
        <time>2026-07-07T05:42:41.000Z</time>
      </trkpt>
      <trkpt lat="45.19105" lon="5.96927">
        <ele>1969</ele>
        <time>2026-07-07T05:42:51.000Z</time>
      </trkpt>
      <trkpt lat="45.19115" lon="5.96925">
        <ele>1972</ele>
        <time>2026-07-07T05:43:02.000Z</time>
      </trkpt>
      <trkpt lat="45.19109" lon="5.96935">
        <ele>1976</ele>
        <time>2026-07-07T05:43:31.000Z</time>
      </trkpt>
      <trkpt lat="45.19102" lon="5.96944">
        <ele>1977</ele>
        <time>2026-07-07T05:43:40.000Z</time>
      </trkpt>
      <trkpt lat="45.19111" lon="5.96946">
        <ele>1981</ele>
        <time>2026-07-07T05:44:07.000Z</time>
      </trkpt>
      <trkpt lat="45.19121" lon="5.96941">
        <ele>1983</ele>
        <time>2026-07-07T05:44:18.000Z</time>
      </trkpt>
      <trkpt lat="45.19113" lon="5.96949">
        <ele>1986</ele>
        <time>2026-07-07T05:44:33.000Z</time>
      </trkpt>
      <trkpt lat="45.19109" lon="5.96961">
        <ele>1987</ele>
        <time>2026-07-07T05:44:43.000Z</time>
      </trkpt>
      <trkpt lat="45.19106" lon="5.96974">
        <ele>1988</ele>
        <time>2026-07-07T05:44:54.000Z</time>
      </trkpt>
      <trkpt lat="45.19103" lon="5.96987">
        <ele>1989</ele>
        <time>2026-07-07T05:45:05.000Z</time>
      </trkpt>
      <trkpt lat="45.19112" lon="5.96985">
        <ele>1992</ele>
        <time>2026-07-07T05:45:31.000Z</time>
      </trkpt>
      <trkpt lat="45.19118" lon="5.96975">
        <ele>1994</ele>
        <time>2026-07-07T05:45:42.000Z</time>
      </trkpt>
      <trkpt lat="45.19126" lon="5.96968">
        <ele>1996</ele>
        <time>2026-07-07T05:45:53.000Z</time>
      </trkpt>
      <trkpt lat="45.19136" lon="5.96969">
        <ele>1996</ele>
        <time>2026-07-07T05:46:05.000Z</time>
      </trkpt>
      <trkpt lat="45.19146" lon="5.96973">
        <ele>1997</ele>
        <time>2026-07-07T05:46:16.000Z</time>
      </trkpt>
      <trkpt lat="45.19155" lon="5.96975">
        <ele>2000</ele>
        <time>2026-07-07T05:46:27.000Z</time>
      </trkpt>
      <trkpt lat="45.19164" lon="5.96975">
        <ele>2001</ele>
        <time>2026-07-07T05:46:36.000Z</time>
      </trkpt>
      <trkpt lat="45.19174" lon="5.96978">
        <ele>2000</ele>
        <time>2026-07-07T05:46:47.000Z</time>
      </trkpt>
      <trkpt lat="45.19181" lon="5.96988">
        <ele>2003</ele>
        <time>2026-07-07T05:46:58.000Z</time>
      </trkpt>
      <trkpt lat="45.19188" lon="5.96996">
        <ele>2005</ele>
        <time>2026-07-07T05:47:08.000Z</time>
      </trkpt>
      <trkpt lat="45.19196" lon="5.97004">
        <ele>2008</ele>
        <time>2026-07-07T05:47:18.000Z</time>
      </trkpt>
      <trkpt lat="45.19205" lon="5.97009">
        <ele>2009</ele>
        <time>2026-07-07T05:47:27.000Z</time>
      </trkpt>
      <trkpt lat="45.19213" lon="5.97014">
        <ele>2009</ele>
        <time>2026-07-07T05:47:36.000Z</time>
      </trkpt>
      <trkpt lat="45.19213" lon="5.97028">
        <ele>2013</ele>
        <time>2026-07-07T05:47:57.000Z</time>
      </trkpt>
      <trkpt lat="45.19203" lon="5.9703">
        <ele>2014</ele>
        <time>2026-07-07T05:48:08.000Z</time>
      </trkpt>
      <trkpt lat="45.19194" lon="5.97029">
        <ele>2015</ele>
        <time>2026-07-07T05:48:18.000Z</time>
      </trkpt>
      <trkpt lat="45.19184" lon="5.97029">
        <ele>2017</ele>
        <time>2026-07-07T05:48:29.000Z</time>
      </trkpt>
      <trkpt lat="45.19175" lon="5.9703">
        <ele>2018</ele>
        <time>2026-07-07T05:48:38.000Z</time>
      </trkpt>
      <trkpt lat="45.19166" lon="5.97031">
        <ele>2019</ele>
        <time>2026-07-07T05:48:48.000Z</time>
      </trkpt>
      <trkpt lat="45.19158" lon="5.97039">
        <ele>2022</ele>
        <time>2026-07-07T05:48:59.000Z</time>
      </trkpt>
      <trkpt lat="45.19151" lon="5.9705">
        <ele>2023</ele>
        <time>2026-07-07T05:49:10.000Z</time>
      </trkpt>
      <trkpt lat="45.19144" lon="5.97058">
        <ele>2024</ele>
        <time>2026-07-07T05:49:20.000Z</time>
      </trkpt>
      <trkpt lat="45.1914" lon="5.9707">
        <ele>2022</ele>
        <time>2026-07-07T05:49:28.000Z</time>
      </trkpt>
      <trkpt lat="45.19139" lon="5.97084">
        <ele>2023</ele>
        <time>2026-07-07T05:49:38.000Z</time>
      </trkpt>
      <trkpt lat="45.19137" lon="5.97097">
        <ele>2024</ele>
        <time>2026-07-07T05:49:49.000Z</time>
      </trkpt>
      <trkpt lat="45.19139" lon="5.9711">
        <ele>2024</ele>
        <time>2026-07-07T05:49:58.000Z</time>
      </trkpt>
      <trkpt lat="45.19141" lon="5.97122">
        <ele>2023</ele>
        <time>2026-07-07T05:50:09.000Z</time>
      </trkpt>
      <trkpt lat="45.19136" lon="5.97133">
        <ele>2024</ele>
        <time>2026-07-07T05:50:16.000Z</time>
      </trkpt>
      <trkpt lat="45.1913" lon="5.97145">
        <ele>2025</ele>
        <time>2026-07-07T05:50:23.000Z</time>
      </trkpt>
      <trkpt lat="45.19125" lon="5.97157">
        <ele>2025</ele>
        <time>2026-07-07T05:50:33.000Z</time>
      </trkpt>
      <trkpt lat="45.19119" lon="5.97168">
        <ele>2025</ele>
        <time>2026-07-07T05:50:44.000Z</time>
      </trkpt>
      <trkpt lat="45.19112" lon="5.97177">
        <ele>2026</ele>
        <time>2026-07-07T05:50:58.000Z</time>
      </trkpt>
      <trkpt lat="45.19103" lon="5.97175">
        <ele>2028</ele>
        <time>2026-07-07T05:51:10.000Z</time>
      </trkpt>
      <trkpt lat="45.19095" lon="5.97167">
        <ele>2031</ele>
        <time>2026-07-07T05:51:23.000Z</time>
      </trkpt>
      <trkpt lat="45.19091" lon="5.97155">
        <ele>2032</ele>
        <time>2026-07-07T05:51:36.000Z</time>
      </trkpt>
      <trkpt lat="45.19087" lon="5.97143">
        <ele>2033</ele>
        <time>2026-07-07T05:51:48.000Z</time>
      </trkpt>
      <trkpt lat="45.1908" lon="5.97133">
        <ele>2034</ele>
        <time>2026-07-07T05:52:08.000Z</time>
      </trkpt>
      <trkpt lat="45.19073" lon="5.97141">
        <ele>2035</ele>
        <time>2026-07-07T05:52:29.000Z</time>
      </trkpt>
      <trkpt lat="45.19075" lon="5.97155">
        <ele>2035</ele>
        <time>2026-07-07T05:52:48.000Z</time>
      </trkpt>
      <trkpt lat="45.19074" lon="5.97169">
        <ele>2033</ele>
        <time>2026-07-07T05:53:02.000Z</time>
      </trkpt>
      <trkpt lat="45.19072" lon="5.97182">
        <ele>2035</ele>
        <time>2026-07-07T05:53:43.000Z</time>
      </trkpt>
      <trkpt lat="45.19068" lon="5.97193">
        <ele>2036</ele>
        <time>2026-07-07T05:54:08.000Z</time>
      </trkpt>
      <trkpt lat="45.19063" lon="5.97205">
        <ele>2040</ele>
        <time>2026-07-07T05:54:40.000Z</time>
      </trkpt>
      <trkpt lat="45.19063" lon="5.97218">
        <ele>2043</ele>
        <time>2026-07-07T05:55:18.000Z</time>
      </trkpt>
      <trkpt lat="45.19053" lon="5.97222">
        <ele>2046</ele>
        <time>2026-07-07T05:55:46.000Z</time>
      </trkpt>
      <trkpt lat="45.19044" lon="5.97221">
        <ele>2049</ele>
        <time>2026-07-07T05:56:03.000Z</time>
      </trkpt>
      <trkpt lat="45.19035" lon="5.97225">
        <ele>2051</ele>
        <time>2026-07-07T05:56:17.000Z</time>
      </trkpt>
      <trkpt lat="45.19027" lon="5.9723">
        <ele>2053</ele>
        <time>2026-07-07T05:56:34.000Z</time>
      </trkpt>
      <trkpt lat="45.19018" lon="5.97235">
        <ele>2055</ele>
        <time>2026-07-07T05:56:55.000Z</time>
      </trkpt>
      <trkpt lat="45.19008" lon="5.97237">
        <ele>2057</ele>
        <time>2026-07-07T05:57:14.000Z</time>
      </trkpt>
      <trkpt lat="45.18999" lon="5.9724">
        <ele>2060</ele>
        <time>2026-07-07T05:57:38.000Z</time>
      </trkpt>
      <trkpt lat="45.1899" lon="5.9724">
        <ele>2062</ele>
        <time>2026-07-07T05:58:19.000Z</time>
      </trkpt>
      <trkpt lat="45.18983" lon="5.97248">
        <ele>2064</ele>
        <time>2026-07-07T05:58:33.000Z</time>
      </trkpt>
      <trkpt lat="45.18974" lon="5.97253">
        <ele>2067</ele>
        <time>2026-07-07T05:58:52.000Z</time>
      </trkpt>
      <trkpt lat="45.18965" lon="5.97257">
        <ele>2070</ele>
        <time>2026-07-07T05:59:11.000Z</time>
      </trkpt>
      <trkpt lat="45.18957" lon="5.97262">
        <ele>2072</ele>
        <time>2026-07-07T05:59:31.000Z</time>
      </trkpt>
      <trkpt lat="45.18948" lon="5.97268">
        <ele>2077</ele>
        <time>2026-07-07T05:59:53.000Z</time>
      </trkpt>
      <trkpt lat="45.18939" lon="5.97275">
        <ele>2080</ele>
        <time>2026-07-07T06:00:18.000Z</time>
      </trkpt>
      <trkpt lat="45.18931" lon="5.9728">
        <ele>2083</ele>
        <time>2026-07-07T06:06:01.000Z</time>
      </trkpt>
      <trkpt lat="45.18921" lon="5.97281">
        <ele>2087</ele>
        <time>2026-07-07T06:06:19.000Z</time>
      </trkpt>
      <trkpt lat="45.18913" lon="5.97275">
        <ele>2088</ele>
        <time>2026-07-07T06:06:37.000Z</time>
      </trkpt>
      <trkpt lat="45.18905" lon="5.9727">
        <ele>2088</ele>
        <time>2026-07-07T06:06:53.000Z</time>
      </trkpt>
      <trkpt lat="45.18896" lon="5.97269">
        <ele>2092</ele>
        <time>2026-07-07T06:07:16.000Z</time>
      </trkpt>
      <trkpt lat="45.18887" lon="5.97265">
        <ele>2093</ele>
        <time>2026-07-07T06:07:35.000Z</time>
      </trkpt>
      <trkpt lat="45.18877" lon="5.97264">
        <ele>2097</ele>
        <time>2026-07-07T06:08:04.000Z</time>
      </trkpt>
      <trkpt lat="45.1887" lon="5.97257">
        <ele>2101</ele>
        <time>2026-07-07T06:08:20.000Z</time>
      </trkpt>
      <trkpt lat="45.18862" lon="5.9725">
        <ele>2103</ele>
        <time>2026-07-07T06:08:40.000Z</time>
      </trkpt>
      <trkpt lat="45.18856" lon="5.97239">
        <ele>2104</ele>
        <time>2026-07-07T06:08:56.000Z</time>
      </trkpt>
      <trkpt lat="45.18847" lon="5.97236">
        <ele>2107</ele>
        <time>2026-07-07T06:09:25.000Z</time>
      </trkpt>
      <trkpt lat="45.18837" lon="5.97231">
        <ele>2113</ele>
        <time>2026-07-07T06:09:54.000Z</time>
      </trkpt>
      <trkpt lat="45.1883" lon="5.97221">
        <ele>2112</ele>
        <time>2026-07-07T06:10:13.000Z</time>
      </trkpt>
      <trkpt lat="45.18827" lon="5.97209">
        <ele>2114</ele>
        <time>2026-07-07T06:10:28.000Z</time>
      </trkpt>
      <trkpt lat="45.1882" lon="5.97198">
        <ele>2117</ele>
        <time>2026-07-07T06:10:42.000Z</time>
      </trkpt>
      <trkpt lat="45.18813" lon="5.97191">
        <ele>2119</ele>
        <time>2026-07-07T06:11:02.000Z</time>
      </trkpt>
      <trkpt lat="45.18805" lon="5.97185">
        <ele>2120</ele>
        <time>2026-07-07T06:11:17.000Z</time>
      </trkpt>
      <trkpt lat="45.18796" lon="5.97179">
        <ele>2122</ele>
        <time>2026-07-07T06:11:33.000Z</time>
      </trkpt>
      <trkpt lat="45.18789" lon="5.97171">
        <ele>2123</ele>
        <time>2026-07-07T06:11:48.000Z</time>
      </trkpt>
      <trkpt lat="45.18782" lon="5.97163">
        <ele>2124</ele>
        <time>2026-07-07T06:12:02.000Z</time>
      </trkpt>
      <trkpt lat="45.18776" lon="5.97153">
        <ele>2127</ele>
        <time>2026-07-07T06:12:19.000Z</time>
      </trkpt>
      <trkpt lat="45.1877" lon="5.97143">
        <ele>2129</ele>
        <time>2026-07-07T06:12:35.000Z</time>
      </trkpt>
      <trkpt lat="45.18761" lon="5.97139">
        <ele>2133</ele>
        <time>2026-07-07T06:12:58.000Z</time>
      </trkpt>
      <trkpt lat="45.18752" lon="5.97137">
        <ele>2136</ele>
        <time>2026-07-07T06:13:31.000Z</time>
      </trkpt>
      <trkpt lat="45.18743" lon="5.97133">
        <ele>2140</ele>
        <time>2026-07-07T06:13:53.000Z</time>
      </trkpt>
      <trkpt lat="45.18735" lon="5.97127">
        <ele>2145</ele>
        <time>2026-07-07T06:14:27.000Z</time>
      </trkpt>
      <trkpt lat="45.18726" lon="5.97129">
        <ele>2149</ele>
        <time>2026-07-07T06:15:33.000Z</time>
      </trkpt>
      <trkpt lat="45.18717" lon="5.97124">
        <ele>2150</ele>
        <time>2026-07-07T06:15:52.000Z</time>
      </trkpt>
      <trkpt lat="45.18708" lon="5.97122">
        <ele>2153</ele>
        <time>2026-07-07T06:16:09.000Z</time>
      </trkpt>
      <trkpt lat="45.18699" lon="5.97118">
        <ele>2155</ele>
        <time>2026-07-07T06:16:35.000Z</time>
      </trkpt>
      <trkpt lat="45.18692" lon="5.9711">
        <ele>2159</ele>
        <time>2026-07-07T06:17:56.000Z</time>
      </trkpt>
      <trkpt lat="45.18685" lon="5.97101">
        <ele>2161</ele>
        <time>2026-07-07T06:18:14.000Z</time>
      </trkpt>
      <trkpt lat="45.18678" lon="5.97092">
        <ele>2166</ele>
        <time>2026-07-07T06:18:39.000Z</time>
      </trkpt>
      <trkpt lat="45.18671" lon="5.97082">
        <ele>2168</ele>
        <time>2026-07-07T06:19:03.000Z</time>
      </trkpt>
      <trkpt lat="45.18665" lon="5.97073">
        <ele>2172</ele>
        <time>2026-07-07T06:19:19.000Z</time>
      </trkpt>
      <trkpt lat="45.18663" lon="5.9706">
        <ele>2174</ele>
        <time>2026-07-07T06:19:42.000Z</time>
      </trkpt>
      <trkpt lat="45.18659" lon="5.97048">
        <ele>2175</ele>
        <time>2026-07-07T06:19:57.000Z</time>
      </trkpt>
      <trkpt lat="45.18653" lon="5.97039">
        <ele>2176</ele>
        <time>2026-07-07T06:20:14.000Z</time>
      </trkpt>
      <trkpt lat="45.18645" lon="5.97032">
        <ele>2180</ele>
        <time>2026-07-07T06:21:22.000Z</time>
      </trkpt>
      <trkpt lat="45.18637" lon="5.97037">
        <ele>2181</ele>
        <time>2026-07-07T06:21:34.000Z</time>
      </trkpt>
      <trkpt lat="45.1863" lon="5.97047">
        <ele>2181</ele>
        <time>2026-07-07T06:21:50.000Z</time>
      </trkpt>
      <trkpt lat="45.1862" lon="5.97049">
        <ele>2183</ele>
        <time>2026-07-07T06:22:04.000Z</time>
      </trkpt>
      <trkpt lat="45.18611" lon="5.97047">
        <ele>2185</ele>
        <time>2026-07-07T06:22:20.000Z</time>
      </trkpt>
      <trkpt lat="45.18603" lon="5.97039">
        <ele>2187</ele>
        <time>2026-07-07T06:22:43.000Z</time>
      </trkpt>
      <trkpt lat="45.18593" lon="5.97035">
        <ele>2187</ele>
        <time>2026-07-07T06:23:05.000Z</time>
      </trkpt>
      <trkpt lat="45.18584" lon="5.97035">
        <ele>2189</ele>
        <time>2026-07-07T06:23:38.000Z</time>
      </trkpt>
      <trkpt lat="45.18576" lon="5.9704">
        <ele>2192</ele>
        <time>2026-07-07T06:24:09.000Z</time>
      </trkpt>
      <trkpt lat="45.18567" lon="5.97033">
        <ele>2195</ele>
        <time>2026-07-07T06:25:02.000Z</time>
      </trkpt>
      <trkpt lat="45.18559" lon="5.97027">
        <ele>2199</ele>
        <time>2026-07-07T06:25:36.000Z</time>
      </trkpt>
      <trkpt lat="45.18554" lon="5.97017">
        <ele>2195</ele>
        <time>2026-07-07T06:26:00.000Z</time>
      </trkpt>
      <trkpt lat="45.18545" lon="5.97014">
        <ele>2188</ele>
        <time>2026-07-07T06:26:26.000Z</time>
      </trkpt>
      <trkpt lat="45.18537" lon="5.97007">
        <ele>2196</ele>
        <time>2026-07-07T06:27:36.000Z</time>
      </trkpt>
      <trkpt lat="45.18527" lon="5.97007">
        <ele>2197</ele>
        <time>2026-07-07T06:27:54.000Z</time>
      </trkpt>
      <trkpt lat="45.18518" lon="5.97009">
        <ele>2196</ele>
        <time>2026-07-07T06:30:03.000Z</time>
      </trkpt>
      <trkpt lat="45.18511" lon="5.97018">
        <ele>2195</ele>
        <time>2026-07-07T06:30:14.000Z</time>
      </trkpt>
      <trkpt lat="45.18505" lon="5.97028">
        <ele>2194</ele>
        <time>2026-07-07T06:30:37.000Z</time>
      </trkpt>
      <trkpt lat="45.18499" lon="5.97038">
        <ele>2191</ele>
        <time>2026-07-07T06:31:03.000Z</time>
      </trkpt>
      <trkpt lat="45.18498" lon="5.97052">
        <ele>2192</ele>
        <time>2026-07-07T06:31:21.000Z</time>
      </trkpt>
      <trkpt lat="45.18494" lon="5.97064">
        <ele>2193</ele>
        <time>2026-07-07T06:31:36.000Z</time>
      </trkpt>
      <trkpt lat="45.18488" lon="5.97073">
        <ele>2192</ele>
        <time>2026-07-07T06:31:58.000Z</time>
      </trkpt>
      <trkpt lat="45.1848" lon="5.9708">
        <ele>2193</ele>
        <time>2026-07-07T06:32:09.000Z</time>
      </trkpt>
      <trkpt lat="45.1847" lon="5.97084">
        <ele>2193</ele>
        <time>2026-07-07T06:32:22.000Z</time>
      </trkpt>
      <trkpt lat="45.18462" lon="5.97087">
        <ele>2193</ele>
        <time>2026-07-07T06:32:36.000Z</time>
      </trkpt>
      <trkpt lat="45.18453" lon="5.97084">
        <ele>2192</ele>
        <time>2026-07-07T06:32:54.000Z</time>
      </trkpt>
      <trkpt lat="45.18444" lon="5.97079">
        <ele>2192</ele>
        <time>2026-07-07T06:33:18.000Z</time>
      </trkpt>
      <trkpt lat="45.18436" lon="5.97073">
        <ele>2194</ele>
        <time>2026-07-07T06:33:36.000Z</time>
      </trkpt>
      <trkpt lat="45.18427" lon="5.9707">
        <ele>2195</ele>
        <time>2026-07-07T06:33:49.000Z</time>
      </trkpt>
      <trkpt lat="45.18419" lon="5.97065">
        <ele>2196</ele>
        <time>2026-07-07T06:34:04.000Z</time>
      </trkpt>
      <trkpt lat="45.18414" lon="5.97053">
        <ele>2200</ele>
        <time>2026-07-07T06:35:07.000Z</time>
      </trkpt>
      <trkpt lat="45.18406" lon="5.97046">
        <ele>2198</ele>
        <time>2026-07-07T06:35:23.000Z</time>
      </trkpt>
      <trkpt lat="45.18401" lon="5.97036">
        <ele>2200</ele>
        <time>2026-07-07T06:36:06.000Z</time>
      </trkpt>
      <trkpt lat="45.18392" lon="5.97041">
        <ele>2193</ele>
        <time>2026-07-07T06:36:52.000Z</time>
      </trkpt>
      <trkpt lat="45.1839" lon="5.97027">
        <ele>2188</ele>
        <time>2026-07-07T06:39:49.000Z</time>
      </trkpt>
      <trkpt lat="45.18383" lon="5.97018">
        <ele>2188</ele>
        <time>2026-07-07T06:40:04.000Z</time>
      </trkpt>
      <trkpt lat="45.18377" lon="5.97008">
        <ele>2193</ele>
        <time>2026-07-07T06:40:47.000Z</time>
      </trkpt>
      <trkpt lat="45.18368" lon="5.97003">
        <ele>2192</ele>
        <time>2026-07-07T06:41:12.000Z</time>
      </trkpt>
      <trkpt lat="45.18359" lon="5.97001">
        <ele>2190</ele>
        <time>2026-07-07T06:42:20.000Z</time>
      </trkpt>
      <trkpt lat="45.18356" lon="5.97014">
        <ele>2192</ele>
        <time>2026-07-07T06:43:32.000Z</time>
      </trkpt>
      <trkpt lat="45.18349" lon="5.97021">
        <ele>2188</ele>
        <time>2026-07-07T06:44:29.000Z</time>
      </trkpt>
      <trkpt lat="45.18341" lon="5.97026">
        <ele>2181</ele>
        <time>2026-07-07T06:46:12.000Z</time>
      </trkpt>
      <trkpt lat="45.18333" lon="5.97034">
        <ele>2178</ele>
        <time>2026-07-07T06:47:20.000Z</time>
      </trkpt>
      <trkpt lat="45.18332" lon="5.97047">
        <ele>2177</ele>
        <time>2026-07-07T06:48:13.000Z</time>
      </trkpt>
      <trkpt lat="45.18328" lon="5.97058">
        <ele>2181</ele>
        <time>2026-07-07T06:49:01.000Z</time>
      </trkpt>
      <trkpt lat="45.1832" lon="5.97067">
        <ele>2183</ele>
        <time>2026-07-07T06:50:14.000Z</time>
      </trkpt>
      <trkpt lat="45.18314" lon="5.97077">
        <ele>2184</ele>
        <time>2026-07-07T06:50:57.000Z</time>
      </trkpt>
      <trkpt lat="45.18307" lon="5.97086">
        <ele>2184</ele>
        <time>2026-07-07T06:51:46.000Z</time>
      </trkpt>
      <trkpt lat="45.18302" lon="5.97097">
        <ele>2187</ele>
        <time>2026-07-07T06:52:21.000Z</time>
      </trkpt>
      <trkpt lat="45.18305" lon="5.97108">
        <ele>2190</ele>
        <time>2026-07-07T06:53:04.000Z</time>
      </trkpt>
      <trkpt lat="45.183" lon="5.9712">
        <ele>2192</ele>
        <time>2026-07-07T06:53:54.000Z</time>
      </trkpt>
      <trkpt lat="45.18295" lon="5.9713">
        <ele>2191</ele>
        <time>2026-07-07T06:54:19.000Z</time>
      </trkpt>
      <trkpt lat="45.18288" lon="5.97137">
        <ele>2193</ele>
        <time>2026-07-07T06:54:49.000Z</time>
      </trkpt>
      <trkpt lat="45.18281" lon="5.97146">
        <ele>2193</ele>
        <time>2026-07-07T06:55:37.000Z</time>
      </trkpt>
      <trkpt lat="45.18276" lon="5.97158">
        <ele>2196</ele>
        <time>2026-07-07T06:55:55.000Z</time>
      </trkpt>
      <trkpt lat="45.18273" lon="5.9717">
        <ele>2197</ele>
        <time>2026-07-07T06:56:19.000Z</time>
      </trkpt>
      <trkpt lat="45.18268" lon="5.97181">
        <ele>2195</ele>
        <time>2026-07-07T06:56:46.000Z</time>
      </trkpt>
      <trkpt lat="45.18261" lon="5.9719">
        <ele>2196</ele>
        <time>2026-07-07T06:57:08.000Z</time>
      </trkpt>
      <trkpt lat="45.18253" lon="5.97196">
        <ele>2200</ele>
        <time>2026-07-07T06:57:35.000Z</time>
      </trkpt>
      <trkpt lat="45.18243" lon="5.97192">
        <ele>2201</ele>
        <time>2026-07-07T06:58:09.000Z</time>
      </trkpt>
      <trkpt lat="45.18234" lon="5.97192">
        <ele>2202</ele>
        <time>2026-07-07T06:58:27.000Z</time>
      </trkpt>
      <trkpt lat="45.18225" lon="5.97189">
        <ele>2205</ele>
        <time>2026-07-07T06:58:45.000Z</time>
      </trkpt>
      <trkpt lat="45.18217" lon="5.97183">
        <ele>2207</ele>
        <time>2026-07-07T06:59:19.000Z</time>
      </trkpt>
      <trkpt lat="45.18208" lon="5.9718">
        <ele>2209</ele>
        <time>2026-07-07T06:59:49.000Z</time>
      </trkpt>
      <trkpt lat="45.18198" lon="5.97178">
        <ele>2212</ele>
        <time>2026-07-07T07:00:11.000Z</time>
      </trkpt>
      <trkpt lat="45.18189" lon="5.97178">
        <ele>2216</ele>
        <time>2026-07-07T07:00:45.000Z</time>
      </trkpt>
      <trkpt lat="45.1818" lon="5.97179">
        <ele>2218</ele>
        <time>2026-07-07T07:01:10.000Z</time>
      </trkpt>
      <trkpt lat="45.18171" lon="5.97184">
        <ele>2220</ele>
        <time>2026-07-07T07:02:06.000Z</time>
      </trkpt>
      <trkpt lat="45.18162" lon="5.97188">
        <ele>2225</ele>
        <time>2026-07-07T07:02:48.000Z</time>
      </trkpt>
      <trkpt lat="45.18153" lon="5.9719">
        <ele>2227</ele>
        <time>2026-07-07T07:03:12.000Z</time>
      </trkpt>
      <trkpt lat="45.18145" lon="5.97196">
        <ele>2230</ele>
        <time>2026-07-07T07:03:38.000Z</time>
      </trkpt>
      <trkpt lat="45.18136" lon="5.97198">
        <ele>2231</ele>
        <time>2026-07-07T07:06:33.000Z</time>
      </trkpt>
      <trkpt lat="45.18127" lon="5.97197">
        <ele>2234</ele>
        <time>2026-07-07T07:07:53.000Z</time>
      </trkpt>
      <trkpt lat="45.18131" lon="5.97209">
        <ele>2237</ele>
        <time>2026-07-07T07:11:57.000Z</time>
      </trkpt>
      <trkpt lat="45.18125" lon="5.97221">
        <ele>2238</ele>
        <time>2026-07-07T07:12:19.000Z</time>
      </trkpt>
      <trkpt lat="45.18129" lon="5.97234">
        <ele>2240</ele>
        <time>2026-07-07T07:12:33.000Z</time>
      </trkpt>
      <trkpt lat="45.18124" lon="5.97246">
        <ele>2241</ele>
        <time>2026-07-07T07:12:59.000Z</time>
      </trkpt>
      <trkpt lat="45.18128" lon="5.97257">
        <ele>2240</ele>
        <time>2026-07-07T07:44:00.000Z</time>
      </trkpt>
      <trkpt lat="45.18131" lon="5.9727">
        <ele>2241</ele>
        <time>2026-07-07T07:44:12.000Z</time>
      </trkpt>
      <trkpt lat="45.18129" lon="5.97283">
        <ele>2242</ele>
        <time>2026-07-07T07:44:23.000Z</time>
      </trkpt>
      <trkpt lat="45.18128" lon="5.97298">
        <ele>2242</ele>
        <time>2026-07-07T07:44:36.000Z</time>
      </trkpt>
      <trkpt lat="45.18133" lon="5.97308">
        <ele>2243</ele>
        <time>2026-07-07T07:44:54.000Z</time>
      </trkpt>
      <trkpt lat="45.18139" lon="5.97319">
        <ele>2246</ele>
        <time>2026-07-07T07:45:27.000Z</time>
      </trkpt>
      <trkpt lat="45.18143" lon="5.9733">
        <ele>2247</ele>
        <time>2026-07-07T07:45:43.000Z</time>
      </trkpt>
      <trkpt lat="45.18144" lon="5.97344">
        <ele>2248</ele>
        <time>2026-07-07T07:45:58.000Z</time>
      </trkpt>
      <trkpt lat="45.18146" lon="5.97357">
        <ele>2249</ele>
        <time>2026-07-07T07:46:12.000Z</time>
      </trkpt>
      <trkpt lat="45.18147" lon="5.97369">
        <ele>2251</ele>
        <time>2026-07-07T07:46:28.000Z</time>
      </trkpt>
      <trkpt lat="45.18148" lon="5.97382">
        <ele>2256</ele>
        <time>2026-07-07T07:46:51.000Z</time>
      </trkpt>
      <trkpt lat="45.1815" lon="5.97395">
        <ele>2258</ele>
        <time>2026-07-07T07:47:12.000Z</time>
      </trkpt>
      <trkpt lat="45.18153" lon="5.97408">
        <ele>2261</ele>
        <time>2026-07-07T07:47:46.000Z</time>
      </trkpt>
      <trkpt lat="45.18155" lon="5.97421">
        <ele>2265</ele>
        <time>2026-07-07T07:48:05.000Z</time>
      </trkpt>
      <trkpt lat="45.18157" lon="5.97433">
        <ele>2266</ele>
        <time>2026-07-07T07:48:47.000Z</time>
      </trkpt>
      <trkpt lat="45.18163" lon="5.97443">
        <ele>2268</ele>
        <time>2026-07-07T07:49:17.000Z</time>
      </trkpt>
      <trkpt lat="45.18172" lon="5.97447">
        <ele>2271</ele>
        <time>2026-07-07T07:49:46.000Z</time>
      </trkpt>
      <trkpt lat="45.18179" lon="5.97456">
        <ele>2273</ele>
        <time>2026-07-07T07:50:00.000Z</time>
      </trkpt>
      <trkpt lat="45.18186" lon="5.97465">
        <ele>2273</ele>
        <time>2026-07-07T07:50:12.000Z</time>
      </trkpt>
      <trkpt lat="45.18195" lon="5.97472">
        <ele>2273</ele>
        <time>2026-07-07T07:50:37.000Z</time>
      </trkpt>
      <trkpt lat="45.18201" lon="5.97481">
        <ele>2275</ele>
        <time>2026-07-07T07:51:00.000Z</time>
      </trkpt>
      <trkpt lat="45.1821" lon="5.97483">
        <ele>2277</ele>
        <time>2026-07-07T07:51:15.000Z</time>
      </trkpt>
      <trkpt lat="45.18217" lon="5.97491">
        <ele>2278</ele>
        <time>2026-07-07T07:51:31.000Z</time>
      </trkpt>
      <trkpt lat="45.18226" lon="5.97487">
        <ele>2277</ele>
        <time>2026-07-07T07:52:29.000Z</time>
      </trkpt>
      <trkpt lat="45.18233" lon="5.97497">
        <ele>2279</ele>
        <time>2026-07-07T07:52:44.000Z</time>
      </trkpt>
      <trkpt lat="45.1824" lon="5.97504">
        <ele>2281</ele>
        <time>2026-07-07T07:53:27.000Z</time>
      </trkpt>
      <trkpt lat="45.18248" lon="5.97509">
        <ele>2283</ele>
        <time>2026-07-07T07:53:54.000Z</time>
      </trkpt>
      <trkpt lat="45.18257" lon="5.97513">
        <ele>2285</ele>
        <time>2026-07-07T07:55:16.000Z</time>
      </trkpt>
      <trkpt lat="45.18261" lon="5.97524">
        <ele>2287</ele>
        <time>2026-07-07T07:55:33.000Z</time>
      </trkpt>
      <trkpt lat="45.18266" lon="5.97536">
        <ele>2290</ele>
        <time>2026-07-07T07:55:55.000Z</time>
      </trkpt>
      <trkpt lat="45.18271" lon="5.97546">
        <ele>2292</ele>
        <time>2026-07-07T07:56:33.000Z</time>
      </trkpt>
      <trkpt lat="45.18278" lon="5.97555">
        <ele>2297</ele>
        <time>2026-07-07T07:57:58.000Z</time>
      </trkpt>
      <trkpt lat="45.18286" lon="5.97559">
        <ele>2301</ele>
        <time>2026-07-07T07:59:04.000Z</time>
      </trkpt>
      <trkpt lat="45.18295" lon="5.97561">
        <ele>2305</ele>
        <time>2026-07-07T08:00:36.000Z</time>
      </trkpt>
      <trkpt lat="45.18304" lon="5.97557">
        <ele>2310</ele>
        <time>2026-07-07T08:01:19.000Z</time>
      </trkpt>
      <trkpt lat="45.18313" lon="5.97556">
        <ele>2320</ele>
        <time>2026-07-07T08:03:07.000Z</time>
      </trkpt>
      <trkpt lat="45.18322" lon="5.97558">
        <ele>2326</ele>
        <time>2026-07-07T08:05:12.000Z</time>
      </trkpt>
      <trkpt lat="45.18326" lon="5.97569">
        <ele>2340</ele>
        <time>2026-07-07T08:15:30.000Z</time>
      </trkpt>
      <trkpt lat="45.18332" lon="5.97579">
        <ele>2348</ele>
        <time>2026-07-07T08:17:41.000Z</time>
      </trkpt>
      <trkpt lat="45.18335" lon="5.97592">
        <ele>2353</ele>
        <time>2026-07-07T08:18:52.000Z</time>
      </trkpt>
      <trkpt lat="45.18341" lon="5.97603">
        <ele>2357</ele>
        <time>2026-07-07T08:19:21.000Z</time>
      </trkpt>
      <trkpt lat="45.18347" lon="5.97594">
        <ele>2362</ele>
        <time>2026-07-07T08:20:23.000Z</time>
      </trkpt>
      <trkpt lat="45.18352" lon="5.97604">
        <ele>2366</ele>
        <time>2026-07-07T08:20:56.000Z</time>
      </trkpt>
      <trkpt lat="45.18356" lon="5.97617">
        <ele>2367</ele>
        <time>2026-07-07T08:21:17.000Z</time>
      </trkpt>
      <trkpt lat="45.1836" lon="5.97628">
        <ele>2370</ele>
        <time>2026-07-07T08:22:38.000Z</time>
      </trkpt>
      <trkpt lat="45.18362" lon="5.97641">
        <ele>2372</ele>
        <time>2026-07-07T08:23:24.000Z</time>
      </trkpt>
      <trkpt lat="45.18365" lon="5.97653">
        <ele>2375</ele>
        <time>2026-07-07T08:24:14.000Z</time>
      </trkpt>
      <trkpt lat="45.18371" lon="5.97664">
        <ele>2381</ele>
        <time>2026-07-07T08:25:45.000Z</time>
      </trkpt>
      <trkpt lat="45.18373" lon="5.97677">
        <ele>2382</ele>
        <time>2026-07-07T08:26:26.000Z</time>
      </trkpt>
      <trkpt lat="45.18373" lon="5.9769">
        <ele>2387</ele>
        <time>2026-07-07T08:27:04.000Z</time>
      </trkpt>
      <trkpt lat="45.18377" lon="5.97701">
        <ele>2395</ele>
        <time>2026-07-07T08:28:10.000Z</time>
      </trkpt>
      <trkpt lat="45.18385" lon="5.97708">
        <ele>2396</ele>
        <time>2026-07-07T08:28:36.000Z</time>
      </trkpt>
      <trkpt lat="45.18393" lon="5.97715">
        <ele>2403</ele>
        <time>2026-07-07T08:29:53.000Z</time>
      </trkpt>
      <trkpt lat="45.1839" lon="5.97727">
        <ele>2407</ele>
        <time>2026-07-07T08:30:21.000Z</time>
      </trkpt>
      <trkpt lat="45.18393" lon="5.9774">
        <ele>2411</ele>
        <time>2026-07-07T08:31:07.000Z</time>
      </trkpt>
      <trkpt lat="45.18398" lon="5.9775">
        <ele>2414</ele>
        <time>2026-07-07T08:31:36.000Z</time>
      </trkpt>
      <trkpt lat="45.18402" lon="5.97763">
        <ele>2415</ele>
        <time>2026-07-07T08:31:56.000Z</time>
      </trkpt>
      <trkpt lat="45.18407" lon="5.97773">
        <ele>2416</ele>
        <time>2026-07-07T08:32:16.000Z</time>
      </trkpt>
      <trkpt lat="45.18414" lon="5.97781">
        <ele>2418</ele>
        <time>2026-07-07T08:34:09.000Z</time>
      </trkpt>
      <trkpt lat="45.18421" lon="5.9779">
        <ele>2422</ele>
        <time>2026-07-07T08:34:32.000Z</time>
      </trkpt>
      <trkpt lat="45.18427" lon="5.97799">
        <ele>2426</ele>
        <time>2026-07-07T08:34:54.000Z</time>
      </trkpt>
      <trkpt lat="45.18431" lon="5.9781">
        <ele>2430</ele>
        <time>2026-07-07T08:36:07.000Z</time>
      </trkpt>
      <trkpt lat="45.18438" lon="5.9782">
        <ele>2434</ele>
        <time>2026-07-07T08:36:42.000Z</time>
      </trkpt>
      <trkpt lat="45.18445" lon="5.97828">
        <ele>2438</ele>
        <time>2026-07-07T08:38:35.000Z</time>
      </trkpt>
      <trkpt lat="45.18449" lon="5.9784">
        <ele>2442</ele>
        <time>2026-07-07T08:39:17.000Z</time>
      </trkpt>
      <trkpt lat="45.18455" lon="5.9785">
        <ele>2448</ele>
        <time>2026-07-07T08:41:50.000Z</time>
      </trkpt>
      <trkpt lat="45.18462" lon="5.97858">
        <ele>2457</ele>
        <time>2026-07-07T08:44:16.000Z</time>
      </trkpt>
      <trkpt lat="45.18463" lon="5.97872">
        <ele>2458</ele>
        <time>2026-07-07T08:45:20.000Z</time>
      </trkpt>
      <trkpt lat="45.18463" lon="5.97885">
        <ele>2462</ele>
        <time>2026-07-07T08:46:36.000Z</time>
      </trkpt>
      <trkpt lat="45.1847" lon="5.97893">
        <ele>2468</ele>
        <time>2026-07-07T08:48:09.000Z</time>
      </trkpt>
      <trkpt lat="45.18475" lon="5.97904">
        <ele>2472</ele>
        <time>2026-07-07T08:49:24.000Z</time>
      </trkpt>
      <trkpt lat="45.18481" lon="5.97914">
        <ele>2474</ele>
        <time>2026-07-07T08:50:00.000Z</time>
      </trkpt>
      <trkpt lat="45.18484" lon="5.97926">
        <ele>2476</ele>
        <time>2026-07-07T08:50:34.000Z</time>
      </trkpt>
      <trkpt lat="45.18488" lon="5.97938">
        <ele>2482</ele>
        <time>2026-07-07T08:51:21.000Z</time>
      </trkpt>
      <trkpt lat="45.18488" lon="5.97952">
        <ele>2485</ele>
        <time>2026-07-07T08:52:13.000Z</time>
      </trkpt>
      <trkpt lat="45.18494" lon="5.97963">
        <ele>2489</ele>
        <time>2026-07-07T08:52:56.000Z</time>
      </trkpt>
      <trkpt lat="45.18501" lon="5.9797">
        <ele>2494</ele>
        <time>2026-07-07T08:53:56.000Z</time>
      </trkpt>
      <trkpt lat="45.18511" lon="5.97969">
        <ele>2501</ele>
        <time>2026-07-07T08:55:12.000Z</time>
      </trkpt>
      <trkpt lat="45.1852" lon="5.97969">
        <ele>2505</ele>
        <time>2026-07-07T08:55:59.000Z</time>
      </trkpt>
      <trkpt lat="45.18529" lon="5.97973">
        <ele>2515</ele>
        <time>2026-07-07T08:57:08.000Z</time>
      </trkpt>
      <trkpt lat="45.18533" lon="5.97984">
        <ele>2516</ele>
        <time>2026-07-07T08:59:38.000Z</time>
      </trkpt>
      <trkpt lat="45.18538" lon="5.97995">
        <ele>2517</ele>
        <time>2026-07-07T08:59:55.000Z</time>
      </trkpt>
      <trkpt lat="45.18539" lon="5.98008">
        <ele>2519</ele>
        <time>2026-07-07T09:00:16.000Z</time>
      </trkpt>
      <trkpt lat="45.18548" lon="5.98012">
        <ele>2523</ele>
        <time>2026-07-07T09:00:45.000Z</time>
      </trkpt>
      <trkpt lat="45.18556" lon="5.98018">
        <ele>2525</ele>
        <time>2026-07-07T09:01:12.000Z</time>
      </trkpt>
      <trkpt lat="45.18565" lon="5.98021">
        <ele>2529</ele>
        <time>2026-07-07T09:01:53.000Z</time>
      </trkpt>
      <trkpt lat="45.18573" lon="5.98027">
        <ele>2533</ele>
        <time>2026-07-07T09:02:53.000Z</time>
      </trkpt>
      <trkpt lat="45.18581" lon="5.98032">
        <ele>2539</ele>
        <time>2026-07-07T09:03:37.000Z</time>
      </trkpt>
      <trkpt lat="45.18588" lon="5.98041">
        <ele>2543</ele>
        <time>2026-07-07T09:05:02.000Z</time>
      </trkpt>
      <trkpt lat="45.18595" lon="5.9805">
        <ele>2546</ele>
        <time>2026-07-07T09:05:37.000Z</time>
      </trkpt>
      <trkpt lat="45.18598" lon="5.98063">
        <ele>2552</ele>
        <time>2026-07-07T09:06:50.000Z</time>
      </trkpt>
      <trkpt lat="45.18601" lon="5.98075">
        <ele>2554</ele>
        <time>2026-07-07T09:07:17.000Z</time>
      </trkpt>
      <trkpt lat="45.18607" lon="5.98084">
        <ele>2559</ele>
        <time>2026-07-07T09:07:38.000Z</time>
      </trkpt>
      <trkpt lat="45.18615" lon="5.9809">
        <ele>2560</ele>
        <time>2026-07-07T09:08:16.000Z</time>
      </trkpt>
      <trkpt lat="45.18623" lon="5.98098">
        <ele>2563</ele>
        <time>2026-07-07T09:09:01.000Z</time>
      </trkpt>
      <trkpt lat="45.18629" lon="5.98088">
        <ele>2568</ele>
        <time>2026-07-07T09:10:14.000Z</time>
      </trkpt>
      <trkpt lat="45.18638" lon="5.98087">
        <ele>2574</ele>
        <time>2026-07-07T09:11:27.000Z</time>
      </trkpt>
      <trkpt lat="45.18644" lon="5.98078">
        <ele>2578</ele>
        <time>2026-07-07T09:12:51.000Z</time>
      </trkpt>
      <trkpt lat="45.18654" lon="5.98077">
        <ele>2575</ele>
        <time>2026-07-07T09:14:34.000Z</time>
      </trkpt>
      <trkpt lat="45.18663" lon="5.9808">
        <ele>2589</ele>
        <time>2026-07-07T09:16:23.000Z</time>
      </trkpt>
      <trkpt lat="45.18672" lon="5.98081">
        <ele>2584</ele>
        <time>2026-07-07T09:18:30.000Z</time>
      </trkpt>
      <trkpt lat="45.18676" lon="5.98093">
        <ele>2591</ele>
        <time>2026-07-07T09:19:37.000Z</time>
      </trkpt>
      <trkpt lat="45.1868" lon="5.98105">
        <ele>2587</ele>
        <time>2026-07-07T09:20:14.000Z</time>
      </trkpt>
      <trkpt lat="45.18689" lon="5.98104">
        <ele>2593</ele>
        <time>2026-07-07T09:22:07.000Z</time>
      </trkpt>
      <trkpt lat="45.18698" lon="5.98106">
        <ele>2596</ele>
        <time>2026-07-07T09:24:35.000Z</time>
      </trkpt>
      <trkpt lat="45.18707" lon="5.98107">
        <ele>2616</ele>
        <time>2026-07-07T09:27:54.000Z</time>
      </trkpt>
      <trkpt lat="45.18712" lon="5.98096">
        <ele>2622</ele>
        <time>2026-07-07T09:29:46.000Z</time>
      </trkpt>
      <trkpt lat="45.18721" lon="5.98092">
        <ele>2634</ele>
        <time>2026-07-07T09:30:45.000Z</time>
      </trkpt>
      <trkpt lat="45.18717" lon="5.98081">
        <ele>2635</ele>
        <time>2026-07-07T09:32:56.000Z</time>
      </trkpt>
      <trkpt lat="45.18723" lon="5.98079">
        <ele>2636</ele>
        <time>2026-07-07T10:13:24.000Z</time>
      </trkpt>
      <trkpt lat="45.18718" lon="5.98082">
        <ele>2639</ele>
        <time>2026-07-07T10:13:26.000Z</time>
      </trkpt>
      <trkpt lat="45.18714" lon="5.9807">
        <ele>2642</ele>
        <time>2026-07-07T10:14:39.000Z</time>
      </trkpt>
      <trkpt lat="45.18711" lon="5.98058">
        <ele>2640</ele>
        <time>2026-07-07T10:15:00.000Z</time>
      </trkpt>
      <trkpt lat="45.18709" lon="5.98045">
        <ele>2642</ele>
        <time>2026-07-07T10:15:41.000Z</time>
      </trkpt>
      <trkpt lat="45.1871" lon="5.98058">
        <ele>2641</ele>
        <time>2026-07-07T10:20:04.000Z</time>
      </trkpt>
      <trkpt lat="45.18713" lon="5.9807">
        <ele>2641</ele>
        <time>2026-07-07T10:22:03.000Z</time>
      </trkpt>
      <trkpt lat="45.18716" lon="5.98082">
        <ele>2643</ele>
        <time>2026-07-07T10:22:19.000Z</time>
      </trkpt>
      <trkpt lat="45.18718" lon="5.98095">
        <ele>2645</ele>
        <time>2026-07-07T10:29:52.000Z</time>
      </trkpt>
      <trkpt lat="45.18717" lon="5.98108">
        <ele>2642</ele>
        <time>2026-07-07T10:30:21.000Z</time>
      </trkpt>
      <trkpt lat="45.18716" lon="5.98121">
        <ele>2643</ele>
        <time>2026-07-07T10:30:53.000Z</time>
      </trkpt>
      <trkpt lat="45.18714" lon="5.98134">
        <ele>2644</ele>
        <time>2026-07-07T10:31:16.000Z</time>
      </trkpt>
      <trkpt lat="45.18719" lon="5.98145">
        <ele>2646</ele>
        <time>2026-07-07T10:31:37.000Z</time>
      </trkpt>
      <trkpt lat="45.18726" lon="5.98154">
        <ele>2649</ele>
        <time>2026-07-07T10:32:03.000Z</time>
      </trkpt>
      <trkpt lat="45.18734" lon="5.98163">
        <ele>2650</ele>
        <time>2026-07-07T10:32:40.000Z</time>
      </trkpt>
      <trkpt lat="45.1874" lon="5.98172">
        <ele>2650</ele>
        <time>2026-07-07T10:33:28.000Z</time>
      </trkpt>
      <trkpt lat="45.18747" lon="5.98181">
        <ele>2650</ele>
        <time>2026-07-07T10:33:43.000Z</time>
      </trkpt>
      <trkpt lat="45.18754" lon="5.98189">
        <ele>2652</ele>
        <time>2026-07-07T10:34:12.000Z</time>
      </trkpt>
      <trkpt lat="45.18761" lon="5.98198">
        <ele>2651</ele>
        <time>2026-07-07T10:34:50.000Z</time>
      </trkpt>
      <trkpt lat="45.18768" lon="5.98205">
        <ele>2649</ele>
        <time>2026-07-07T10:35:05.000Z</time>
      </trkpt>
      <trkpt lat="45.18773" lon="5.98217">
        <ele>2651</ele>
        <time>2026-07-07T10:35:20.000Z</time>
      </trkpt>
      <trkpt lat="45.18778" lon="5.98228">
        <ele>2652</ele>
        <time>2026-07-07T10:38:35.000Z</time>
      </trkpt>
      <trkpt lat="45.18773" lon="5.98239">
        <ele>2646</ele>
        <time>2026-07-07T10:39:44.000Z</time>
      </trkpt>
      <trkpt lat="45.18774" lon="5.98252">
        <ele>2643</ele>
        <time>2026-07-07T10:40:01.000Z</time>
      </trkpt>
      <trkpt lat="45.18773" lon="5.98265">
        <ele>2641</ele>
        <time>2026-07-07T10:40:24.000Z</time>
      </trkpt>
      <trkpt lat="45.18776" lon="5.98278">
        <ele>2643</ele>
        <time>2026-07-07T10:40:39.000Z</time>
      </trkpt>
      <trkpt lat="45.18778" lon="5.98291">
        <ele>2641</ele>
        <time>2026-07-07T10:41:10.000Z</time>
      </trkpt>
      <trkpt lat="45.18781" lon="5.98303">
        <ele>2643</ele>
        <time>2026-07-07T10:41:40.000Z</time>
      </trkpt>
      <trkpt lat="45.18784" lon="5.98316">
        <ele>2641</ele>
        <time>2026-07-07T10:42:03.000Z</time>
      </trkpt>
      <trkpt lat="45.18787" lon="5.98329">
        <ele>2641</ele>
        <time>2026-07-07T10:42:17.000Z</time>
      </trkpt>
      <trkpt lat="45.1879" lon="5.98341">
        <ele>2641</ele>
        <time>2026-07-07T10:42:40.000Z</time>
      </trkpt>
      <trkpt lat="45.18796" lon="5.98351">
        <ele>2642</ele>
        <time>2026-07-07T10:42:57.000Z</time>
      </trkpt>
      <trkpt lat="45.18798" lon="5.98365">
        <ele>2645</ele>
        <time>2026-07-07T10:43:25.000Z</time>
      </trkpt>
      <trkpt lat="45.18797" lon="5.98378">
        <ele>2648</ele>
        <time>2026-07-07T10:43:44.000Z</time>
      </trkpt>
      <trkpt lat="45.18792" lon="5.9839">
        <ele>2649</ele>
        <time>2026-07-07T10:44:20.000Z</time>
      </trkpt>
      <trkpt lat="45.1879" lon="5.98404">
        <ele>2649</ele>
        <time>2026-07-07T10:44:35.000Z</time>
      </trkpt>
      <trkpt lat="45.18788" lon="5.98417">
        <ele>2650</ele>
        <time>2026-07-07T10:44:50.000Z</time>
      </trkpt>
      <trkpt lat="45.18786" lon="5.9843">
        <ele>2651</ele>
        <time>2026-07-07T10:45:02.000Z</time>
      </trkpt>
      <trkpt lat="45.18788" lon="5.98443">
        <ele>2652</ele>
        <time>2026-07-07T10:45:15.000Z</time>
      </trkpt>
      <trkpt lat="45.18785" lon="5.98455">
        <ele>2655</ele>
        <time>2026-07-07T10:45:37.000Z</time>
      </trkpt>
      <trkpt lat="45.18794" lon="5.98461">
        <ele>2658</ele>
        <time>2026-07-07T10:45:52.000Z</time>
      </trkpt>
      <trkpt lat="45.18802" lon="5.98467">
        <ele>2658</ele>
        <time>2026-07-07T10:46:03.000Z</time>
      </trkpt>
      <trkpt lat="45.18806" lon="5.9848">
        <ele>2658</ele>
        <time>2026-07-07T10:46:23.000Z</time>
      </trkpt>
      <trkpt lat="45.18805" lon="5.98493">
        <ele>2656</ele>
        <time>2026-07-07T10:46:40.000Z</time>
      </trkpt>
      <trkpt lat="45.18808" lon="5.98506">
        <ele>2652</ele>
        <time>2026-07-07T10:47:28.000Z</time>
      </trkpt>
      <trkpt lat="45.18811" lon="5.98518">
        <ele>2653</ele>
        <time>2026-07-07T10:47:42.000Z</time>
      </trkpt>
      <trkpt lat="45.18802" lon="5.9852">
        <ele>2650</ele>
        <time>2026-07-07T10:48:56.000Z</time>
      </trkpt>
      <trkpt lat="45.18795" lon="5.9853">
        <ele>2644</ele>
        <time>2026-07-07T10:49:11.000Z</time>
      </trkpt>
      <trkpt lat="45.18789" lon="5.98539">
        <ele>2643</ele>
        <time>2026-07-07T10:49:27.000Z</time>
      </trkpt>
      <trkpt lat="45.18783" lon="5.9855">
        <ele>2642</ele>
        <time>2026-07-07T10:49:46.000Z</time>
      </trkpt>
      <trkpt lat="45.18779" lon="5.98561">
        <ele>2639</ele>
        <time>2026-07-07T10:50:00.000Z</time>
      </trkpt>
      <trkpt lat="45.18775" lon="5.98573">
        <ele>2639</ele>
        <time>2026-07-07T10:50:18.000Z</time>
      </trkpt>
      <trkpt lat="45.1877" lon="5.98584">
        <ele>2639</ele>
        <time>2026-07-07T10:50:37.000Z</time>
      </trkpt>
      <trkpt lat="45.18762" lon="5.98593">
        <ele>2639</ele>
        <time>2026-07-07T10:51:07.000Z</time>
      </trkpt>
      <trkpt lat="45.18757" lon="5.98603">
        <ele>2640</ele>
        <time>2026-07-07T10:51:22.000Z</time>
      </trkpt>
      <trkpt lat="45.18751" lon="5.98614">
        <ele>2639</ele>
        <time>2026-07-07T10:51:50.000Z</time>
      </trkpt>
      <trkpt lat="45.18745" lon="5.98624">
        <ele>2639</ele>
        <time>2026-07-07T10:52:23.000Z</time>
      </trkpt>
      <trkpt lat="45.1874" lon="5.98635">
        <ele>2640</ele>
        <time>2026-07-07T10:52:59.000Z</time>
      </trkpt>
      <trkpt lat="45.18734" lon="5.98645">
        <ele>2640</ele>
        <time>2026-07-07T10:53:49.000Z</time>
      </trkpt>
      <trkpt lat="45.18727" lon="5.98653">
        <ele>2640</ele>
        <time>2026-07-07T10:54:18.000Z</time>
      </trkpt>
      <trkpt lat="45.18719" lon="5.98659">
        <ele>2638</ele>
        <time>2026-07-07T10:54:57.000Z</time>
      </trkpt>
      <trkpt lat="45.18712" lon="5.98669">
        <ele>2638</ele>
        <time>2026-07-07T10:55:19.000Z</time>
      </trkpt>
      <trkpt lat="45.18704" lon="5.98678">
        <ele>2640</ele>
        <time>2026-07-07T10:55:50.000Z</time>
      </trkpt>
      <trkpt lat="45.18696" lon="5.98685">
        <ele>2638</ele>
        <time>2026-07-07T10:56:19.000Z</time>
      </trkpt>
      <trkpt lat="45.18689" lon="5.98693">
        <ele>2639</ele>
        <time>2026-07-07T10:56:42.000Z</time>
      </trkpt>
      <trkpt lat="45.18681" lon="5.98699">
        <ele>2638</ele>
        <time>2026-07-07T10:57:09.000Z</time>
      </trkpt>
      <trkpt lat="45.18673" lon="5.98706">
        <ele>2640</ele>
        <time>2026-07-07T10:58:01.000Z</time>
      </trkpt>
      <trkpt lat="45.18665" lon="5.98712">
        <ele>2641</ele>
        <time>2026-07-07T10:58:49.000Z</time>
      </trkpt>
      <trkpt lat="45.18663" lon="5.98726">
        <ele>2642</ele>
        <time>2026-07-07T10:59:59.000Z</time>
      </trkpt>
      <trkpt lat="45.18661" lon="5.98739">
        <ele>2645</ele>
        <time>2026-07-07T11:00:30.000Z</time>
      </trkpt>
      <trkpt lat="45.1866" lon="5.98752">
        <ele>2643</ele>
        <time>2026-07-07T11:01:11.000Z</time>
      </trkpt>
      <trkpt lat="45.18659" lon="5.98765">
        <ele>2645</ele>
        <time>2026-07-07T11:01:49.000Z</time>
      </trkpt>
      <trkpt lat="45.18656" lon="5.98777">
        <ele>2646</ele>
        <time>2026-07-07T11:02:13.000Z</time>
      </trkpt>
      <trkpt lat="45.18657" lon="5.9879">
        <ele>2650</ele>
        <time>2026-07-07T11:03:50.000Z</time>
      </trkpt>
      <trkpt lat="45.18657" lon="5.98803">
        <ele>2655</ele>
        <time>2026-07-07T11:05:14.000Z</time>
      </trkpt>
      <trkpt lat="45.18651" lon="5.98814">
        <ele>2661</ele>
        <time>2026-07-07T11:06:53.000Z</time>
      </trkpt>
      <trkpt lat="45.18658" lon="5.98824">
        <ele>2669</ele>
        <time>2026-07-07T11:09:59.000Z</time>
      </trkpt>
      <trkpt lat="45.18659" lon="5.98836">
        <ele>2674</ele>
        <time>2026-07-07T11:11:19.000Z</time>
      </trkpt>
      <trkpt lat="45.18669" lon="5.98835">
        <ele>2681</ele>
        <time>2026-07-07T11:12:37.000Z</time>
      </trkpt>
      <trkpt lat="45.18676" lon="5.98827">
        <ele>2684</ele>
        <time>2026-07-07T11:13:31.000Z</time>
      </trkpt>
      <trkpt lat="45.18685" lon="5.9882">
        <ele>2689</ele>
        <time>2026-07-07T11:14:04.000Z</time>
      </trkpt>
      <trkpt lat="45.18694" lon="5.98816">
        <ele>2693</ele>
        <time>2026-07-07T11:14:55.000Z</time>
      </trkpt>
      <trkpt lat="45.18702" lon="5.98809">
        <ele>2699</ele>
        <time>2026-07-07T11:17:48.000Z</time>
      </trkpt>
      <trkpt lat="45.18709" lon="5.988">
        <ele>2706</ele>
        <time>2026-07-07T11:21:56.000Z</time>
      </trkpt>
      <trkpt lat="45.18717" lon="5.98795">
        <ele>2711</ele>
        <time>2026-07-07T11:22:58.000Z</time>
      </trkpt>
      <trkpt lat="45.18726" lon="5.98791">
        <ele>2719</ele>
        <time>2026-07-07T11:25:08.000Z</time>
      </trkpt>
      <trkpt lat="45.18736" lon="5.98792">
        <ele>2725</ele>
        <time>2026-07-07T11:26:37.000Z</time>
      </trkpt>
      <trkpt lat="45.18745" lon="5.98787">
        <ele>2732</ele>
        <time>2026-07-07T11:28:31.000Z</time>
      </trkpt>
      <trkpt lat="45.18754" lon="5.98788">
        <ele>2737</ele>
        <time>2026-07-07T11:29:31.000Z</time>
      </trkpt>
      <trkpt lat="45.18763" lon="5.98789">
        <ele>2740</ele>
        <time>2026-07-07T11:30:47.000Z</time>
      </trkpt>
      <trkpt lat="45.1877" lon="5.98781">
        <ele>2745</ele>
        <time>2026-07-07T11:32:00.000Z</time>
      </trkpt>
      <trkpt lat="45.18779" lon="5.98779">
        <ele>2754</ele>
        <time>2026-07-07T11:33:21.000Z</time>
      </trkpt>
      <trkpt lat="45.18788" lon="5.98781">
        <ele>2759</ele>
        <time>2026-07-07T11:34:02.000Z</time>
      </trkpt>
      <trkpt lat="45.18798" lon="5.9878">
        <ele>2763</ele>
        <time>2026-07-07T11:35:19.000Z</time>
      </trkpt>
      <trkpt lat="45.18807" lon="5.98781">
        <ele>2768</ele>
        <time>2026-07-07T11:36:01.000Z</time>
      </trkpt>
      <trkpt lat="45.18814" lon="5.9879">
        <ele>2771</ele>
        <time>2026-07-07T11:36:29.000Z</time>
      </trkpt>
      <trkpt lat="45.18821" lon="5.98798">
        <ele>2772</ele>
        <time>2026-07-07T11:36:50.000Z</time>
      </trkpt>
      <trkpt lat="45.18815" lon="5.98789">
        <ele>2768</ele>
        <time>2026-07-07T11:50:40.000Z</time>
      </trkpt>
      <trkpt lat="45.18808" lon="5.98781">
        <ele>2766</ele>
        <time>2026-07-07T11:53:24.000Z</time>
      </trkpt>
      <trkpt lat="45.18799" lon="5.98781">
        <ele>2763</ele>
        <time>2026-07-07T11:54:16.000Z</time>
      </trkpt>
      <trkpt lat="45.18789" lon="5.98781">
        <ele>2756</ele>
        <time>2026-07-07T11:55:21.000Z</time>
      </trkpt>
      <trkpt lat="45.1878" lon="5.98779">
        <ele>2754</ele>
        <time>2026-07-07T11:55:58.000Z</time>
      </trkpt>
      <trkpt lat="45.18772" lon="5.98781">
        <ele>2749</ele>
        <time>2026-07-07T11:57:25.000Z</time>
      </trkpt>
      <trkpt lat="45.18765" lon="5.98789">
        <ele>2740</ele>
        <time>2026-07-07T11:58:26.000Z</time>
      </trkpt>
      <trkpt lat="45.18756" lon="5.98789">
        <ele>2736</ele>
        <time>2026-07-07T11:59:40.000Z</time>
      </trkpt>
      <trkpt lat="45.18746" lon="5.98787">
        <ele>2734</ele>
        <time>2026-07-07T12:00:26.000Z</time>
      </trkpt>
      <trkpt lat="45.18737" lon="5.98789">
        <ele>2730</ele>
        <time>2026-07-07T12:01:24.000Z</time>
      </trkpt>
      <trkpt lat="45.18728" lon="5.9879">
        <ele>2719</ele>
        <time>2026-07-07T12:04:14.000Z</time>
      </trkpt>
      <trkpt lat="45.18719" lon="5.98794">
        <ele>2713</ele>
        <time>2026-07-07T12:05:37.000Z</time>
      </trkpt>
      <trkpt lat="45.18711" lon="5.9879">
        <ele>2702</ele>
        <time>2026-07-07T12:08:23.000Z</time>
      </trkpt>
      <trkpt lat="45.18705" lon="5.98779">
        <ele>2688</ele>
        <time>2026-07-07T12:12:16.000Z</time>
      </trkpt>
      <trkpt lat="45.18701" lon="5.98767">
        <ele>2677</ele>
        <time>2026-07-07T12:13:56.000Z</time>
      </trkpt>
      <trkpt lat="45.18692" lon="5.98762">
        <ele>2669</ele>
        <time>2026-07-07T12:16:10.000Z</time>
      </trkpt>
      <trkpt lat="45.18688" lon="5.98751">
        <ele>2662</ele>
        <time>2026-07-07T12:16:51.000Z</time>
      </trkpt>
      <trkpt lat="45.18679" lon="5.98749">
        <ele>2656</ele>
        <time>2026-07-07T12:17:11.000Z</time>
      </trkpt>
      <trkpt lat="45.1867" lon="5.98746">
        <ele>2649</ele>
        <time>2026-07-07T12:17:29.000Z</time>
      </trkpt>
      <trkpt lat="45.18661" lon="5.98743">
        <ele>2643</ele>
        <time>2026-07-07T12:17:55.000Z</time>
      </trkpt>
      <trkpt lat="45.18652" lon="5.98743">
        <ele>2634</ele>
        <time>2026-07-07T12:18:33.000Z</time>
      </trkpt>
      <trkpt lat="45.18643" lon="5.98737">
        <ele>2628</ele>
        <time>2026-07-07T12:18:49.000Z</time>
      </trkpt>
      <trkpt lat="45.18634" lon="5.98736">
        <ele>2621</ele>
        <time>2026-07-07T12:19:04.000Z</time>
      </trkpt>
      <trkpt lat="45.18625" lon="5.98738">
        <ele>2613</ele>
        <time>2026-07-07T12:19:27.000Z</time>
      </trkpt>
      <trkpt lat="45.18616" lon="5.98739">
        <ele>2607</ele>
        <time>2026-07-07T12:19:50.000Z</time>
      </trkpt>
      <trkpt lat="45.18607" lon="5.98735">
        <ele>2601</ele>
        <time>2026-07-07T12:20:11.000Z</time>
      </trkpt>
      <trkpt lat="45.18598" lon="5.98731">
        <ele>2595</ele>
        <time>2026-07-07T12:20:30.000Z</time>
      </trkpt>
      <trkpt lat="45.18589" lon="5.98736">
        <ele>2588</ele>
        <time>2026-07-07T12:21:12.000Z</time>
      </trkpt>
      <trkpt lat="45.18581" lon="5.9874">
        <ele>2584</ele>
        <time>2026-07-07T12:21:39.000Z</time>
      </trkpt>
      <trkpt lat="45.18572" lon="5.98737">
        <ele>2573</ele>
        <time>2026-07-07T12:21:57.000Z</time>
      </trkpt>
      <trkpt lat="45.18563" lon="5.98732">
        <ele>2574</ele>
        <time>2026-07-07T12:22:43.000Z</time>
      </trkpt>
      <trkpt lat="45.18554" lon="5.98734">
        <ele>2570</ele>
        <time>2026-07-07T12:24:02.000Z</time>
      </trkpt>
      <trkpt lat="45.18544" lon="5.98734">
        <ele>2565</ele>
        <time>2026-07-07T12:24:25.000Z</time>
      </trkpt>
      <trkpt lat="45.18535" lon="5.98733">
        <ele>2560</ele>
        <time>2026-07-07T12:25:03.000Z</time>
      </trkpt>
      <trkpt lat="45.18525" lon="5.98731">
        <ele>2555</ele>
        <time>2026-07-07T12:25:46.000Z</time>
      </trkpt>
      <trkpt lat="45.18519" lon="5.98723">
        <ele>2551</ele>
        <time>2026-07-07T12:26:03.000Z</time>
      </trkpt>
      <trkpt lat="45.1851" lon="5.98719">
        <ele>2547</ele>
        <time>2026-07-07T12:26:29.000Z</time>
      </trkpt>
      <trkpt lat="45.18502" lon="5.98711">
        <ele>2540</ele>
        <time>2026-07-07T12:27:12.000Z</time>
      </trkpt>
      <trkpt lat="45.18492" lon="5.98706">
        <ele>2534</ele>
        <time>2026-07-07T12:27:39.000Z</time>
      </trkpt>
      <trkpt lat="45.18486" lon="5.98698">
        <ele>2532</ele>
        <time>2026-07-07T12:27:49.000Z</time>
      </trkpt>
      <trkpt lat="45.18479" lon="5.98687">
        <ele>2529</ele>
        <time>2026-07-07T12:27:57.000Z</time>
      </trkpt>
      <trkpt lat="45.18475" lon="5.98675">
        <ele>2526</ele>
        <time>2026-07-07T12:28:05.000Z</time>
      </trkpt>
      <trkpt lat="45.18471" lon="5.98663">
        <ele>2523</ele>
        <time>2026-07-07T12:28:14.000Z</time>
      </trkpt>
      <trkpt lat="45.18468" lon="5.9865">
        <ele>2518</ele>
        <time>2026-07-07T12:28:22.000Z</time>
      </trkpt>
      <trkpt lat="45.18467" lon="5.98636">
        <ele>2516</ele>
        <time>2026-07-07T12:28:30.000Z</time>
      </trkpt>
      <trkpt lat="45.18462" lon="5.98623">
        <ele>2509</ele>
        <time>2026-07-07T12:28:42.000Z</time>
      </trkpt>
      <trkpt lat="45.18457" lon="5.98611">
        <ele>2507</ele>
        <time>2026-07-07T12:28:53.000Z</time>
      </trkpt>
      <trkpt lat="45.18453" lon="5.986">
        <ele>2504</ele>
        <time>2026-07-07T12:29:01.000Z</time>
      </trkpt>
      <trkpt lat="45.18446" lon="5.9859">
        <ele>2501</ele>
        <time>2026-07-07T12:29:11.000Z</time>
      </trkpt>
      <trkpt lat="45.1844" lon="5.9858">
        <ele>2496</ele>
        <time>2026-07-07T12:29:20.000Z</time>
      </trkpt>
      <trkpt lat="45.18439" lon="5.98566">
        <ele>2491</ele>
        <time>2026-07-07T12:29:28.000Z</time>
      </trkpt>
      <trkpt lat="45.18438" lon="5.98553">
        <ele>2486</ele>
        <time>2026-07-07T12:29:37.000Z</time>
      </trkpt>
      <trkpt lat="45.18441" lon="5.9854">
        <ele>2485</ele>
        <time>2026-07-07T12:29:45.000Z</time>
      </trkpt>
      <trkpt lat="45.18441" lon="5.98527">
        <ele>2484</ele>
        <time>2026-07-07T12:29:56.000Z</time>
      </trkpt>
      <trkpt lat="45.18433" lon="5.98523">
        <ele>2484</ele>
        <time>2026-07-07T12:30:37.000Z</time>
      </trkpt>
      <trkpt lat="45.18424" lon="5.98517">
        <ele>2478</ele>
        <time>2026-07-07T12:31:19.000Z</time>
      </trkpt>
      <trkpt lat="45.18421" lon="5.98503">
        <ele>2474</ele>
        <time>2026-07-07T12:31:28.000Z</time>
      </trkpt>
      <trkpt lat="45.1842" lon="5.9849">
        <ele>2470</ele>
        <time>2026-07-07T12:31:36.000Z</time>
      </trkpt>
      <trkpt lat="45.18419" lon="5.98477">
        <ele>2466</ele>
        <time>2026-07-07T12:31:44.000Z</time>
      </trkpt>
      <trkpt lat="45.18422" lon="5.98464">
        <ele>2464</ele>
        <time>2026-07-07T12:32:13.000Z</time>
      </trkpt>
      <trkpt lat="45.18417" lon="5.98454">
        <ele>2457</ele>
        <time>2026-07-07T12:32:22.000Z</time>
      </trkpt>
      <trkpt lat="45.1841" lon="5.98444">
        <ele>2455</ele>
        <time>2026-07-07T12:32:32.000Z</time>
      </trkpt>
      <trkpt lat="45.18404" lon="5.98433">
        <ele>2451</ele>
        <time>2026-07-07T12:32:40.000Z</time>
      </trkpt>
      <trkpt lat="45.18397" lon="5.98422">
        <ele>2447</ele>
        <time>2026-07-07T12:32:49.000Z</time>
      </trkpt>
      <trkpt lat="45.18392" lon="5.98411">
        <ele>2444</ele>
        <time>2026-07-07T12:33:00.000Z</time>
      </trkpt>
      <trkpt lat="45.1839" lon="5.98399">
        <ele>2439</ele>
        <time>2026-07-07T12:33:12.000Z</time>
      </trkpt>
      <trkpt lat="45.18387" lon="5.98387">
        <ele>2431</ele>
        <time>2026-07-07T12:33:47.000Z</time>
      </trkpt>
      <trkpt lat="45.18384" lon="5.98374">
        <ele>2425</ele>
        <time>2026-07-07T12:37:47.000Z</time>
      </trkpt>
      <trkpt lat="45.18376" lon="5.98368">
        <ele>2426</ele>
        <time>2026-07-07T12:38:00.000Z</time>
      </trkpt>
      <trkpt lat="45.18368" lon="5.98361">
        <ele>2425</ele>
        <time>2026-07-07T12:38:11.000Z</time>
      </trkpt>
      <trkpt lat="45.18361" lon="5.98352">
        <ele>2421</ele>
        <time>2026-07-07T12:38:27.000Z</time>
      </trkpt>
      <trkpt lat="45.18355" lon="5.98341">
        <ele>2414</ele>
        <time>2026-07-07T12:38:48.000Z</time>
      </trkpt>
      <trkpt lat="45.18361" lon="5.98331">
        <ele>2408</ele>
        <time>2026-07-07T12:39:37.000Z</time>
      </trkpt>
      <trkpt lat="45.18363" lon="5.98319">
        <ele>2407</ele>
        <time>2026-07-07T12:40:12.000Z</time>
      </trkpt>
      <trkpt lat="45.18356" lon="5.98309">
        <ele>2403</ele>
        <time>2026-07-07T12:40:55.000Z</time>
      </trkpt>
      <trkpt lat="45.18349" lon="5.98299">
        <ele>2400</ele>
        <time>2026-07-07T12:41:17.000Z</time>
      </trkpt>
      <trkpt lat="45.18345" lon="5.98286">
        <ele>2397</ele>
        <time>2026-07-07T12:41:25.000Z</time>
      </trkpt>
      <trkpt lat="45.18339" lon="5.98276">
        <ele>2395</ele>
        <time>2026-07-07T12:41:32.000Z</time>
      </trkpt>
      <trkpt lat="45.18334" lon="5.98264">
        <ele>2393</ele>
        <time>2026-07-07T12:41:38.000Z</time>
      </trkpt>
      <trkpt lat="45.18332" lon="5.98251">
        <ele>2390</ele>
        <time>2026-07-07T12:41:45.000Z</time>
      </trkpt>
      <trkpt lat="45.1833" lon="5.98238">
        <ele>2387</ele>
        <time>2026-07-07T12:41:52.000Z</time>
      </trkpt>
      <trkpt lat="45.18326" lon="5.98226">
        <ele>2386</ele>
        <time>2026-07-07T12:42:00.000Z</time>
      </trkpt>
      <trkpt lat="45.1832" lon="5.98215">
        <ele>2380</ele>
        <time>2026-07-07T12:42:08.000Z</time>
      </trkpt>
      <trkpt lat="45.18315" lon="5.98204">
        <ele>2377</ele>
        <time>2026-07-07T12:42:15.000Z</time>
      </trkpt>
      <trkpt lat="45.18307" lon="5.98196">
        <ele>2373</ele>
        <time>2026-07-07T12:42:22.000Z</time>
      </trkpt>
      <trkpt lat="45.18302" lon="5.98185">
        <ele>2366</ele>
        <time>2026-07-07T12:42:30.000Z</time>
      </trkpt>
      <trkpt lat="45.18296" lon="5.98175">
        <ele>2362</ele>
        <time>2026-07-07T12:42:38.000Z</time>
      </trkpt>
      <trkpt lat="45.18291" lon="5.98163">
        <ele>2359</ele>
        <time>2026-07-07T12:42:47.000Z</time>
      </trkpt>
      <trkpt lat="45.18286" lon="5.98153">
        <ele>2358</ele>
        <time>2026-07-07T12:42:53.000Z</time>
      </trkpt>
      <trkpt lat="45.18282" lon="5.98141">
        <ele>2355</ele>
        <time>2026-07-07T12:43:01.000Z</time>
      </trkpt>
      <trkpt lat="45.18279" lon="5.98128">
        <ele>2353</ele>
        <time>2026-07-07T12:43:10.000Z</time>
      </trkpt>
      <trkpt lat="45.18278" lon="5.98115">
        <ele>2350</ele>
        <time>2026-07-07T12:43:33.000Z</time>
      </trkpt>
      <trkpt lat="45.18273" lon="5.98104">
        <ele>2347</ele>
        <time>2026-07-07T12:43:50.000Z</time>
      </trkpt>
      <trkpt lat="45.18266" lon="5.98096">
        <ele>2344</ele>
        <time>2026-07-07T12:44:14.000Z</time>
      </trkpt>
      <trkpt lat="45.1826" lon="5.98086">
        <ele>2338</ele>
        <time>2026-07-07T12:44:45.000Z</time>
      </trkpt>
      <trkpt lat="45.18256" lon="5.98074">
        <ele>2334</ele>
        <time>2026-07-07T12:45:06.000Z</time>
      </trkpt>
      <trkpt lat="45.18252" lon="5.98062">
        <ele>2329</ele>
        <time>2026-07-07T12:45:36.000Z</time>
      </trkpt>
      <trkpt lat="45.18244" lon="5.98056">
        <ele>2328</ele>
        <time>2026-07-07T12:46:55.000Z</time>
      </trkpt>
      <trkpt lat="45.18239" lon="5.98045">
        <ele>2319</ele>
        <time>2026-07-07T12:47:15.000Z</time>
      </trkpt>
      <trkpt lat="45.18232" lon="5.98037">
        <ele>2311</ele>
        <time>2026-07-07T12:47:30.000Z</time>
      </trkpt>
      <trkpt lat="45.18227" lon="5.98025">
        <ele>2306</ele>
        <time>2026-07-07T12:47:39.000Z</time>
      </trkpt>
      <trkpt lat="45.18222" lon="5.98014">
        <ele>2301</ele>
        <time>2026-07-07T12:47:48.000Z</time>
      </trkpt>
      <trkpt lat="45.18216" lon="5.98003">
        <ele>2299</ele>
        <time>2026-07-07T12:47:56.000Z</time>
      </trkpt>
      <trkpt lat="45.1821" lon="5.97994">
        <ele>2296</ele>
        <time>2026-07-07T12:48:06.000Z</time>
      </trkpt>
      <trkpt lat="45.18214" lon="5.97981">
        <ele>2299</ele>
        <time>2026-07-07T12:48:57.000Z</time>
      </trkpt>
      <trkpt lat="45.18212" lon="5.97967">
        <ele>2291</ele>
        <time>2026-07-07T12:49:05.000Z</time>
      </trkpt>
      <trkpt lat="45.18207" lon="5.97956">
        <ele>2285</ele>
        <time>2026-07-07T12:49:16.000Z</time>
      </trkpt>
      <trkpt lat="45.18206" lon="5.97943">
        <ele>2283</ele>
        <time>2026-07-07T12:49:24.000Z</time>
      </trkpt>
      <trkpt lat="45.18198" lon="5.97935">
        <ele>2277</ele>
        <time>2026-07-07T12:50:13.000Z</time>
      </trkpt>
      <trkpt lat="45.18191" lon="5.97926">
        <ele>2272</ele>
        <time>2026-07-07T12:50:21.000Z</time>
      </trkpt>
      <trkpt lat="45.18185" lon="5.97916">
        <ele>2271</ele>
        <time>2026-07-07T12:50:29.000Z</time>
      </trkpt>
      <trkpt lat="45.18178" lon="5.97907">
        <ele>2268</ele>
        <time>2026-07-07T12:50:58.000Z</time>
      </trkpt>
      <trkpt lat="45.18169" lon="5.97905">
        <ele>2268</ele>
        <time>2026-07-07T12:51:08.000Z</time>
      </trkpt>
      <trkpt lat="45.18176" lon="5.97897">
        <ele>2264</ele>
        <time>2026-07-07T12:51:36.000Z</time>
      </trkpt>
      <trkpt lat="45.1818" lon="5.97885">
        <ele>2265</ele>
        <time>2026-07-07T12:51:59.000Z</time>
      </trkpt>
      <trkpt lat="45.18178" lon="5.97872">
        <ele>2264</ele>
        <time>2026-07-07T12:52:33.000Z</time>
      </trkpt>
      <trkpt lat="45.18169" lon="5.97874">
        <ele>2261</ele>
        <time>2026-07-07T12:53:05.000Z</time>
      </trkpt>
      <trkpt lat="45.18164" lon="5.97863">
        <ele>2254</ele>
        <time>2026-07-07T12:53:30.000Z</time>
      </trkpt>
      <trkpt lat="45.18159" lon="5.97851">
        <ele>2253</ele>
        <time>2026-07-07T12:53:51.000Z</time>
      </trkpt>
      <trkpt lat="45.18152" lon="5.97842">
        <ele>2250</ele>
        <time>2026-07-07T12:54:07.000Z</time>
      </trkpt>
      <trkpt lat="45.18143" lon="5.9784">
        <ele>2246</ele>
        <time>2026-07-07T12:54:24.000Z</time>
      </trkpt>
      <trkpt lat="45.18135" lon="5.97834">
        <ele>2239</ele>
        <time>2026-07-07T12:54:50.000Z</time>
      </trkpt>
      <trkpt lat="45.18126" lon="5.97827">
        <ele>2236</ele>
        <time>2026-07-07T12:55:24.000Z</time>
      </trkpt>
      <trkpt lat="45.18119" lon="5.97818">
        <ele>2231</ele>
        <time>2026-07-07T12:55:35.000Z</time>
      </trkpt>
      <trkpt lat="45.18114" lon="5.97807">
        <ele>2228</ele>
        <time>2026-07-07T12:55:42.000Z</time>
      </trkpt>
      <trkpt lat="45.18108" lon="5.97797">
        <ele>2224</ele>
        <time>2026-07-07T12:55:50.000Z</time>
      </trkpt>
      <trkpt lat="45.18102" lon="5.97786">
        <ele>2220</ele>
        <time>2026-07-07T12:55:58.000Z</time>
      </trkpt>
      <trkpt lat="45.18095" lon="5.97776">
        <ele>2218</ele>
        <time>2026-07-07T12:56:05.000Z</time>
      </trkpt>
      <trkpt lat="45.18089" lon="5.97766">
        <ele>2218</ele>
        <time>2026-07-07T12:56:15.000Z</time>
      </trkpt>
      <trkpt lat="45.18082" lon="5.97758">
        <ele>2216</ele>
        <time>2026-07-07T12:56:23.000Z</time>
      </trkpt>
      <trkpt lat="45.18075" lon="5.97749">
        <ele>2214</ele>
        <time>2026-07-07T12:56:31.000Z</time>
      </trkpt>
      <trkpt lat="45.18067" lon="5.97741">
        <ele>2213</ele>
        <time>2026-07-07T12:56:39.000Z</time>
      </trkpt>
      <trkpt lat="45.18058" lon="5.97736">
        <ele>2212</ele>
        <time>2026-07-07T12:56:49.000Z</time>
      </trkpt>
      <trkpt lat="45.18052" lon="5.97725">
        <ele>2211</ele>
        <time>2026-07-07T12:56:56.000Z</time>
      </trkpt>
      <trkpt lat="45.1805" lon="5.97712">
        <ele>2213</ele>
        <time>2026-07-07T12:57:04.000Z</time>
      </trkpt>
      <trkpt lat="45.18048" lon="5.97699">
        <ele>2217</ele>
        <time>2026-07-07T12:57:13.000Z</time>
      </trkpt>
      <trkpt lat="45.1804" lon="5.97693">
        <ele>2213</ele>
        <time>2026-07-07T12:57:20.000Z</time>
      </trkpt>
      <trkpt lat="45.18037" lon="5.97679">
        <ele>2209</ele>
        <time>2026-07-07T12:57:30.000Z</time>
      </trkpt>
      <trkpt lat="45.18037" lon="5.97665">
        <ele>2206</ele>
        <time>2026-07-07T12:57:39.000Z</time>
      </trkpt>
      <trkpt lat="45.18035" lon="5.97652">
        <ele>2204</ele>
        <time>2026-07-07T12:57:47.000Z</time>
      </trkpt>
      <trkpt lat="45.18036" lon="5.97639">
        <ele>2204</ele>
        <time>2026-07-07T12:58:23.000Z</time>
      </trkpt>
      <trkpt lat="45.18033" lon="5.97627">
        <ele>2204</ele>
        <time>2026-07-07T12:58:33.000Z</time>
      </trkpt>
      <trkpt lat="45.18032" lon="5.97613">
        <ele>2202</ele>
        <time>2026-07-07T12:58:42.000Z</time>
      </trkpt>
      <trkpt lat="45.18034" lon="5.976">
        <ele>2204</ele>
        <time>2026-07-07T12:58:55.000Z</time>
      </trkpt>
      <trkpt lat="45.18033" lon="5.97587">
        <ele>2204</ele>
        <time>2026-07-07T13:02:51.000Z</time>
      </trkpt>
      <trkpt lat="45.18036" lon="5.97573">
        <ele>2204</ele>
        <time>2026-07-07T13:03:05.000Z</time>
      </trkpt>
      <trkpt lat="45.18037" lon="5.97561">
        <ele>2205</ele>
        <time>2026-07-07T13:03:19.000Z</time>
      </trkpt>
      <trkpt lat="45.18042" lon="5.97548">
        <ele>2206</ele>
        <time>2026-07-07T13:03:29.000Z</time>
      </trkpt>
      <trkpt lat="45.18044" lon="5.97534">
        <ele>2203</ele>
        <time>2026-07-07T13:03:40.000Z</time>
      </trkpt>
      <trkpt lat="45.18046" lon="5.9752">
        <ele>2205</ele>
        <time>2026-07-07T13:03:49.000Z</time>
      </trkpt>
      <trkpt lat="45.18051" lon="5.97509">
        <ele>2205</ele>
        <time>2026-07-07T13:04:00.000Z</time>
      </trkpt>
      <trkpt lat="45.18051" lon="5.97496">
        <ele>2205</ele>
        <time>2026-07-07T13:04:09.000Z</time>
      </trkpt>
      <trkpt lat="45.18049" lon="5.97483">
        <ele>2203</ele>
        <time>2026-07-07T13:04:21.000Z</time>
      </trkpt>
      <trkpt lat="45.18047" lon="5.97471">
        <ele>2204</ele>
        <time>2026-07-07T13:04:32.000Z</time>
      </trkpt>
      <trkpt lat="45.18044" lon="5.97459">
        <ele>2204</ele>
        <time>2026-07-07T13:04:43.000Z</time>
      </trkpt>
      <trkpt lat="45.18037" lon="5.97447">
        <ele>2204</ele>
        <time>2026-07-07T13:04:54.000Z</time>
      </trkpt>
      <trkpt lat="45.18034" lon="5.97434">
        <ele>2203</ele>
        <time>2026-07-07T13:05:04.000Z</time>
      </trkpt>
      <trkpt lat="45.18032" lon="5.97421">
        <ele>2203</ele>
        <time>2026-07-07T13:05:14.000Z</time>
      </trkpt>
      <trkpt lat="45.18032" lon="5.97408">
        <ele>2204</ele>
        <time>2026-07-07T13:05:37.000Z</time>
      </trkpt>
      <trkpt lat="45.18028" lon="5.97396">
        <ele>2202</ele>
        <time>2026-07-07T13:05:47.000Z</time>
      </trkpt>
      <trkpt lat="45.18027" lon="5.97383">
        <ele>2203</ele>
        <time>2026-07-07T13:05:58.000Z</time>
      </trkpt>
      <trkpt lat="45.18022" lon="5.97371">
        <ele>2202</ele>
        <time>2026-07-07T13:06:07.000Z</time>
      </trkpt>
      <trkpt lat="45.1802" lon="5.97358">
        <ele>2202</ele>
        <time>2026-07-07T13:06:16.000Z</time>
      </trkpt>
      <trkpt lat="45.18022" lon="5.97345">
        <ele>2202</ele>
        <time>2026-07-07T13:06:26.000Z</time>
      </trkpt>
      <trkpt lat="45.18024" lon="5.97332">
        <ele>2202</ele>
        <time>2026-07-07T13:06:36.000Z</time>
      </trkpt>
      <trkpt lat="45.18025" lon="5.9732">
        <ele>2202</ele>
        <time>2026-07-07T13:06:46.000Z</time>
      </trkpt>
      <trkpt lat="45.18026" lon="5.97307">
        <ele>2205</ele>
        <time>2026-07-07T13:07:04.000Z</time>
      </trkpt>
      <trkpt lat="45.18031" lon="5.97295">
        <ele>2205</ele>
        <time>2026-07-07T13:07:34.000Z</time>
      </trkpt>
      <trkpt lat="45.18035" lon="5.97284">
        <ele>2205</ele>
        <time>2026-07-07T13:07:45.000Z</time>
      </trkpt>
      <trkpt lat="45.18035" lon="5.97271">
        <ele>2206</ele>
        <time>2026-07-07T13:07:54.000Z</time>
      </trkpt>
      <trkpt lat="45.18036" lon="5.97257">
        <ele>2208</ele>
        <time>2026-07-07T13:08:05.000Z</time>
      </trkpt>
      <trkpt lat="45.18034" lon="5.97244">
        <ele>2212</ele>
        <time>2026-07-07T13:08:22.000Z</time>
      </trkpt>
      <trkpt lat="45.1803" lon="5.97231">
        <ele>2210</ele>
        <time>2026-07-07T13:08:35.000Z</time>
      </trkpt>
      <trkpt lat="45.18026" lon="5.9722">
        <ele>2212</ele>
        <time>2026-07-07T13:08:47.000Z</time>
      </trkpt>
      <trkpt lat="45.18023" lon="5.97207">
        <ele>2213</ele>
        <time>2026-07-07T13:09:01.000Z</time>
      </trkpt>
      <trkpt lat="45.18017" lon="5.97197">
        <ele>2214</ele>
        <time>2026-07-07T13:09:30.000Z</time>
      </trkpt>
      <trkpt lat="45.18014" lon="5.97184">
        <ele>2212</ele>
        <time>2026-07-07T13:09:40.000Z</time>
      </trkpt>
      <trkpt lat="45.18019" lon="5.97173">
        <ele>2210</ele>
        <time>2026-07-07T13:09:51.000Z</time>
      </trkpt>
      <trkpt lat="45.18019" lon="5.97159">
        <ele>2210</ele>
        <time>2026-07-07T13:09:59.000Z</time>
      </trkpt>
      <trkpt lat="45.18019" lon="5.97146">
        <ele>2211</ele>
        <time>2026-07-07T13:10:09.000Z</time>
      </trkpt>
      <trkpt lat="45.1802" lon="5.97132">
        <ele>2210</ele>
        <time>2026-07-07T13:10:21.000Z</time>
      </trkpt>
      <trkpt lat="45.18024" lon="5.9712">
        <ele>2211</ele>
        <time>2026-07-07T13:10:33.000Z</time>
      </trkpt>
      <trkpt lat="45.18031" lon="5.97111">
        <ele>2209</ele>
        <time>2026-07-07T13:10:42.000Z</time>
      </trkpt>
      <trkpt lat="45.18037" lon="5.97102">
        <ele>2206</ele>
        <time>2026-07-07T13:10:57.000Z</time>
      </trkpt>
      <trkpt lat="45.18037" lon="5.97088">
        <ele>2205</ele>
        <time>2026-07-07T13:11:07.000Z</time>
      </trkpt>
      <trkpt lat="45.18035" lon="5.97075">
        <ele>2204</ele>
        <time>2026-07-07T13:11:19.000Z</time>
      </trkpt>
      <trkpt lat="45.18034" lon="5.97062">
        <ele>2202</ele>
        <time>2026-07-07T13:11:28.000Z</time>
      </trkpt>
      <trkpt lat="45.18036" lon="5.9705">
        <ele>2199</ele>
        <time>2026-07-07T13:11:36.000Z</time>
      </trkpt>
      <trkpt lat="45.18032" lon="5.97038">
        <ele>2197</ele>
        <time>2026-07-07T13:11:45.000Z</time>
      </trkpt>
      <trkpt lat="45.18031" lon="5.97025">
        <ele>2195</ele>
        <time>2026-07-07T13:11:54.000Z</time>
      </trkpt>
      <trkpt lat="45.18029" lon="5.97012">
        <ele>2193</ele>
        <time>2026-07-07T13:12:05.000Z</time>
      </trkpt>
      <trkpt lat="45.18034" lon="5.97001">
        <ele>2188</ele>
        <time>2026-07-07T13:12:16.000Z</time>
      </trkpt>
      <trkpt lat="45.18042" lon="5.96993">
        <ele>2186</ele>
        <time>2026-07-07T13:12:23.000Z</time>
      </trkpt>
      <trkpt lat="45.1805" lon="5.96984">
        <ele>2186</ele>
        <time>2026-07-07T13:12:31.000Z</time>
      </trkpt>
      <trkpt lat="45.18053" lon="5.96972">
        <ele>2182</ele>
        <time>2026-07-07T13:12:39.000Z</time>
      </trkpt>
      <trkpt lat="45.18058" lon="5.96961">
        <ele>2177</ele>
        <time>2026-07-07T13:12:47.000Z</time>
      </trkpt>
      <trkpt lat="45.18066" lon="5.96969">
        <ele>2178</ele>
        <time>2026-07-07T13:12:55.000Z</time>
      </trkpt>
      <trkpt lat="45.18075" lon="5.96976">
        <ele>2173</ele>
        <time>2026-07-07T13:13:06.000Z</time>
      </trkpt>
      <trkpt lat="45.18084" lon="5.96979">
        <ele>2172</ele>
        <time>2026-07-07T13:13:14.000Z</time>
      </trkpt>
      <trkpt lat="45.18093" lon="5.96977">
        <ele>2170</ele>
        <time>2026-07-07T13:13:23.000Z</time>
      </trkpt>
      <trkpt lat="45.18103" lon="5.96979">
        <ele>2167</ele>
        <time>2026-07-07T13:13:36.000Z</time>
      </trkpt>
      <trkpt lat="45.18112" lon="5.96979">
        <ele>2165</ele>
        <time>2026-07-07T13:13:47.000Z</time>
      </trkpt>
      <trkpt lat="45.18121" lon="5.96976">
        <ele>2163</ele>
        <time>2026-07-07T13:13:57.000Z</time>
      </trkpt>
      <trkpt lat="45.18131" lon="5.96975">
        <ele>2160</ele>
        <time>2026-07-07T13:14:10.000Z</time>
      </trkpt>
      <trkpt lat="45.18139" lon="5.96969">
        <ele>2155</ele>
        <time>2026-07-07T13:14:30.000Z</time>
      </trkpt>
      <trkpt lat="45.18145" lon="5.96957">
        <ele>2154</ele>
        <time>2026-07-07T13:14:43.000Z</time>
      </trkpt>
      <trkpt lat="45.18153" lon="5.9695">
        <ele>2148</ele>
        <time>2026-07-07T13:14:56.000Z</time>
      </trkpt>
      <trkpt lat="45.18158" lon="5.96938">
        <ele>2151</ele>
        <time>2026-07-07T13:15:03.000Z</time>
      </trkpt>
      <trkpt lat="45.18167" lon="5.96934">
        <ele>2147</ele>
        <time>2026-07-07T13:15:19.000Z</time>
      </trkpt>
      <trkpt lat="45.1817" lon="5.96922">
        <ele>2143</ele>
        <time>2026-07-07T13:15:34.000Z</time>
      </trkpt>
      <trkpt lat="45.18178" lon="5.96916">
        <ele>2135</ele>
        <time>2026-07-07T13:15:53.000Z</time>
      </trkpt>
      <trkpt lat="45.18178" lon="5.96903">
        <ele>2133</ele>
        <time>2026-07-07T13:16:10.000Z</time>
      </trkpt>
      <trkpt lat="45.18179" lon="5.96889">
        <ele>2127</ele>
        <time>2026-07-07T13:16:41.000Z</time>
      </trkpt>
      <trkpt lat="45.18178" lon="5.96876">
        <ele>2126</ele>
        <time>2026-07-07T13:16:59.000Z</time>
      </trkpt>
      <trkpt lat="45.18181" lon="5.96864">
        <ele>2119</ele>
        <time>2026-07-07T13:17:22.000Z</time>
      </trkpt>
      <trkpt lat="45.18177" lon="5.96852">
        <ele>2115</ele>
        <time>2026-07-07T13:17:36.000Z</time>
      </trkpt>
      <trkpt lat="45.18172" lon="5.9684">
        <ele>2113</ele>
        <time>2026-07-07T13:17:57.000Z</time>
      </trkpt>
      <trkpt lat="45.18164" lon="5.96832">
        <ele>2111</ele>
        <time>2026-07-07T13:18:08.000Z</time>
      </trkpt>
      <trkpt lat="45.1816" lon="5.96821">
        <ele>2113</ele>
        <time>2026-07-07T13:18:17.000Z</time>
      </trkpt>
      <trkpt lat="45.18156" lon="5.96809">
        <ele>2113</ele>
        <time>2026-07-07T13:18:25.000Z</time>
      </trkpt>
      <trkpt lat="45.18153" lon="5.96797">
        <ele>2106</ele>
        <time>2026-07-07T13:18:37.000Z</time>
      </trkpt>
      <trkpt lat="45.18149" lon="5.96785">
        <ele>2099</ele>
        <time>2026-07-07T13:19:12.000Z</time>
      </trkpt>
      <trkpt lat="45.18155" lon="5.96794">
        <ele>2093</ele>
        <time>2026-07-07T13:19:30.000Z</time>
      </trkpt>
      <trkpt lat="45.18164" lon="5.96797">
        <ele>2088</ele>
        <time>2026-07-07T13:19:44.000Z</time>
      </trkpt>
      <trkpt lat="45.18174" lon="5.96796">
        <ele>2088</ele>
        <time>2026-07-07T13:19:53.000Z</time>
      </trkpt>
      <trkpt lat="45.18182" lon="5.96803">
        <ele>2086</ele>
        <time>2026-07-07T13:20:02.000Z</time>
      </trkpt>
      <trkpt lat="45.18188" lon="5.96813">
        <ele>2084</ele>
        <time>2026-07-07T13:20:11.000Z</time>
      </trkpt>
      <trkpt lat="45.18197" lon="5.96817">
        <ele>2078</ele>
        <time>2026-07-07T13:20:42.000Z</time>
      </trkpt>
      <trkpt lat="45.18205" lon="5.96823">
        <ele>2077</ele>
        <time>2026-07-07T13:20:54.000Z</time>
      </trkpt>
      <trkpt lat="45.18214" lon="5.96826">
        <ele>2073</ele>
        <time>2026-07-07T13:21:08.000Z</time>
      </trkpt>
      <trkpt lat="45.18224" lon="5.96824">
        <ele>2070</ele>
        <time>2026-07-07T13:21:28.000Z</time>
      </trkpt>
      <trkpt lat="45.18227" lon="5.96811">
        <ele>2065</ele>
        <time>2026-07-07T13:21:49.000Z</time>
      </trkpt>
      <trkpt lat="45.18235" lon="5.96807">
        <ele>2061</ele>
        <time>2026-07-07T13:22:06.000Z</time>
      </trkpt>
      <trkpt lat="45.18246" lon="5.96807">
        <ele>2055</ele>
        <time>2026-07-07T13:23:00.000Z</time>
      </trkpt>
      <trkpt lat="45.18242" lon="5.9679">
        <ele>2053</ele>
        <time>2026-07-07T13:23:17.000Z</time>
      </trkpt>
      <trkpt lat="45.18238" lon="5.96779">
        <ele>2051</ele>
        <time>2026-07-07T13:23:29.000Z</time>
      </trkpt>
      <trkpt lat="45.18237" lon="5.96766">
        <ele>2047</ele>
        <time>2026-07-07T13:23:48.000Z</time>
      </trkpt>
      <trkpt lat="45.18232" lon="5.96755">
        <ele>2046</ele>
        <time>2026-07-07T13:23:59.000Z</time>
      </trkpt>
      <trkpt lat="45.18229" lon="5.96743">
        <ele>2038</ele>
        <time>2026-07-07T13:25:03.000Z</time>
      </trkpt>
      <trkpt lat="45.18221" lon="5.96736">
        <ele>2034</ele>
        <time>2026-07-07T13:25:22.000Z</time>
      </trkpt>
      <trkpt lat="45.18216" lon="5.96725">
        <ele>2030</ele>
        <time>2026-07-07T13:26:12.000Z</time>
      </trkpt>
      <trkpt lat="45.18213" lon="5.96712">
        <ele>2025</ele>
        <time>2026-07-07T13:26:49.000Z</time>
      </trkpt>
      <trkpt lat="45.18217" lon="5.967">
        <ele>2015</ele>
        <time>2026-07-07T13:27:15.000Z</time>
      </trkpt>
      <trkpt lat="45.18225" lon="5.96693">
        <ele>2007</ele>
        <time>2026-07-07T13:27:47.000Z</time>
      </trkpt>
      <trkpt lat="45.18233" lon="5.96701">
        <ele>1999</ele>
        <time>2026-07-07T13:28:48.000Z</time>
      </trkpt>
      <trkpt lat="45.18241" lon="5.96709">
        <ele>2000</ele>
        <time>2026-07-07T13:28:51.000Z</time>
      </trkpt>
      <trkpt lat="45.1825" lon="5.96712">
        <ele>1995</ele>
        <time>2026-07-07T13:29:05.000Z</time>
      </trkpt>
      <trkpt lat="45.18258" lon="5.96708">
        <ele>1990</ele>
        <time>2026-07-07T13:29:29.000Z</time>
      </trkpt>
      <trkpt lat="45.18262" lon="5.96697">
        <ele>1987</ele>
        <time>2026-07-07T13:29:53.000Z</time>
      </trkpt>
      <trkpt lat="45.18261" lon="5.96684">
        <ele>1980</ele>
        <time>2026-07-07T13:30:32.000Z</time>
      </trkpt>
      <trkpt lat="45.18257" lon="5.96672">
        <ele>1979</ele>
        <time>2026-07-07T13:30:45.000Z</time>
      </trkpt>
      <trkpt lat="45.18253" lon="5.96661">
        <ele>1977</ele>
        <time>2026-07-07T13:31:06.000Z</time>
      </trkpt>
      <trkpt lat="45.18252" lon="5.96647">
        <ele>1968</ele>
        <time>2026-07-07T13:31:34.000Z</time>
      </trkpt>
      <trkpt lat="45.18248" lon="5.96636">
        <ele>1968</ele>
        <time>2026-07-07T13:31:47.000Z</time>
      </trkpt>
      <trkpt lat="45.18248" lon="5.96622">
        <ele>1967</ele>
        <time>2026-07-07T13:32:00.000Z</time>
      </trkpt>
      <trkpt lat="45.18258" lon="5.96621">
        <ele>1958</ele>
        <time>2026-07-07T13:32:25.000Z</time>
      </trkpt>
      <trkpt lat="45.18267" lon="5.96619">
        <ele>1948</ele>
        <time>2026-07-07T13:32:39.000Z</time>
      </trkpt>
      <trkpt lat="45.18276" lon="5.96619">
        <ele>1945</ele>
        <time>2026-07-07T13:32:51.000Z</time>
      </trkpt>
      <trkpt lat="45.18285" lon="5.96621">
        <ele>1942</ele>
        <time>2026-07-07T13:33:04.000Z</time>
      </trkpt>
      <trkpt lat="45.18294" lon="5.96623">
        <ele>1944</ele>
        <time>2026-07-07T13:33:13.000Z</time>
      </trkpt>
      <trkpt lat="45.18303" lon="5.96629">
        <ele>1940</ele>
        <time>2026-07-07T13:33:23.000Z</time>
      </trkpt>
      <trkpt lat="45.18309" lon="5.96639">
        <ele>1939</ele>
        <time>2026-07-07T13:33:33.000Z</time>
      </trkpt>
      <trkpt lat="45.18316" lon="5.96648">
        <ele>1937</ele>
        <time>2026-07-07T13:33:42.000Z</time>
      </trkpt>
      <trkpt lat="45.18323" lon="5.96656">
        <ele>1935</ele>
        <time>2026-07-07T13:33:58.000Z</time>
      </trkpt>
      <trkpt lat="45.1833" lon="5.96664">
        <ele>1934</ele>
        <time>2026-07-07T13:34:18.000Z</time>
      </trkpt>
      <trkpt lat="45.18339" lon="5.96667">
        <ele>1929</ele>
        <time>2026-07-07T13:34:34.000Z</time>
      </trkpt>
      <trkpt lat="45.18349" lon="5.9667">
        <ele>1928</ele>
        <time>2026-07-07T13:34:44.000Z</time>
      </trkpt>
      <trkpt lat="45.18357" lon="5.96676">
        <ele>1926</ele>
        <time>2026-07-07T13:34:57.000Z</time>
      </trkpt>
      <trkpt lat="45.18366" lon="5.96678">
        <ele>1923</ele>
        <time>2026-07-07T13:35:08.000Z</time>
      </trkpt>
      <trkpt lat="45.18376" lon="5.9668">
        <ele>1920</ele>
        <time>2026-07-07T13:35:23.000Z</time>
      </trkpt>
      <trkpt lat="45.18385" lon="5.96679">
        <ele>1918</ele>
        <time>2026-07-07T13:35:39.000Z</time>
      </trkpt>
      <trkpt lat="45.18394" lon="5.96682">
        <ele>1916</ele>
        <time>2026-07-07T13:36:16.000Z</time>
      </trkpt>
      <trkpt lat="45.18402" lon="5.96689">
        <ele>1911</ele>
        <time>2026-07-07T13:36:40.000Z</time>
      </trkpt>
      <trkpt lat="45.18402" lon="5.96703">
        <ele>1912</ele>
        <time>2026-07-07T13:36:53.000Z</time>
      </trkpt>
      <trkpt lat="45.18412" lon="5.96708">
        <ele>1905</ele>
        <time>2026-07-07T13:37:18.000Z</time>
      </trkpt>
      <trkpt lat="45.18419" lon="5.96699">
        <ele>1904</ele>
        <time>2026-07-07T13:37:49.000Z</time>
      </trkpt>
      <trkpt lat="45.18428" lon="5.96703">
        <ele>1901</ele>
        <time>2026-07-07T13:37:58.000Z</time>
      </trkpt>
      <trkpt lat="45.18437" lon="5.96702">
        <ele>1897</ele>
        <time>2026-07-07T13:38:16.000Z</time>
      </trkpt>
      <trkpt lat="45.18446" lon="5.96698">
        <ele>1892</ele>
        <time>2026-07-07T13:38:32.000Z</time>
      </trkpt>
      <trkpt lat="45.18456" lon="5.96695">
        <ele>1893</ele>
        <time>2026-07-07T13:38:48.000Z</time>
      </trkpt>
      <trkpt lat="45.18465" lon="5.96693">
        <ele>1888</ele>
        <time>2026-07-07T13:39:13.000Z</time>
      </trkpt>
      <trkpt lat="45.18474" lon="5.96688">
        <ele>1886</ele>
        <time>2026-07-07T13:39:23.000Z</time>
      </trkpt>
      <trkpt lat="45.18483" lon="5.96687">
        <ele>1884</ele>
        <time>2026-07-07T13:39:32.000Z</time>
      </trkpt>
      <trkpt lat="45.18492" lon="5.96685">
        <ele>1882</ele>
        <time>2026-07-07T13:39:51.000Z</time>
      </trkpt>
      <trkpt lat="45.18502" lon="5.96683">
        <ele>1878</ele>
        <time>2026-07-07T13:40:07.000Z</time>
      </trkpt>
      <trkpt lat="45.1851" lon="5.96686">
        <ele>1877</ele>
        <time>2026-07-07T13:40:24.000Z</time>
      </trkpt>
      <trkpt lat="45.18521" lon="5.96685">
        <ele>1876</ele>
        <time>2026-07-07T13:40:38.000Z</time>
      </trkpt>
      <trkpt lat="45.1853" lon="5.96684">
        <ele>1878</ele>
        <time>2026-07-07T13:40:54.000Z</time>
      </trkpt>
      <trkpt lat="45.1854" lon="5.96684">
        <ele>1877</ele>
        <time>2026-07-07T13:41:04.000Z</time>
      </trkpt>
      <trkpt lat="45.1855" lon="5.96684">
        <ele>1882</ele>
        <time>2026-07-07T13:41:18.000Z</time>
      </trkpt>
      <trkpt lat="45.18559" lon="5.96684">
        <ele>1882</ele>
        <time>2026-07-07T13:41:30.000Z</time>
      </trkpt>
      <trkpt lat="45.18568" lon="5.96684">
        <ele>1888</ele>
        <time>2026-07-07T13:41:51.000Z</time>
      </trkpt>
      <trkpt lat="45.18577" lon="5.96681">
        <ele>1885</ele>
        <time>2026-07-07T13:42:16.000Z</time>
      </trkpt>
      <trkpt lat="45.18586" lon="5.96678">
        <ele>1886</ele>
        <time>2026-07-07T13:42:27.000Z</time>
      </trkpt>
      <trkpt lat="45.1859" lon="5.96666">
        <ele>1887</ele>
        <time>2026-07-07T13:42:42.000Z</time>
      </trkpt>
      <trkpt lat="45.18599" lon="5.96666">
        <ele>1882</ele>
        <time>2026-07-07T13:43:04.000Z</time>
      </trkpt>
      <trkpt lat="45.18609" lon="5.96666">
        <ele>1883</ele>
        <time>2026-07-07T13:43:21.000Z</time>
      </trkpt>
      <trkpt lat="45.18618" lon="5.96666">
        <ele>1886</ele>
        <time>2026-07-07T13:43:38.000Z</time>
      </trkpt>
      <trkpt lat="45.18628" lon="5.96664">
        <ele>1886</ele>
        <time>2026-07-07T13:43:53.000Z</time>
      </trkpt>
      <trkpt lat="45.18637" lon="5.9666">
        <ele>1891</ele>
        <time>2026-07-07T13:44:15.000Z</time>
      </trkpt>
      <trkpt lat="45.18646" lon="5.96659">
        <ele>1896</ele>
        <time>2026-07-07T13:44:39.000Z</time>
      </trkpt>
      <trkpt lat="45.18654" lon="5.96652">
        <ele>1896</ele>
        <time>2026-07-07T13:44:55.000Z</time>
      </trkpt>
      <trkpt lat="45.18663" lon="5.9665">
        <ele>1900</ele>
        <time>2026-07-07T13:45:21.000Z</time>
      </trkpt>
      <trkpt lat="45.18672" lon="5.96649">
        <ele>1903</ele>
        <time>2026-07-07T13:45:43.000Z</time>
      </trkpt>
      <trkpt lat="45.1868" lon="5.96644">
        <ele>1905</ele>
        <time>2026-07-07T13:46:26.000Z</time>
      </trkpt>
      <trkpt lat="45.1869" lon="5.9664">
        <ele>1909</ele>
        <time>2026-07-07T13:46:44.000Z</time>
      </trkpt>
      <trkpt lat="45.18699" lon="5.96639">
        <ele>1910</ele>
        <time>2026-07-07T13:47:01.000Z</time>
      </trkpt>
      <trkpt lat="45.18708" lon="5.96633">
        <ele>1914</ele>
        <time>2026-07-07T13:47:24.000Z</time>
      </trkpt>
      <trkpt lat="45.18716" lon="5.96627">
        <ele>1915</ele>
        <time>2026-07-07T13:47:38.000Z</time>
      </trkpt>
      <trkpt lat="45.18725" lon="5.96625">
        <ele>1916</ele>
        <time>2026-07-07T13:47:51.000Z</time>
      </trkpt>
      <trkpt lat="45.18734" lon="5.96619">
        <ele>1919</ele>
        <time>2026-07-07T13:48:02.000Z</time>
      </trkpt>
      <trkpt lat="45.1874" lon="5.9661">
        <ele>1920</ele>
        <time>2026-07-07T13:48:13.000Z</time>
      </trkpt>
      <trkpt lat="45.18748" lon="5.96603">
        <ele>1919</ele>
        <time>2026-07-07T13:48:28.000Z</time>
      </trkpt>
      <trkpt lat="45.18758" lon="5.96606">
        <ele>1922</ele>
        <time>2026-07-07T13:48:49.000Z</time>
      </trkpt>
      <trkpt lat="45.18767" lon="5.96609">
        <ele>1925</ele>
        <time>2026-07-07T13:49:08.000Z</time>
      </trkpt>
      <trkpt lat="45.18776" lon="5.9661">
        <ele>1928</ele>
        <time>2026-07-07T13:49:24.000Z</time>
      </trkpt>
      <trkpt lat="45.18786" lon="5.96613">
        <ele>1929</ele>
        <time>2026-07-07T13:49:40.000Z</time>
      </trkpt>
      <trkpt lat="45.18795" lon="5.9661">
        <ele>1930</ele>
        <time>2026-07-07T13:49:51.000Z</time>
      </trkpt>
      <trkpt lat="45.18804" lon="5.96615">
        <ele>1931</ele>
        <time>2026-07-07T13:50:02.000Z</time>
      </trkpt>
      <trkpt lat="45.18806" lon="5.96627">
        <ele>1934</ele>
        <time>2026-07-07T13:50:12.000Z</time>
      </trkpt>
      <trkpt lat="45.18807" lon="5.9664">
        <ele>1933</ele>
        <time>2026-07-07T13:50:21.000Z</time>
      </trkpt>
      <trkpt lat="45.18812" lon="5.96653">
        <ele>1933</ele>
        <time>2026-07-07T13:50:32.000Z</time>
      </trkpt>
      <trkpt lat="45.18817" lon="5.96664">
        <ele>1933</ele>
        <time>2026-07-07T13:50:42.000Z</time>
      </trkpt>
      <trkpt lat="45.18823" lon="5.96674">
        <ele>1931</ele>
        <time>2026-07-07T13:50:52.000Z</time>
      </trkpt>
      <trkpt lat="45.18828" lon="5.96685">
        <ele>1930</ele>
        <time>2026-07-07T13:51:03.000Z</time>
      </trkpt>
      <trkpt lat="45.18832" lon="5.96699">
        <ele>1932</ele>
        <time>2026-07-07T13:51:13.000Z</time>
      </trkpt>
      <trkpt lat="45.18833" lon="5.96712">
        <ele>1932</ele>
        <time>2026-07-07T13:51:21.000Z</time>
      </trkpt>
      <trkpt lat="45.18836" lon="5.96725">
        <ele>1931</ele>
        <time>2026-07-07T13:51:30.000Z</time>
      </trkpt>
      <trkpt lat="45.18839" lon="5.96739">
        <ele>1930</ele>
        <time>2026-07-07T13:51:39.000Z</time>
      </trkpt>
      <trkpt lat="45.18842" lon="5.96752">
        <ele>1933</ele>
        <time>2026-07-07T13:51:48.000Z</time>
      </trkpt>
      <trkpt lat="45.18846" lon="5.96764">
        <ele>1932</ele>
        <time>2026-07-07T13:51:58.000Z</time>
      </trkpt>
      <trkpt lat="45.18849" lon="5.96777">
        <ele>1931</ele>
        <time>2026-07-07T13:52:09.000Z</time>
      </trkpt>
      <trkpt lat="45.18856" lon="5.96787">
        <ele>1931</ele>
        <time>2026-07-07T13:52:19.000Z</time>
      </trkpt>
      <trkpt lat="45.18861" lon="5.96798">
        <ele>1932</ele>
        <time>2026-07-07T13:52:32.000Z</time>
      </trkpt>
      <trkpt lat="45.1887" lon="5.96793">
        <ele>1933</ele>
        <time>2026-07-07T13:52:47.000Z</time>
      </trkpt>
      <trkpt lat="45.18878" lon="5.96796">
        <ele>1931</ele>
        <time>2026-07-07T13:53:00.000Z</time>
      </trkpt>
      <trkpt lat="45.18888" lon="5.96798">
        <ele>1933</ele>
        <time>2026-07-07T13:53:12.000Z</time>
      </trkpt>
      <trkpt lat="45.18897" lon="5.96801">
        <ele>1931</ele>
        <time>2026-07-07T13:53:22.000Z</time>
      </trkpt>
      <trkpt lat="45.18906" lon="5.96803">
        <ele>1935</ele>
        <time>2026-07-07T13:53:36.000Z</time>
      </trkpt>
      <trkpt lat="45.18915" lon="5.96802">
        <ele>1935</ele>
        <time>2026-07-07T13:53:49.000Z</time>
      </trkpt>
      <trkpt lat="45.18924" lon="5.96805">
        <ele>1937</ele>
        <time>2026-07-07T13:54:01.000Z</time>
      </trkpt>
      <trkpt lat="45.18934" lon="5.9681">
        <ele>1937</ele>
        <time>2026-07-07T13:54:12.000Z</time>
      </trkpt>
      <trkpt lat="45.18942" lon="5.96815">
        <ele>1937</ele>
        <time>2026-07-07T13:54:20.000Z</time>
      </trkpt>
      <trkpt lat="45.18951" lon="5.96821">
        <ele>1937</ele>
        <time>2026-07-07T13:54:30.000Z</time>
      </trkpt>
      <trkpt lat="45.1896" lon="5.96827">
        <ele>1937</ele>
        <time>2026-07-07T13:54:39.000Z</time>
      </trkpt>
      <trkpt lat="45.18969" lon="5.96833">
        <ele>1938</ele>
        <time>2026-07-07T13:54:48.000Z</time>
      </trkpt>
      <trkpt lat="45.18978" lon="5.96838">
        <ele>1937</ele>
        <time>2026-07-07T13:54:56.000Z</time>
      </trkpt>
      <trkpt lat="45.18987" lon="5.96844">
        <ele>1935</ele>
        <time>2026-07-07T13:55:05.000Z</time>
      </trkpt>
      <trkpt lat="45.18995" lon="5.96851">
        <ele>1936</ele>
        <time>2026-07-07T13:55:15.000Z</time>
      </trkpt>
      <trkpt lat="45.19003" lon="5.96862">
        <ele>1938</ele>
        <time>2026-07-07T13:55:25.000Z</time>
      </trkpt>
      <trkpt lat="45.19008" lon="5.96873">
        <ele>1939</ele>
        <time>2026-07-07T13:55:35.000Z</time>
      </trkpt>
      <trkpt lat="45.19016" lon="5.9688">
        <ele>1937</ele>
        <time>2026-07-07T13:55:46.000Z</time>
      </trkpt>
      <trkpt lat="45.19024" lon="5.96885">
        <ele>1937</ele>
        <time>2026-07-07T13:55:55.000Z</time>
      </trkpt>
      <trkpt lat="45.1903" lon="5.96895">
        <ele>1940</ele>
        <time>2026-07-07T13:57:00.000Z</time>
      </trkpt>
      <trkpt lat="45.19039" lon="5.96893">
        <ele>1940</ele>
        <time>2026-07-07T13:57:15.000Z</time>
      </trkpt>
      <trkpt lat="45.19048" lon="5.96895">
        <ele>1936</ele>
        <time>2026-07-07T13:57:27.000Z</time>
      </trkpt>
      <trkpt lat="45.19059" lon="5.96896">
        <ele>1938</ele>
        <time>2026-07-07T13:57:37.000Z</time>
      </trkpt>
      <trkpt lat="45.19066" lon="5.9689">
        <ele>1939</ele>
        <time>2026-07-07T13:57:48.000Z</time>
      </trkpt>
      <trkpt lat="45.19075" lon="5.96885">
        <ele>1940</ele>
        <time>2026-07-07T13:57:58.000Z</time>
      </trkpt>
      <trkpt lat="45.19084" lon="5.96884">
        <ele>1938</ele>
        <time>2026-07-07T13:58:07.000Z</time>
      </trkpt>
      <trkpt lat="45.19094" lon="5.96881">
        <ele>1937</ele>
        <time>2026-07-07T13:58:17.000Z</time>
      </trkpt>
      <trkpt lat="45.19103" lon="5.96876">
        <ele>1938</ele>
        <time>2026-07-07T13:58:25.000Z</time>
      </trkpt>
      <trkpt lat="45.19112" lon="5.96871">
        <ele>1940</ele>
        <time>2026-07-07T13:58:35.000Z</time>
      </trkpt>
      <trkpt lat="45.19121" lon="5.96867">
        <ele>1939</ele>
        <time>2026-07-07T13:58:48.000Z</time>
      </trkpt>
      <trkpt lat="45.1913" lon="5.96862">
        <ele>1941</ele>
        <time>2026-07-07T13:58:59.000Z</time>
      </trkpt>
      <trkpt lat="45.1914" lon="5.96861">
        <ele>1941</ele>
        <time>2026-07-07T13:59:10.000Z</time>
      </trkpt>
      <trkpt lat="45.19149" lon="5.96856">
        <ele>1940</ele>
        <time>2026-07-07T13:59:21.000Z</time>
      </trkpt>
      <trkpt lat="45.19158" lon="5.9685">
        <ele>1941</ele>
        <time>2026-07-07T13:59:30.000Z</time>
      </trkpt>
      <trkpt lat="45.19167" lon="5.96844">
        <ele>1939</ele>
        <time>2026-07-07T13:59:38.000Z</time>
      </trkpt>
      <trkpt lat="45.19176" lon="5.96841">
        <ele>1939</ele>
        <time>2026-07-07T13:59:48.000Z</time>
      </trkpt>
      <trkpt lat="45.19186" lon="5.96841">
        <ele>1937</ele>
        <time>2026-07-07T13:59:58.000Z</time>
      </trkpt>
      <trkpt lat="45.19196" lon="5.9684">
        <ele>1936</ele>
        <time>2026-07-07T14:00:06.000Z</time>
      </trkpt>
      <trkpt lat="45.19206" lon="5.96839">
        <ele>1934</ele>
        <time>2026-07-07T14:00:15.000Z</time>
      </trkpt>
      <trkpt lat="45.19217" lon="5.9684">
        <ele>1935</ele>
        <time>2026-07-07T14:00:28.000Z</time>
      </trkpt>
      <trkpt lat="45.19225" lon="5.96833">
        <ele>1940</ele>
        <time>2026-07-07T14:00:50.000Z</time>
      </trkpt>
      <trkpt lat="45.1923" lon="5.96822">
        <ele>1943</ele>
        <time>2026-07-07T14:01:02.000Z</time>
      </trkpt>
      <trkpt lat="45.1923" lon="5.96809">
        <ele>1945</ele>
        <time>2026-07-07T14:01:10.000Z</time>
      </trkpt>
      <trkpt lat="45.19228" lon="5.96796">
        <ele>1948</ele>
        <time>2026-07-07T14:01:20.000Z</time>
      </trkpt>
      <trkpt lat="45.1923" lon="5.96782">
        <ele>1950</ele>
        <time>2026-07-07T14:01:28.000Z</time>
      </trkpt>
      <trkpt lat="45.1923" lon="5.96769">
        <ele>1947</ele>
        <time>2026-07-07T14:01:37.000Z</time>
      </trkpt>
      <trkpt lat="45.19234" lon="5.96757">
        <ele>1947</ele>
        <time>2026-07-07T14:01:46.000Z</time>
      </trkpt>
      <trkpt lat="45.19239" lon="5.96745">
        <ele>1948</ele>
        <time>2026-07-07T14:01:55.000Z</time>
      </trkpt>
      <trkpt lat="45.19241" lon="5.96731">
        <ele>1947</ele>
        <time>2026-07-07T14:02:04.000Z</time>
      </trkpt>
      <trkpt lat="45.1925" lon="5.96728">
        <ele>1949</ele>
        <time>2026-07-07T14:08:00.000Z</time>
      </trkpt>
      <trkpt lat="45.19241" lon="5.96733">
        <ele>1946</ele>
        <time>2026-07-07T14:12:24.000Z</time>
      </trkpt>
      <trkpt lat="45.19251" lon="5.96729">
        <ele>1946</ele>
        <time>2026-07-07T14:18:34.000Z</time>
      </trkpt>
      <trkpt lat="45.19255" lon="5.9674">
        <ele>1946</ele>
        <time>2026-07-07T14:18:43.000Z</time>
      </trkpt>
      <trkpt lat="45.19263" lon="5.96751">
        <ele>1950</ele>
        <time>2026-07-07T14:18:51.000Z</time>
      </trkpt>
      <trkpt lat="45.19272" lon="5.96754">
        <ele>1949</ele>
        <time>2026-07-07T14:18:57.000Z</time>
      </trkpt>
      <trkpt lat="45.1928" lon="5.96761">
        <ele>1945</ele>
        <time>2026-07-07T14:19:04.000Z</time>
      </trkpt>
      <trkpt lat="45.19288" lon="5.96768">
        <ele>1943</ele>
        <time>2026-07-07T14:19:12.000Z</time>
      </trkpt>
      <trkpt lat="45.19298" lon="5.9677">
        <ele>1943</ele>
        <time>2026-07-07T14:19:21.000Z</time>
      </trkpt>
      <trkpt lat="45.19307" lon="5.96764">
        <ele>1944</ele>
        <time>2026-07-07T14:19:29.000Z</time>
      </trkpt>
      <trkpt lat="45.19315" lon="5.96758">
        <ele>1942</ele>
        <time>2026-07-07T14:19:37.000Z</time>
      </trkpt>
      <trkpt lat="45.19325" lon="5.96755">
        <ele>1944</ele>
        <time>2026-07-07T14:19:47.000Z</time>
      </trkpt>
      <trkpt lat="45.19334" lon="5.96754">
        <ele>1945</ele>
        <time>2026-07-07T14:19:56.000Z</time>
      </trkpt>
      <trkpt lat="45.19344" lon="5.96754">
        <ele>1946</ele>
        <time>2026-07-07T14:20:08.000Z</time>
      </trkpt>
      <trkpt lat="45.19353" lon="5.96755">
        <ele>1944</ele>
        <time>2026-07-07T14:20:36.000Z</time>
      </trkpt>
      <trkpt lat="45.19362" lon="5.96761">
        <ele>1944</ele>
        <time>2026-07-07T14:21:34.000Z</time>
      </trkpt>
      <trkpt lat="45.19371" lon="5.96759">
        <ele>1939</ele>
        <time>2026-07-07T14:21:50.000Z</time>
      </trkpt>
      <trkpt lat="45.19375" lon="5.96747">
        <ele>1934</ele>
        <time>2026-07-07T14:22:11.000Z</time>
      </trkpt>
      <trkpt lat="45.19381" lon="5.96736">
        <ele>1932</ele>
        <time>2026-07-07T14:22:22.000Z</time>
      </trkpt>
      <trkpt lat="45.19387" lon="5.96725">
        <ele>1929</ele>
        <time>2026-07-07T14:22:32.000Z</time>
      </trkpt>
      <trkpt lat="45.19392" lon="5.96715">
        <ele>1926</ele>
        <time>2026-07-07T14:22:42.000Z</time>
      </trkpt>
      <trkpt lat="45.19401" lon="5.96716">
        <ele>1927</ele>
        <time>2026-07-07T14:22:49.000Z</time>
      </trkpt>
      <trkpt lat="45.19408" lon="5.96725">
        <ele>1927</ele>
        <time>2026-07-07T14:22:56.000Z</time>
      </trkpt>
      <trkpt lat="45.19415" lon="5.96733">
        <ele>1926</ele>
        <time>2026-07-07T14:23:04.000Z</time>
      </trkpt>
      <trkpt lat="45.19423" lon="5.9674">
        <ele>1923</ele>
        <time>2026-07-07T14:23:12.000Z</time>
      </trkpt>
      <trkpt lat="45.19432" lon="5.96735">
        <ele>1925</ele>
        <time>2026-07-07T14:23:21.000Z</time>
      </trkpt>
      <trkpt lat="45.19437" lon="5.96724">
        <ele>1923</ele>
        <time>2026-07-07T14:23:29.000Z</time>
      </trkpt>
      <trkpt lat="45.19444" lon="5.96714">
        <ele>1924</ele>
        <time>2026-07-07T14:23:37.000Z</time>
      </trkpt>
      <trkpt lat="45.19447" lon="5.96701">
        <ele>1928</ele>
        <time>2026-07-07T14:23:46.000Z</time>
      </trkpt>
      <trkpt lat="45.19455" lon="5.96693">
        <ele>1921</ele>
        <time>2026-07-07T14:24:04.000Z</time>
      </trkpt>
      <trkpt lat="45.19465" lon="5.96696">
        <ele>1919</ele>
        <time>2026-07-07T14:24:12.000Z</time>
      </trkpt>
      <trkpt lat="45.19475" lon="5.96697">
        <ele>1917</ele>
        <time>2026-07-07T14:24:20.000Z</time>
      </trkpt>
      <trkpt lat="45.19485" lon="5.96699">
        <ele>1916</ele>
        <time>2026-07-07T14:24:27.000Z</time>
      </trkpt>
      <trkpt lat="45.19494" lon="5.96696">
        <ele>1917</ele>
        <time>2026-07-07T14:24:34.000Z</time>
      </trkpt>
      <trkpt lat="45.19503" lon="5.96691">
        <ele>1918</ele>
        <time>2026-07-07T14:24:42.000Z</time>
      </trkpt>
      <trkpt lat="45.19512" lon="5.96691">
        <ele>1917</ele>
        <time>2026-07-07T14:24:52.000Z</time>
      </trkpt>
      <trkpt lat="45.19521" lon="5.96687">
        <ele>1915</ele>
        <time>2026-07-07T14:25:01.000Z</time>
      </trkpt>
      <trkpt lat="45.19531" lon="5.96682">
        <ele>1914</ele>
        <time>2026-07-07T14:25:09.000Z</time>
      </trkpt>
      <trkpt lat="45.19539" lon="5.96678">
        <ele>1911</ele>
        <time>2026-07-07T14:25:17.000Z</time>
      </trkpt>
      <trkpt lat="45.19548" lon="5.96671">
        <ele>1911</ele>
        <time>2026-07-07T14:25:27.000Z</time>
      </trkpt>
      <trkpt lat="45.19555" lon="5.9666">
        <ele>1910</ele>
        <time>2026-07-07T14:25:36.000Z</time>
      </trkpt>
      <trkpt lat="45.19562" lon="5.9665">
        <ele>1908</ele>
        <time>2026-07-07T14:25:46.000Z</time>
      </trkpt>
      <trkpt lat="45.19569" lon="5.96642">
        <ele>1908</ele>
        <time>2026-07-07T14:25:55.000Z</time>
      </trkpt>
      <trkpt lat="45.19577" lon="5.96632">
        <ele>1906</ele>
        <time>2026-07-07T14:26:04.000Z</time>
      </trkpt>
      <trkpt lat="45.1958" lon="5.96619">
        <ele>1906</ele>
        <time>2026-07-07T14:26:12.000Z</time>
      </trkpt>
      <trkpt lat="45.19584" lon="5.96606">
        <ele>1905</ele>
        <time>2026-07-07T14:26:23.000Z</time>
      </trkpt>
      <trkpt lat="45.1959" lon="5.96598">
        <ele>1904</ele>
        <time>2026-07-07T14:26:33.000Z</time>
      </trkpt>
      <trkpt lat="45.196" lon="5.96598">
        <ele>1904</ele>
        <time>2026-07-07T14:26:46.000Z</time>
      </trkpt>
      <trkpt lat="45.19609" lon="5.96593">
        <ele>1903</ele>
        <time>2026-07-07T14:27:01.000Z</time>
      </trkpt>
      <trkpt lat="45.19619" lon="5.96594">
        <ele>1902</ele>
        <time>2026-07-07T14:27:10.000Z</time>
      </trkpt>
      <trkpt lat="45.19619" lon="5.96581">
        <ele>1905</ele>
        <time>2026-07-07T14:27:24.000Z</time>
      </trkpt>
      <trkpt lat="45.19622" lon="5.96569">
        <ele>1901</ele>
        <time>2026-07-07T14:27:44.000Z</time>
      </trkpt>
      <trkpt lat="45.19624" lon="5.96556">
        <ele>1902</ele>
        <time>2026-07-07T14:28:07.000Z</time>
      </trkpt>
      <trkpt lat="45.19628" lon="5.96544">
        <ele>1905</ele>
        <time>2026-07-07T14:28:24.000Z</time>
      </trkpt>
      <trkpt lat="45.19635" lon="5.96535">
        <ele>1904</ele>
        <time>2026-07-07T14:28:37.000Z</time>
      </trkpt>
      <trkpt lat="45.19642" lon="5.96526">
        <ele>1902</ele>
        <time>2026-07-07T14:28:50.000Z</time>
      </trkpt>
      <trkpt lat="45.19651" lon="5.96526">
        <ele>1898</ele>
        <time>2026-07-07T14:29:04.000Z</time>
      </trkpt>
      <trkpt lat="45.19659" lon="5.96519">
        <ele>1893</ele>
        <time>2026-07-07T14:30:02.000Z</time>
      </trkpt>
      <trkpt lat="45.19667" lon="5.96526">
        <ele>1891</ele>
        <time>2026-07-07T14:30:17.000Z</time>
      </trkpt>
      <trkpt lat="45.19676" lon="5.9653">
        <ele>1888</ele>
        <time>2026-07-07T14:30:30.000Z</time>
      </trkpt>
      <trkpt lat="45.19685" lon="5.96534">
        <ele>1887</ele>
        <time>2026-07-07T14:30:42.000Z</time>
      </trkpt>
      <trkpt lat="45.19694" lon="5.96537">
        <ele>1889</ele>
        <time>2026-07-07T14:30:52.000Z</time>
      </trkpt>
      <trkpt lat="45.19703" lon="5.96537">
        <ele>1887</ele>
        <time>2026-07-07T14:31:05.000Z</time>
      </trkpt>
      <trkpt lat="45.19713" lon="5.96533">
        <ele>1887</ele>
        <time>2026-07-07T14:31:36.000Z</time>
      </trkpt>
      <trkpt lat="45.19723" lon="5.96533">
        <ele>1885</ele>
        <time>2026-07-07T14:31:46.000Z</time>
      </trkpt>
      <trkpt lat="45.19731" lon="5.96539">
        <ele>1886</ele>
        <time>2026-07-07T14:31:58.000Z</time>
      </trkpt>
      <trkpt lat="45.19739" lon="5.96545">
        <ele>1887</ele>
        <time>2026-07-07T14:32:10.000Z</time>
      </trkpt>
      <trkpt lat="45.19747" lon="5.96552">
        <ele>1889</ele>
        <time>2026-07-07T14:32:23.000Z</time>
      </trkpt>
      <trkpt lat="45.19755" lon="5.9656">
        <ele>1890</ele>
        <time>2026-07-07T14:32:34.000Z</time>
      </trkpt>
      <trkpt lat="45.19764" lon="5.96563">
        <ele>1893</ele>
        <time>2026-07-07T14:32:48.000Z</time>
      </trkpt>
      <trkpt lat="45.19773" lon="5.96564">
        <ele>1892</ele>
        <time>2026-07-07T14:33:06.000Z</time>
      </trkpt>
      <trkpt lat="45.19782" lon="5.96571">
        <ele>1895</ele>
        <time>2026-07-07T14:33:21.000Z</time>
      </trkpt>
      <trkpt lat="45.1979" lon="5.96579">
        <ele>1893</ele>
        <time>2026-07-07T14:33:36.000Z</time>
      </trkpt>
      <trkpt lat="45.19798" lon="5.96584">
        <ele>1894</ele>
        <time>2026-07-07T14:33:46.000Z</time>
      </trkpt>
      <trkpt lat="45.19807" lon="5.96586">
        <ele>1896</ele>
        <time>2026-07-07T14:33:56.000Z</time>
      </trkpt>
      <trkpt lat="45.19817" lon="5.96589">
        <ele>1899</ele>
        <time>2026-07-07T14:34:12.000Z</time>
      </trkpt>
      <trkpt lat="45.19825" lon="5.96581">
        <ele>1898</ele>
        <time>2026-07-07T14:34:47.000Z</time>
      </trkpt>
      <trkpt lat="45.19833" lon="5.96577">
        <ele>1899</ele>
        <time>2026-07-07T14:35:04.000Z</time>
      </trkpt>
      <trkpt lat="45.1984" lon="5.96568">
        <ele>1898</ele>
        <time>2026-07-07T14:35:21.000Z</time>
      </trkpt>
      <trkpt lat="45.1984" lon="5.96555">
        <ele>1897</ele>
        <time>2026-07-07T14:35:34.000Z</time>
      </trkpt>
      <trkpt lat="45.19838" lon="5.96541">
        <ele>1898</ele>
        <time>2026-07-07T14:35:44.000Z</time>
      </trkpt>
      <trkpt lat="45.19837" lon="5.96528">
        <ele>1894</ele>
        <time>2026-07-07T14:35:57.000Z</time>
      </trkpt>
      <trkpt lat="45.19839" lon="5.96515">
        <ele>1892</ele>
        <time>2026-07-07T14:36:15.000Z</time>
      </trkpt>
      <trkpt lat="45.19839" lon="5.96501">
        <ele>1889</ele>
        <time>2026-07-07T14:36:30.000Z</time>
      </trkpt>
      <trkpt lat="45.19838" lon="5.96488">
        <ele>1887</ele>
        <time>2026-07-07T14:36:52.000Z</time>
      </trkpt>
      <trkpt lat="45.19837" lon="5.96475">
        <ele>1885</ele>
        <time>2026-07-07T14:37:06.000Z</time>
      </trkpt>
      <trkpt lat="45.19846" lon="5.96471">
        <ele>1881</ele>
        <time>2026-07-07T14:37:20.000Z</time>
      </trkpt>
      <trkpt lat="45.19856" lon="5.96473">
        <ele>1879</ele>
        <time>2026-07-07T14:37:32.000Z</time>
      </trkpt>
      <trkpt lat="45.19865" lon="5.96471">
        <ele>1879</ele>
        <time>2026-07-07T14:37:49.000Z</time>
      </trkpt>
      <trkpt lat="45.19875" lon="5.96466">
        <ele>1876</ele>
        <time>2026-07-07T14:38:00.000Z</time>
      </trkpt>
      <trkpt lat="45.19883" lon="5.96458">
        <ele>1877</ele>
        <time>2026-07-07T14:38:13.000Z</time>
      </trkpt>
      <trkpt lat="45.19892" lon="5.96457">
        <ele>1876</ele>
        <time>2026-07-07T14:38:28.000Z</time>
      </trkpt>
      <trkpt lat="45.19899" lon="5.96449">
        <ele>1873</ele>
        <time>2026-07-07T14:38:43.000Z</time>
      </trkpt>
      <trkpt lat="45.19909" lon="5.96447">
        <ele>1871</ele>
        <time>2026-07-07T14:39:03.000Z</time>
      </trkpt>
      <trkpt lat="45.19919" lon="5.96445">
        <ele>1868</ele>
        <time>2026-07-07T14:39:16.000Z</time>
      </trkpt>
      <trkpt lat="45.19927" lon="5.9644">
        <ele>1868</ele>
        <time>2026-07-07T14:39:35.000Z</time>
      </trkpt>
      <trkpt lat="45.19937" lon="5.96439">
        <ele>1865</ele>
        <time>2026-07-07T14:39:47.000Z</time>
      </trkpt>
      <trkpt lat="45.19947" lon="5.96438">
        <ele>1863</ele>
        <time>2026-07-07T14:39:59.000Z</time>
      </trkpt>
      <trkpt lat="45.19956" lon="5.96438">
        <ele>1865</ele>
        <time>2026-07-07T14:40:09.000Z</time>
      </trkpt>
      <trkpt lat="45.19965" lon="5.96443">
        <ele>1864</ele>
        <time>2026-07-07T14:40:16.000Z</time>
      </trkpt>
      <trkpt lat="45.19975" lon="5.96442">
        <ele>1862</ele>
        <time>2026-07-07T14:40:26.000Z</time>
      </trkpt>
      <trkpt lat="45.19984" lon="5.96444">
        <ele>1858</ele>
        <time>2026-07-07T14:40:34.000Z</time>
      </trkpt>
      <trkpt lat="45.19992" lon="5.96439">
        <ele>1857</ele>
        <time>2026-07-07T14:40:42.000Z</time>
      </trkpt>
      <trkpt lat="45.20001" lon="5.96433">
        <ele>1856</ele>
        <time>2026-07-07T14:40:50.000Z</time>
      </trkpt>
      <trkpt lat="45.20008" lon="5.96424">
        <ele>1854</ele>
        <time>2026-07-07T14:40:58.000Z</time>
      </trkpt>
      <trkpt lat="45.20015" lon="5.96415">
        <ele>1853</ele>
        <time>2026-07-07T14:41:06.000Z</time>
      </trkpt>
      <trkpt lat="45.20021" lon="5.96403">
        <ele>1853</ele>
        <time>2026-07-07T14:41:15.000Z</time>
      </trkpt>
      <trkpt lat="45.20026" lon="5.96392">
        <ele>1855</ele>
        <time>2026-07-07T14:41:25.000Z</time>
      </trkpt>
      <trkpt lat="45.20031" lon="5.96381">
        <ele>1852</ele>
        <time>2026-07-07T14:41:34.000Z</time>
      </trkpt>
      <trkpt lat="45.20037" lon="5.96369">
        <ele>1849</ele>
        <time>2026-07-07T14:42:17.000Z</time>
      </trkpt>
      <trkpt lat="45.20042" lon="5.96357">
        <ele>1847</ele>
        <time>2026-07-07T14:42:27.000Z</time>
      </trkpt>
      <trkpt lat="45.20047" lon="5.96346">
        <ele>1847</ele>
        <time>2026-07-07T14:42:35.000Z</time>
      </trkpt>
      <trkpt lat="45.20053" lon="5.96335">
        <ele>1848</ele>
        <time>2026-07-07T14:42:43.000Z</time>
      </trkpt>
      <trkpt lat="45.20058" lon="5.96325">
        <ele>1845</ele>
        <time>2026-07-07T14:42:52.000Z</time>
      </trkpt>
      <trkpt lat="45.20066" lon="5.96318">
        <ele>1844</ele>
        <time>2026-07-07T14:43:07.000Z</time>
      </trkpt>
      <trkpt lat="45.20076" lon="5.96312">
        <ele>1842</ele>
        <time>2026-07-07T14:43:18.000Z</time>
      </trkpt>
      <trkpt lat="45.20084" lon="5.96306">
        <ele>1840</ele>
        <time>2026-07-07T14:43:28.000Z</time>
      </trkpt>
      <trkpt lat="45.20091" lon="5.96297">
        <ele>1840</ele>
        <time>2026-07-07T14:43:40.000Z</time>
      </trkpt>
      <trkpt lat="45.20095" lon="5.96285">
        <ele>1837</ele>
        <time>2026-07-07T14:43:55.000Z</time>
      </trkpt>
      <trkpt lat="45.20104" lon="5.96282">
        <ele>1836</ele>
        <time>2026-07-07T14:44:03.000Z</time>
      </trkpt>
      <trkpt lat="45.20113" lon="5.96283">
        <ele>1835</ele>
        <time>2026-07-07T14:44:13.000Z</time>
      </trkpt>
      <trkpt lat="45.20123" lon="5.96286">
        <ele>1833</ele>
        <time>2026-07-07T14:44:24.000Z</time>
      </trkpt>
      <trkpt lat="45.20133" lon="5.96284">
        <ele>1830</ele>
        <time>2026-07-07T14:44:33.000Z</time>
      </trkpt>
      <trkpt lat="45.20142" lon="5.96287">
        <ele>1830</ele>
        <time>2026-07-07T14:44:43.000Z</time>
      </trkpt>
      <trkpt lat="45.20152" lon="5.96291">
        <ele>1828</ele>
        <time>2026-07-07T14:44:51.000Z</time>
      </trkpt>
      <trkpt lat="45.20159" lon="5.96301">
        <ele>1825</ele>
        <time>2026-07-07T14:44:59.000Z</time>
      </trkpt>
      <trkpt lat="45.20167" lon="5.96308">
        <ele>1826</ele>
        <time>2026-07-07T14:45:11.000Z</time>
      </trkpt>
      <trkpt lat="45.20177" lon="5.9631">
        <ele>1823</ele>
        <time>2026-07-07T14:45:24.000Z</time>
      </trkpt>
      <trkpt lat="45.20187" lon="5.9631">
        <ele>1821</ele>
        <time>2026-07-07T14:45:34.000Z</time>
      </trkpt>
      <trkpt lat="45.20195" lon="5.96306">
        <ele>1820</ele>
        <time>2026-07-07T14:45:43.000Z</time>
      </trkpt>
      <trkpt lat="45.20204" lon="5.96305">
        <ele>1818</ele>
        <time>2026-07-07T14:45:54.000Z</time>
      </trkpt>
      <trkpt lat="45.20213" lon="5.96303">
        <ele>1819</ele>
        <time>2026-07-07T14:46:04.000Z</time>
      </trkpt>
      <trkpt lat="45.20222" lon="5.96297">
        <ele>1815</ele>
        <time>2026-07-07T14:46:14.000Z</time>
      </trkpt>
      <trkpt lat="45.20232" lon="5.96295">
        <ele>1812</ele>
        <time>2026-07-07T14:46:24.000Z</time>
      </trkpt>
      <trkpt lat="45.20241" lon="5.96292">
        <ele>1810</ele>
        <time>2026-07-07T14:46:33.000Z</time>
      </trkpt>
      <trkpt lat="45.20251" lon="5.96293">
        <ele>1806</ele>
        <time>2026-07-07T14:46:42.000Z</time>
      </trkpt>
      <trkpt lat="45.2026" lon="5.96297">
        <ele>1803</ele>
        <time>2026-07-07T14:46:52.000Z</time>
      </trkpt>
      <trkpt lat="45.2027" lon="5.96299">
        <ele>1803</ele>
        <time>2026-07-07T14:47:05.000Z</time>
      </trkpt>
      <trkpt lat="45.20279" lon="5.96299">
        <ele>1802</ele>
        <time>2026-07-07T14:47:17.000Z</time>
      </trkpt>
      <trkpt lat="45.20287" lon="5.96303">
        <ele>1803</ele>
        <time>2026-07-07T14:47:27.000Z</time>
      </trkpt>
      <trkpt lat="45.20295" lon="5.9631">
        <ele>1800</ele>
        <time>2026-07-07T14:47:38.000Z</time>
      </trkpt>
      <trkpt lat="45.20304" lon="5.96317">
        <ele>1798</ele>
        <time>2026-07-07T14:47:48.000Z</time>
      </trkpt>
      <trkpt lat="45.20313" lon="5.96322">
        <ele>1796</ele>
        <time>2026-07-07T14:47:59.000Z</time>
      </trkpt>
      <trkpt lat="45.20322" lon="5.96327">
        <ele>1796</ele>
        <time>2026-07-07T14:48:08.000Z</time>
      </trkpt>
      <trkpt lat="45.20331" lon="5.96332">
        <ele>1795</ele>
        <time>2026-07-07T14:48:18.000Z</time>
      </trkpt>
      <trkpt lat="45.20341" lon="5.96337">
        <ele>1793</ele>
        <time>2026-07-07T14:48:27.000Z</time>
      </trkpt>
      <trkpt lat="45.2035" lon="5.9634">
        <ele>1790</ele>
        <time>2026-07-07T14:48:36.000Z</time>
      </trkpt>
      <trkpt lat="45.20359" lon="5.96344">
        <ele>1788</ele>
        <time>2026-07-07T14:48:44.000Z</time>
      </trkpt>
      <trkpt lat="45.20356" lon="5.9633">
        <ele>1785</ele>
        <time>2026-07-07T14:49:08.000Z</time>
      </trkpt>
      <trkpt lat="45.20348" lon="5.96322">
        <ele>1779</ele>
        <time>2026-07-07T14:49:20.000Z</time>
      </trkpt>
      <trkpt lat="45.20342" lon="5.96312">
        <ele>1784</ele>
        <time>2026-07-07T14:49:32.000Z</time>
      </trkpt>
      <trkpt lat="45.20335" lon="5.96302">
        <ele>1780</ele>
        <time>2026-07-07T14:49:44.000Z</time>
      </trkpt>
      <trkpt lat="45.20344" lon="5.96306">
        <ele>1777</ele>
        <time>2026-07-07T14:49:59.000Z</time>
      </trkpt>
      <trkpt lat="45.20353" lon="5.9631">
        <ele>1777</ele>
        <time>2026-07-07T14:50:08.000Z</time>
      </trkpt>
      <trkpt lat="45.20361" lon="5.96316">
        <ele>1776</ele>
        <time>2026-07-07T14:50:17.000Z</time>
      </trkpt>
      <trkpt lat="45.2037" lon="5.96317">
        <ele>1773</ele>
        <time>2026-07-07T14:50:27.000Z</time>
      </trkpt>
      <trkpt lat="45.20379" lon="5.96321">
        <ele>1769</ele>
        <time>2026-07-07T14:50:33.000Z</time>
      </trkpt>
      <trkpt lat="45.20388" lon="5.96323">
        <ele>1766</ele>
        <time>2026-07-07T14:50:41.000Z</time>
      </trkpt>
      <trkpt lat="45.20398" lon="5.96326">
        <ele>1766</ele>
        <time>2026-07-07T14:50:49.000Z</time>
      </trkpt>
      <trkpt lat="45.20407" lon="5.96326">
        <ele>1765</ele>
        <time>2026-07-07T14:50:57.000Z</time>
      </trkpt>
      <trkpt lat="45.20416" lon="5.96328">
        <ele>1764</ele>
        <time>2026-07-07T14:51:05.000Z</time>
      </trkpt>
      <trkpt lat="45.20413" lon="5.96316">
        <ele>1761</ele>
        <time>2026-07-07T14:52:18.000Z</time>
      </trkpt>
      <trkpt lat="45.20406" lon="5.96307">
        <ele>1758</ele>
        <time>2026-07-07T14:52:26.000Z</time>
      </trkpt>
      <trkpt lat="45.20399" lon="5.96298">
        <ele>1758</ele>
        <time>2026-07-07T14:52:35.000Z</time>
      </trkpt>
      <trkpt lat="45.2039" lon="5.96292">
        <ele>1756</ele>
        <time>2026-07-07T14:52:43.000Z</time>
      </trkpt>
      <trkpt lat="45.20382" lon="5.96285">
        <ele>1753</ele>
        <time>2026-07-07T14:52:51.000Z</time>
      </trkpt>
      <trkpt lat="45.20374" lon="5.96277">
        <ele>1751</ele>
        <time>2026-07-07T14:52:59.000Z</time>
      </trkpt>
      <trkpt lat="45.20367" lon="5.96268">
        <ele>1750</ele>
        <time>2026-07-07T14:53:08.000Z</time>
      </trkpt>
      <trkpt lat="45.2036" lon="5.9626">
        <ele>1750</ele>
        <time>2026-07-07T14:53:18.000Z</time>
      </trkpt>
      <trkpt lat="45.20355" lon="5.96249">
        <ele>1750</ele>
        <time>2026-07-07T14:53:29.000Z</time>
      </trkpt>
      <trkpt lat="45.20348" lon="5.9624">
        <ele>1748</ele>
        <time>2026-07-07T14:53:38.000Z</time>
      </trkpt>
      <trkpt lat="45.20341" lon="5.96231">
        <ele>1745</ele>
        <time>2026-07-07T14:53:48.000Z</time>
      </trkpt>
      <trkpt lat="45.20335" lon="5.96221">
        <ele>1745</ele>
        <time>2026-07-07T14:54:00.000Z</time>
      </trkpt>
      <trkpt lat="45.20327" lon="5.96213">
        <ele>1744</ele>
        <time>2026-07-07T14:54:15.000Z</time>
      </trkpt>
      <trkpt lat="45.20336" lon="5.96215">
        <ele>1737</ele>
        <time>2026-07-07T14:54:36.000Z</time>
      </trkpt>
      <trkpt lat="45.20346" lon="5.9622">
        <ele>1736</ele>
        <time>2026-07-07T14:54:46.000Z</time>
      </trkpt>
      <trkpt lat="45.20355" lon="5.96225">
        <ele>1733</ele>
        <time>2026-07-07T14:54:56.000Z</time>
      </trkpt>
      <trkpt lat="45.20364" lon="5.9623">
        <ele>1732</ele>
        <time>2026-07-07T14:55:06.000Z</time>
      </trkpt>
      <trkpt lat="45.20373" lon="5.96234">
        <ele>1733</ele>
        <time>2026-07-07T14:55:16.000Z</time>
      </trkpt>
      <trkpt lat="45.20383" lon="5.96234">
        <ele>1732</ele>
        <time>2026-07-07T14:55:23.000Z</time>
      </trkpt>
      <trkpt lat="45.20392" lon="5.96235">
        <ele>1728</ele>
        <time>2026-07-07T14:55:31.000Z</time>
      </trkpt>
      <trkpt lat="45.20401" lon="5.96235">
        <ele>1724</ele>
        <time>2026-07-07T14:55:40.000Z</time>
      </trkpt>
      <trkpt lat="45.20409" lon="5.96242">
        <ele>1720</ele>
        <time>2026-07-07T14:55:48.000Z</time>
      </trkpt>
      <trkpt lat="45.20418" lon="5.96246">
        <ele>1717</ele>
        <time>2026-07-07T14:55:57.000Z</time>
      </trkpt>
      <trkpt lat="45.20428" lon="5.96245">
        <ele>1718</ele>
        <time>2026-07-07T14:56:10.000Z</time>
      </trkpt>
      <trkpt lat="45.20437" lon="5.96249">
        <ele>1721</ele>
        <time>2026-07-07T14:56:19.000Z</time>
      </trkpt>
      <trkpt lat="45.20447" lon="5.96252">
        <ele>1720</ele>
        <time>2026-07-07T14:56:27.000Z</time>
      </trkpt>
      <trkpt lat="45.20457" lon="5.96252">
        <ele>1719</ele>
        <time>2026-07-07T14:56:35.000Z</time>
      </trkpt>
      <trkpt lat="45.20466" lon="5.96252">
        <ele>1716</ele>
        <time>2026-07-07T14:56:51.000Z</time>
      </trkpt>
      <trkpt lat="45.20475" lon="5.96256">
        <ele>1714</ele>
        <time>2026-07-07T14:57:07.000Z</time>
      </trkpt>
      <trkpt lat="45.20483" lon="5.96263">
        <ele>1710</ele>
        <time>2026-07-07T14:57:18.000Z</time>
      </trkpt>
      <trkpt lat="45.20487" lon="5.96275">
        <ele>1707</ele>
        <time>2026-07-07T14:57:29.000Z</time>
      </trkpt>
      <trkpt lat="45.20487" lon="5.96288">
        <ele>1705</ele>
        <time>2026-07-07T14:57:41.000Z</time>
      </trkpt>
      <trkpt lat="45.20488" lon="5.96301">
        <ele>1702</ele>
        <time>2026-07-07T14:57:53.000Z</time>
      </trkpt>
      <trkpt lat="45.20491" lon="5.96314">
        <ele>1702</ele>
        <time>2026-07-07T14:58:01.000Z</time>
      </trkpt>
      <trkpt lat="45.20492" lon="5.96328">
        <ele>1700</ele>
        <time>2026-07-07T14:58:12.000Z</time>
      </trkpt>
      <trkpt lat="45.20493" lon="5.96341">
        <ele>1697</ele>
        <time>2026-07-07T14:58:23.000Z</time>
      </trkpt>
      <trkpt lat="45.20498" lon="5.96354">
        <ele>1695</ele>
        <time>2026-07-07T14:58:34.000Z</time>
      </trkpt>
      <trkpt lat="45.20503" lon="5.96341">
        <ele>1694</ele>
        <time>2026-07-07T14:58:56.000Z</time>
      </trkpt>
      <trkpt lat="45.20512" lon="5.96354">
        <ele>1686</ele>
        <time>2026-07-07T14:59:36.000Z</time>
      </trkpt>
      <trkpt lat="45.20517" lon="5.96366">
        <ele>1683</ele>
        <time>2026-07-07T14:59:48.000Z</time>
      </trkpt>
      <trkpt lat="45.20517" lon="5.96353">
        <ele>1680</ele>
        <time>2026-07-07T15:00:15.000Z</time>
      </trkpt>
      <trkpt lat="45.20525" lon="5.96359">
        <ele>1676</ele>
        <time>2026-07-07T15:00:33.000Z</time>
      </trkpt>
      <trkpt lat="45.20529" lon="5.96372">
        <ele>1673</ele>
        <time>2026-07-07T15:00:44.000Z</time>
      </trkpt>
      <trkpt lat="45.20531" lon="5.96384">
        <ele>1670</ele>
        <time>2026-07-07T15:00:54.000Z</time>
      </trkpt>
      <trkpt lat="45.20532" lon="5.96398">
        <ele>1669</ele>
        <time>2026-07-07T15:01:05.000Z</time>
      </trkpt>
      <trkpt lat="45.20529" lon="5.96411">
        <ele>1668</ele>
        <time>2026-07-07T15:01:16.000Z</time>
      </trkpt>
      <trkpt lat="45.20531" lon="5.96425">
        <ele>1667</ele>
        <time>2026-07-07T15:01:27.000Z</time>
      </trkpt>
      <trkpt lat="45.20534" lon="5.96439">
        <ele>1665</ele>
        <time>2026-07-07T15:01:36.000Z</time>
      </trkpt>
      <trkpt lat="45.20539" lon="5.96449">
        <ele>1664</ele>
        <time>2026-07-07T15:01:45.000Z</time>
      </trkpt>
      <trkpt lat="45.20545" lon="5.96459">
        <ele>1663</ele>
        <time>2026-07-07T15:01:54.000Z</time>
      </trkpt>
      <trkpt lat="45.20553" lon="5.96467">
        <ele>1661</ele>
        <time>2026-07-07T15:02:02.000Z</time>
      </trkpt>
      <trkpt lat="45.20558" lon="5.96478">
        <ele>1661</ele>
        <time>2026-07-07T15:02:13.000Z</time>
      </trkpt>
      <trkpt lat="45.20564" lon="5.96488">
        <ele>1660</ele>
        <time>2026-07-07T15:02:23.000Z</time>
      </trkpt>
      <trkpt lat="45.20573" lon="5.96492">
        <ele>1657</ele>
        <time>2026-07-07T15:02:33.000Z</time>
      </trkpt>
      <trkpt lat="45.2058" lon="5.965">
        <ele>1656</ele>
        <time>2026-07-07T15:02:41.000Z</time>
      </trkpt>
      <trkpt lat="45.20588" lon="5.96509">
        <ele>1654</ele>
        <time>2026-07-07T15:02:49.000Z</time>
      </trkpt>
      <trkpt lat="45.20594" lon="5.96519">
        <ele>1652</ele>
        <time>2026-07-07T15:03:01.000Z</time>
      </trkpt>
      <trkpt lat="45.20599" lon="5.9653">
        <ele>1651</ele>
        <time>2026-07-07T15:03:11.000Z</time>
      </trkpt>
      <trkpt lat="45.20606" lon="5.96539">
        <ele>1650</ele>
        <time>2026-07-07T15:03:23.000Z</time>
      </trkpt>
      <trkpt lat="45.20614" lon="5.96546">
        <ele>1653</ele>
        <time>2026-07-07T15:03:54.000Z</time>
      </trkpt>
      <trkpt lat="45.20623" lon="5.96544">
        <ele>1660</ele>
        <time>2026-07-07T15:08:23.000Z</time>
      </trkpt>
      <trkpt lat="45.20632" lon="5.96549">
        <ele>1652</ele>
        <time>2026-07-07T15:13:06.000Z</time>
      </trkpt>
      <trkpt lat="45.20641" lon="5.96551">
        <ele>1650</ele>
        <time>2026-07-07T15:13:16.000Z</time>
      </trkpt>
      <trkpt lat="45.20651" lon="5.96552">
        <ele>1647</ele>
        <time>2026-07-07T15:13:23.000Z</time>
      </trkpt>
      <trkpt lat="45.2066" lon="5.96556">
        <ele>1647</ele>
        <time>2026-07-07T15:13:32.000Z</time>
      </trkpt>
      <trkpt lat="45.20669" lon="5.96553">
        <ele>1645</ele>
        <time>2026-07-07T15:13:39.000Z</time>
      </trkpt>
      <trkpt lat="45.20678" lon="5.96551">
        <ele>1637</ele>
        <time>2026-07-07T15:14:46.000Z</time>
      </trkpt>
      <trkpt lat="45.20673" lon="5.96538">
        <ele>1635</ele>
        <time>2026-07-07T15:15:26.000Z</time>
      </trkpt>
      <trkpt lat="45.20666" lon="5.96529">
        <ele>1635</ele>
        <time>2026-07-07T15:15:34.000Z</time>
      </trkpt>
      <trkpt lat="45.20658" lon="5.96524">
        <ele>1635</ele>
        <time>2026-07-07T15:15:42.000Z</time>
      </trkpt>
      <trkpt lat="45.20649" lon="5.96522">
        <ele>1632</ele>
        <time>2026-07-07T15:15:52.000Z</time>
      </trkpt>
      <trkpt lat="45.20656" lon="5.96515">
        <ele>1631</ele>
        <time>2026-07-07T15:16:30.000Z</time>
      </trkpt>
      <trkpt lat="45.20663" lon="5.96524">
        <ele>1631</ele>
        <time>2026-07-07T15:16:41.000Z</time>
      </trkpt>
      <trkpt lat="45.20661" lon="5.96509">
        <ele>1623</ele>
        <time>2026-07-07T15:17:01.000Z</time>
      </trkpt>
      <trkpt lat="45.20654" lon="5.965">
        <ele>1619</ele>
        <time>2026-07-07T15:17:11.000Z</time>
      </trkpt>
      <trkpt lat="45.20663" lon="5.96501">
        <ele>1619</ele>
        <time>2026-07-07T15:17:27.000Z</time>
      </trkpt>
      <trkpt lat="45.20673" lon="5.965">
        <ele>1614</ele>
        <time>2026-07-07T15:17:44.000Z</time>
      </trkpt>
      <trkpt lat="45.20666" lon="5.9649">
        <ele>1610</ele>
        <time>2026-07-07T15:18:00.000Z</time>
      </trkpt>
      <trkpt lat="45.2066" lon="5.96481">
        <ele>1611</ele>
        <time>2026-07-07T15:18:11.000Z</time>
      </trkpt>
      <trkpt lat="45.20657" lon="5.96469">
        <ele>1610</ele>
        <time>2026-07-07T15:18:28.000Z</time>
      </trkpt>
      <trkpt lat="45.20656" lon="5.96455">
        <ele>1607</ele>
        <time>2026-07-07T15:18:41.000Z</time>
      </trkpt>
      <trkpt lat="45.20658" lon="5.96442">
        <ele>1603</ele>
        <time>2026-07-07T15:18:54.000Z</time>
      </trkpt>
      <trkpt lat="45.2066" lon="5.96429">
        <ele>1601</ele>
        <time>2026-07-07T15:19:07.000Z</time>
      </trkpt>
      <trkpt lat="45.20662" lon="5.96442">
        <ele>1598</ele>
        <time>2026-07-07T15:19:30.000Z</time>
      </trkpt>
      <trkpt lat="45.20665" lon="5.96455">
        <ele>1598</ele>
        <time>2026-07-07T15:19:43.000Z</time>
      </trkpt>
      <trkpt lat="45.20673" lon="5.96459">
        <ele>1598</ele>
        <time>2026-07-07T15:19:55.000Z</time>
      </trkpt>
      <trkpt lat="45.20684" lon="5.96461">
        <ele>1596</ele>
        <time>2026-07-07T15:19:59.000Z</time>
      </trkpt>
      <trkpt lat="45.20694" lon="5.96455">
        <ele>1589</ele>
        <time>2026-07-07T15:20:31.000Z</time>
      </trkpt>
      <trkpt lat="45.20702" lon="5.96448">
        <ele>1586</ele>
        <time>2026-07-07T15:20:45.000Z</time>
      </trkpt>
      <trkpt lat="45.20704" lon="5.96436">
        <ele>1584</ele>
        <time>2026-07-07T15:20:54.000Z</time>
      </trkpt>
      <trkpt lat="45.20713" lon="5.96443">
        <ele>1579</ele>
        <time>2026-07-07T15:21:22.000Z</time>
      </trkpt>
      <trkpt lat="45.20722" lon="5.96448">
        <ele>1574</ele>
        <time>2026-07-07T15:21:34.000Z</time>
      </trkpt>
      <trkpt lat="45.20721" lon="5.96435">
        <ele>1572</ele>
        <time>2026-07-07T15:21:49.000Z</time>
      </trkpt>
      <trkpt lat="45.2073" lon="5.9644">
        <ele>1565</ele>
        <time>2026-07-07T15:22:23.000Z</time>
      </trkpt>
      <trkpt lat="45.20735" lon="5.96451">
        <ele>1563</ele>
        <time>2026-07-07T15:22:38.000Z</time>
      </trkpt>
      <trkpt lat="45.20742" lon="5.96459">
        <ele>1564</ele>
        <time>2026-07-07T15:22:59.000Z</time>
      </trkpt>
      <trkpt lat="45.20745" lon="5.96472">
        <ele>1564</ele>
        <time>2026-07-07T15:23:05.000Z</time>
      </trkpt>
      <trkpt lat="45.20752" lon="5.96464">
        <ele>1560</ele>
        <time>2026-07-07T15:23:20.000Z</time>
      </trkpt>
      <trkpt lat="45.20752" lon="5.96451">
        <ele>1557</ele>
        <time>2026-07-07T15:23:33.000Z</time>
      </trkpt>
      <trkpt lat="45.20748" lon="5.96438">
        <ele>1551</ele>
        <time>2026-07-07T15:23:52.000Z</time>
      </trkpt>
      <trkpt lat="45.20747" lon="5.96423">
        <ele>1547</ele>
        <time>2026-07-07T15:23:58.000Z</time>
      </trkpt>
      <trkpt lat="45.20753" lon="5.96435">
        <ele>1546</ele>
        <time>2026-07-07T15:24:12.000Z</time>
      </trkpt>
      <trkpt lat="45.20761" lon="5.96442">
        <ele>1545</ele>
        <time>2026-07-07T15:24:18.000Z</time>
      </trkpt>
      <trkpt lat="45.20769" lon="5.96449">
        <ele>1545</ele>
        <time>2026-07-07T15:24:26.000Z</time>
      </trkpt>
      <trkpt lat="45.20771" lon="5.96464">
        <ele>1541</ele>
        <time>2026-07-07T15:24:42.000Z</time>
      </trkpt>
      <trkpt lat="45.2078" lon="5.96459">
        <ele>1544</ele>
        <time>2026-07-07T15:25:02.000Z</time>
      </trkpt>
      <trkpt lat="45.20777" lon="5.96447">
        <ele>1541</ele>
        <time>2026-07-07T15:25:11.000Z</time>
      </trkpt>
      <trkpt lat="45.20778" lon="5.96434">
        <ele>1537</ele>
        <time>2026-07-07T15:25:24.000Z</time>
      </trkpt>
      <trkpt lat="45.20773" lon="5.96423">
        <ele>1535</ele>
        <time>2026-07-07T15:25:36.000Z</time>
      </trkpt>
      <trkpt lat="45.20781" lon="5.96432">
        <ele>1526</ele>
        <time>2026-07-07T15:26:35.000Z</time>
      </trkpt>
      <trkpt lat="45.2079" lon="5.96436">
        <ele>1527</ele>
        <time>2026-07-07T15:26:43.000Z</time>
      </trkpt>
      <trkpt lat="45.20796" lon="5.96425">
        <ele>1525</ele>
        <time>2026-07-07T15:26:52.000Z</time>
      </trkpt>
      <trkpt lat="45.20792" lon="5.96413">
        <ele>1522</ele>
        <time>2026-07-07T15:27:03.000Z</time>
      </trkpt>
      <trkpt lat="45.20787" lon="5.96402">
        <ele>1521</ele>
        <time>2026-07-07T15:27:12.000Z</time>
      </trkpt>
      <trkpt lat="45.20782" lon="5.9639">
        <ele>1519</ele>
        <time>2026-07-07T15:27:30.000Z</time>
      </trkpt>
      <trkpt lat="45.20791" lon="5.96389">
        <ele>1517</ele>
        <time>2026-07-07T15:28:05.000Z</time>
      </trkpt>
      <trkpt lat="45.208" lon="5.96395">
        <ele>1514</ele>
        <time>2026-07-07T15:28:16.000Z</time>
      </trkpt>
      <trkpt lat="45.20809" lon="5.96401">
        <ele>1512</ele>
        <time>2026-07-07T15:28:28.000Z</time>
      </trkpt>
      <trkpt lat="45.20818" lon="5.96404">
        <ele>1511</ele>
        <time>2026-07-07T15:28:40.000Z</time>
      </trkpt>
      <trkpt lat="45.20828" lon="5.96403">
        <ele>1509</ele>
        <time>2026-07-07T15:28:50.000Z</time>
      </trkpt>
      <trkpt lat="45.20837" lon="5.96401">
        <ele>1507</ele>
        <time>2026-07-07T15:29:03.000Z</time>
      </trkpt>
      <trkpt lat="45.20846" lon="5.96398">
        <ele>1506</ele>
        <time>2026-07-07T15:29:11.000Z</time>
      </trkpt>
      <trkpt lat="45.20854" lon="5.96393">
        <ele>1505</ele>
        <time>2026-07-07T15:29:21.000Z</time>
      </trkpt>
      <trkpt lat="45.20862" lon="5.96386">
        <ele>1500</ele>
        <time>2026-07-07T15:29:33.000Z</time>
      </trkpt>
      <trkpt lat="45.20869" lon="5.96377">
        <ele>1497</ele>
        <time>2026-07-07T15:29:46.000Z</time>
      </trkpt>
      <trkpt lat="45.20877" lon="5.9637">
        <ele>1494</ele>
        <time>2026-07-07T15:29:54.000Z</time>
      </trkpt>
      <trkpt lat="45.20888" lon="5.96367">
        <ele>1492</ele>
        <time>2026-07-07T15:30:02.000Z</time>
      </trkpt>
      <trkpt lat="45.20896" lon="5.9636">
        <ele>1489</ele>
        <time>2026-07-07T15:30:28.000Z</time>
      </trkpt>
      <trkpt lat="45.20905" lon="5.96359">
        <ele>1489</ele>
        <time>2026-07-07T15:30:37.000Z</time>
      </trkpt>
      <trkpt lat="45.20913" lon="5.96351">
        <ele>1488</ele>
        <time>2026-07-07T15:30:50.000Z</time>
      </trkpt>
      <trkpt lat="45.20918" lon="5.96341">
        <ele>1484</ele>
        <time>2026-07-07T15:31:08.000Z</time>
      </trkpt>
      <trkpt lat="45.20925" lon="5.96331">
        <ele>1483</ele>
        <time>2026-07-07T15:31:20.000Z</time>
      </trkpt>
      <trkpt lat="45.20932" lon="5.96322">
        <ele>1482</ele>
        <time>2026-07-07T15:31:33.000Z</time>
      </trkpt>
      <trkpt lat="45.20941" lon="5.96318">
        <ele>1478</ele>
        <time>2026-07-07T15:31:49.000Z</time>
      </trkpt>
      <trkpt lat="45.20952" lon="5.96314">
        <ele>1478</ele>
        <time>2026-07-07T15:32:02.000Z</time>
      </trkpt>
      <trkpt lat="45.20961" lon="5.96308">
        <ele>1478</ele>
        <time>2026-07-07T15:32:20.000Z</time>
      </trkpt>
      <trkpt lat="45.20969" lon="5.96304">
        <ele>1481</ele>
        <time>2026-07-07T15:32:31.000Z</time>
      </trkpt>
      <trkpt lat="45.20978" lon="5.963">
        <ele>1484</ele>
        <time>2026-07-07T15:32:42.000Z</time>
      </trkpt>
      <trkpt lat="45.20987" lon="5.96295">
        <ele>1481</ele>
        <time>2026-07-07T15:33:03.000Z</time>
      </trkpt>
      <trkpt lat="45.20996" lon="5.96291">
        <ele>1478</ele>
        <time>2026-07-07T15:33:20.000Z</time>
      </trkpt>
      <trkpt lat="45.21005" lon="5.96287">
        <ele>1474</ele>
        <time>2026-07-07T15:33:29.000Z</time>
      </trkpt>
      <trkpt lat="45.21013" lon="5.96283">
        <ele>1472</ele>
        <time>2026-07-07T15:33:45.000Z</time>
      </trkpt>
      <trkpt lat="45.21023" lon="5.96279">
        <ele>1470</ele>
        <time>2026-07-07T15:34:01.000Z</time>
      </trkpt>
      <trkpt lat="45.21032" lon="5.96274">
        <ele>1469</ele>
        <time>2026-07-07T15:34:13.000Z</time>
      </trkpt>
      <trkpt lat="45.2104" lon="5.96271">
        <ele>1466</ele>
        <time>2026-07-07T15:34:55.000Z</time>
      </trkpt>
      <trkpt lat="45.21049" lon="5.96267">
        <ele>1463</ele>
        <time>2026-07-07T15:35:36.000Z</time>
      </trkpt>
      <trkpt lat="45.21058" lon="5.96263">
        <ele>1462</ele>
        <time>2026-07-07T15:35:54.000Z</time>
      </trkpt>
      <trkpt lat="45.21067" lon="5.96259">
        <ele>1463</ele>
        <time>2026-07-07T15:36:14.000Z</time>
      </trkpt>
      <trkpt lat="45.21076" lon="5.96254">
        <ele>1468</ele>
        <time>2026-07-07T15:36:41.000Z</time>
      </trkpt>
      <trkpt lat="45.21085" lon="5.96248">
        <ele>1465</ele>
        <time>2026-07-07T15:36:52.000Z</time>
      </trkpt>
      <trkpt lat="45.21093" lon="5.96242">
        <ele>1463</ele>
        <time>2026-07-07T15:37:09.000Z</time>
      </trkpt>
      <trkpt lat="45.21101" lon="5.96235">
        <ele>1464</ele>
        <time>2026-07-07T15:37:27.000Z</time>
      </trkpt>
      <trkpt lat="45.21109" lon="5.96228">
        <ele>1462</ele>
        <time>2026-07-07T15:37:50.000Z</time>
      </trkpt>
      <trkpt lat="45.21117" lon="5.96221">
        <ele>1461</ele>
        <time>2026-07-07T15:38:02.000Z</time>
      </trkpt>
      <trkpt lat="45.21125" lon="5.96213">
        <ele>1460</ele>
        <time>2026-07-07T15:38:15.000Z</time>
      </trkpt>
      <trkpt lat="45.2113" lon="5.96203">
        <ele>1457</ele>
        <time>2026-07-07T15:38:48.000Z</time>
      </trkpt>
      <trkpt lat="45.21139" lon="5.96198">
        <ele>1456</ele>
        <time>2026-07-07T15:39:13.000Z</time>
      </trkpt>
      <trkpt lat="45.21147" lon="5.96191">
        <ele>1456</ele>
        <time>2026-07-07T15:39:30.000Z</time>
      </trkpt>
      <trkpt lat="45.21155" lon="5.96182">
        <ele>1455</ele>
        <time>2026-07-07T15:39:51.000Z</time>
      </trkpt>
      <trkpt lat="45.21162" lon="5.96174">
        <ele>1452</ele>
        <time>2026-07-07T15:40:12.000Z</time>
      </trkpt>
      <trkpt lat="45.21169" lon="5.96165">
        <ele>1452</ele>
        <time>2026-07-07T15:40:22.000Z</time>
      </trkpt>
      <trkpt lat="45.21177" lon="5.96156">
        <ele>1451</ele>
        <time>2026-07-07T15:40:32.000Z</time>
      </trkpt>
      <trkpt lat="45.21185" lon="5.96151">
        <ele>1450</ele>
        <time>2026-07-07T15:40:51.000Z</time>
      </trkpt>
      <trkpt lat="45.21192" lon="5.96142">
        <ele>1450</ele>
        <time>2026-07-07T15:41:00.000Z</time>
      </trkpt>
      <trkpt lat="45.212" lon="5.96136">
        <ele>1445</ele>
        <time>2026-07-07T15:41:13.000Z</time>
      </trkpt>
      <trkpt lat="45.21209" lon="5.96132">
        <ele>1445</ele>
        <time>2026-07-07T15:41:23.000Z</time>
      </trkpt>
      <trkpt lat="45.21218" lon="5.96129">
        <ele>1442</ele>
        <time>2026-07-07T15:41:41.000Z</time>
      </trkpt>
      <trkpt lat="45.21228" lon="5.9613">
        <ele>1445</ele>
        <time>2026-07-07T15:41:56.000Z</time>
      </trkpt>
      <trkpt lat="45.21237" lon="5.96126">
        <ele>1445</ele>
        <time>2026-07-07T15:42:09.000Z</time>
      </trkpt>
      <trkpt lat="45.21246" lon="5.96126">
        <ele>1443</ele>
        <time>2026-07-07T15:42:31.000Z</time>
      </trkpt>
      <trkpt lat="45.21256" lon="5.96127">
        <ele>1445</ele>
        <time>2026-07-07T15:42:41.000Z</time>
      </trkpt>
      <trkpt lat="45.21266" lon="5.96124">
        <ele>1442</ele>
        <time>2026-07-07T15:42:51.000Z</time>
      </trkpt>
      <trkpt lat="45.21275" lon="5.96122">
        <ele>1442</ele>
        <time>2026-07-07T15:43:06.000Z</time>
      </trkpt>
      <trkpt lat="45.21284" lon="5.96118">
        <ele>1441</ele>
        <time>2026-07-07T15:43:23.000Z</time>
      </trkpt>
      <trkpt lat="45.21292" lon="5.96113">
        <ele>1441</ele>
        <time>2026-07-07T15:43:33.000Z</time>
      </trkpt>
      <trkpt lat="45.21301" lon="5.96107">
        <ele>1439</ele>
        <time>2026-07-07T15:43:49.000Z</time>
      </trkpt>
      <trkpt lat="45.21309" lon="5.961">
        <ele>1437</ele>
        <time>2026-07-07T15:44:01.000Z</time>
      </trkpt>
      <trkpt lat="45.21317" lon="5.96092">
        <ele>1435</ele>
        <time>2026-07-07T15:44:13.000Z</time>
      </trkpt>
      <trkpt lat="45.21326" lon="5.96086">
        <ele>1433</ele>
        <time>2026-07-07T15:44:23.000Z</time>
      </trkpt>
      <trkpt lat="45.21336" lon="5.96083">
        <ele>1432</ele>
        <time>2026-07-07T15:44:33.000Z</time>
      </trkpt>
      <trkpt lat="45.21345" lon="5.96085">
        <ele>1428</ele>
        <time>2026-07-07T15:44:45.000Z</time>
      </trkpt>
      <trkpt lat="45.21354" lon="5.96085">
        <ele>1429</ele>
        <time>2026-07-07T15:44:55.000Z</time>
      </trkpt>
      <trkpt lat="45.21363" lon="5.9609">
        <ele>1426</ele>
        <time>2026-07-07T15:45:06.000Z</time>
      </trkpt>
      <trkpt lat="45.21373" lon="5.96094">
        <ele>1423</ele>
        <time>2026-07-07T15:45:23.000Z</time>
      </trkpt>
      <trkpt lat="45.21382" lon="5.96096">
        <ele>1424</ele>
        <time>2026-07-07T15:45:33.000Z</time>
      </trkpt>
      <trkpt lat="45.21391" lon="5.96099">
        <ele>1427</ele>
        <time>2026-07-07T15:45:49.000Z</time>
      </trkpt>
      <trkpt lat="45.21401" lon="5.96101">
        <ele>1424</ele>
        <time>2026-07-07T15:46:05.000Z</time>
      </trkpt>
      <trkpt lat="45.2141" lon="5.96102">
        <ele>1424</ele>
        <time>2026-07-07T15:46:17.000Z</time>
      </trkpt>
      <trkpt lat="45.21419" lon="5.96102">
        <ele>1423</ele>
        <time>2026-07-07T15:46:32.000Z</time>
      </trkpt>
      <trkpt lat="45.21428" lon="5.96099">
        <ele>1422</ele>
        <time>2026-07-07T15:46:48.000Z</time>
      </trkpt>
      <trkpt lat="45.21437" lon="5.96096">
        <ele>1420</ele>
        <time>2026-07-07T15:46:58.000Z</time>
      </trkpt>
      <trkpt lat="45.21448" lon="5.96092">
        <ele>1420</ele>
        <time>2026-07-07T15:47:10.000Z</time>
      </trkpt>
      <trkpt lat="45.21456" lon="5.96085">
        <ele>1417</ele>
        <time>2026-07-07T15:47:19.000Z</time>
      </trkpt>
      <trkpt lat="45.21467" lon="5.96085">
        <ele>1415</ele>
        <time>2026-07-07T15:47:33.000Z</time>
      </trkpt>
      <trkpt lat="45.21476" lon="5.96082">
        <ele>1415</ele>
        <time>2026-07-07T15:47:51.000Z</time>
      </trkpt>
      <trkpt lat="45.21486" lon="5.96081">
        <ele>1414</ele>
        <time>2026-07-07T15:48:03.000Z</time>
      </trkpt>
      <trkpt lat="45.21495" lon="5.96078">
        <ele>1413</ele>
        <time>2026-07-07T15:48:12.000Z</time>
      </trkpt>
      <trkpt lat="45.21504" lon="5.96075">
        <ele>1411</ele>
        <time>2026-07-07T15:48:29.000Z</time>
      </trkpt>
      <trkpt lat="45.21513" lon="5.96072">
        <ele>1411</ele>
        <time>2026-07-07T15:48:40.000Z</time>
      </trkpt>
      <trkpt lat="45.21523" lon="5.96069">
        <ele>1409</ele>
        <time>2026-07-07T15:49:00.000Z</time>
      </trkpt>
      <trkpt lat="45.21531" lon="5.96065">
        <ele>1408</ele>
        <time>2026-07-07T15:49:14.000Z</time>
      </trkpt>
      <trkpt lat="45.2154" lon="5.96061">
        <ele>1410</ele>
        <time>2026-07-07T15:49:30.000Z</time>
      </trkpt>
      <trkpt lat="45.21549" lon="5.96057">
        <ele>1407</ele>
        <time>2026-07-07T15:49:46.000Z</time>
      </trkpt>
      <trkpt lat="45.21557" lon="5.96052">
        <ele>1407</ele>
        <time>2026-07-07T15:49:57.000Z</time>
      </trkpt>
      <trkpt lat="45.21566" lon="5.96047">
        <ele>1409</ele>
        <time>2026-07-07T15:50:12.000Z</time>
      </trkpt>
      <trkpt lat="45.21574" lon="5.96041">
        <ele>1406</ele>
        <time>2026-07-07T15:50:24.000Z</time>
      </trkpt>
      <trkpt lat="45.21583" lon="5.96039">
        <ele>1406</ele>
        <time>2026-07-07T15:50:36.000Z</time>
      </trkpt>
      <trkpt lat="45.21593" lon="5.96034">
        <ele>1405</ele>
        <time>2026-07-07T15:50:50.000Z</time>
      </trkpt>
      <trkpt lat="45.21601" lon="5.96029">
        <ele>1407</ele>
        <time>2026-07-07T15:51:00.000Z</time>
      </trkpt>
      <trkpt lat="45.21611" lon="5.96025">
        <ele>1405</ele>
        <time>2026-07-07T15:51:12.000Z</time>
      </trkpt>
      <trkpt lat="45.21621" lon="5.96022">
        <ele>1406</ele>
        <time>2026-07-07T15:51:23.000Z</time>
      </trkpt>
      <trkpt lat="45.2163" lon="5.96019">
        <ele>1403</ele>
        <time>2026-07-07T15:51:37.000Z</time>
      </trkpt>
      <trkpt lat="45.2164" lon="5.96017">
        <ele>1403</ele>
        <time>2026-07-07T15:51:49.000Z</time>
      </trkpt>
      <trkpt lat="45.21649" lon="5.96014">
        <ele>1406</ele>
        <time>2026-07-07T15:52:03.000Z</time>
      </trkpt>
      <trkpt lat="45.21658" lon="5.96009">
        <ele>1407</ele>
        <time>2026-07-07T15:52:19.000Z</time>
      </trkpt>
      <trkpt lat="45.21667" lon="5.96005">
        <ele>1406</ele>
        <time>2026-07-07T15:52:31.000Z</time>
      </trkpt>
      <trkpt lat="45.21676" lon="5.96002">
        <ele>1403</ele>
        <time>2026-07-07T15:52:44.000Z</time>
      </trkpt>
      <trkpt lat="45.21685" lon="5.95998">
        <ele>1403</ele>
        <time>2026-07-07T15:52:51.000Z</time>
      </trkpt>
      <trkpt lat="45.21694" lon="5.95994">
        <ele>1403</ele>
        <time>2026-07-07T15:53:04.000Z</time>
      </trkpt>
      <trkpt lat="45.21703" lon="5.95989">
        <ele>1402</ele>
        <time>2026-07-07T15:53:14.000Z</time>
      </trkpt>
      <trkpt lat="45.21713" lon="5.95985">
        <ele>1401</ele>
        <time>2026-07-07T15:53:22.000Z</time>
      </trkpt>
      <trkpt lat="45.21721" lon="5.9598">
        <ele>1401</ele>
        <time>2026-07-07T15:53:37.000Z</time>
      </trkpt>
      <trkpt lat="45.2173" lon="5.95974">
        <ele>1399</ele>
        <time>2026-07-07T15:53:48.000Z</time>
      </trkpt>
      <trkpt lat="45.21739" lon="5.95972">
        <ele>1399</ele>
        <time>2026-07-07T15:53:57.000Z</time>
      </trkpt>
      <trkpt lat="45.21748" lon="5.95967">
        <ele>1399</ele>
        <time>2026-07-07T15:54:04.000Z</time>
      </trkpt>
      <trkpt lat="45.21756" lon="5.95958">
        <ele>1395</ele>
        <time>2026-07-07T15:54:14.000Z</time>
      </trkpt>
      <trkpt lat="45.21763" lon="5.95949">
        <ele>1395</ele>
        <time>2026-07-07T15:54:26.000Z</time>
      </trkpt>
      <trkpt lat="45.21773" lon="5.95944">
        <ele>1393</ele>
        <time>2026-07-07T15:55:14.000Z</time>
      </trkpt>
      <trkpt lat="45.21781" lon="5.95937">
        <ele>1393</ele>
        <time>2026-07-07T15:55:28.000Z</time>
      </trkpt>
      <trkpt lat="45.2179" lon="5.95932">
        <ele>1395</ele>
        <time>2026-07-07T15:55:35.000Z</time>
      </trkpt>
      <trkpt lat="45.21795" lon="5.95922">
        <ele>1394</ele>
        <time>2026-07-07T15:55:48.000Z</time>
      </trkpt>
      <trkpt lat="45.21803" lon="5.95914">
        <ele>1393</ele>
        <time>2026-07-07T15:55:57.000Z</time>
      </trkpt>
      <trkpt lat="45.2181" lon="5.95905">
        <ele>1392</ele>
        <time>2026-07-07T15:56:06.000Z</time>
      </trkpt>
      <trkpt lat="45.21817" lon="5.95896">
        <ele>1391</ele>
        <time>2026-07-07T15:56:15.000Z</time>
      </trkpt>
      <trkpt lat="45.21825" lon="5.9589">
        <ele>1391</ele>
        <time>2026-07-07T15:56:25.000Z</time>
      </trkpt>
      <trkpt lat="45.21835" lon="5.95885">
        <ele>1391</ele>
        <time>2026-07-07T15:56:34.000Z</time>
      </trkpt>
      <trkpt lat="45.21843" lon="5.95878">
        <ele>1390</ele>
        <time>2026-07-07T15:56:44.000Z</time>
      </trkpt>
      <trkpt lat="45.21851" lon="5.95872">
        <ele>1390</ele>
        <time>2026-07-07T15:56:55.000Z</time>
      </trkpt>
      <trkpt lat="45.2186" lon="5.95874">
        <ele>1389</ele>
        <time>2026-07-07T15:57:09.000Z</time>
      </trkpt>
      <trkpt lat="45.2187" lon="5.95871">
        <ele>1391</ele>
        <time>2026-07-07T15:57:26.000Z</time>
      </trkpt>
      <trkpt lat="45.21877" lon="5.95864">
        <ele>1391</ele>
        <time>2026-07-07T15:57:37.000Z</time>
      </trkpt>
      <trkpt lat="45.21886" lon="5.95861">
        <ele>1392</ele>
        <time>2026-07-07T15:57:50.000Z</time>
      </trkpt>
      <trkpt lat="45.21893" lon="5.95852">
        <ele>1392</ele>
        <time>2026-07-07T15:58:03.000Z</time>
      </trkpt>
      <trkpt lat="45.21901" lon="5.95847">
        <ele>1394</ele>
        <time>2026-07-07T15:58:21.000Z</time>
      </trkpt>
      <trkpt lat="45.21908" lon="5.95838">
        <ele>1392</ele>
        <time>2026-07-07T15:58:43.000Z</time>
      </trkpt>
      <trkpt lat="45.21912" lon="5.95823">
        <ele>1390</ele>
        <time>2026-07-07T15:58:48.000Z</time>
      </trkpt>
      <trkpt lat="45.21917" lon="5.95812">
        <ele>1387</ele>
        <time>2026-07-07T15:58:59.000Z</time>
      </trkpt>
      <trkpt lat="45.21922" lon="5.95801">
        <ele>1387</ele>
        <time>2026-07-07T15:59:09.000Z</time>
      </trkpt>
      <trkpt lat="45.21925" lon="5.95788">
        <ele>1382</ele>
        <time>2026-07-07T15:59:22.000Z</time>
      </trkpt>
      <trkpt lat="45.21928" lon="5.95776">
        <ele>1380</ele>
        <time>2026-07-07T16:00:03.000Z</time>
      </trkpt>
      <trkpt lat="45.21934" lon="5.95765">
        <ele>1377</ele>
        <time>2026-07-07T16:00:20.000Z</time>
      </trkpt>
      <trkpt lat="45.2194" lon="5.95755">
        <ele>1376</ele>
        <time>2026-07-07T16:00:30.000Z</time>
      </trkpt>
      <trkpt lat="45.21945" lon="5.95744">
        <ele>1373</ele>
        <time>2026-07-07T16:00:44.000Z</time>
      </trkpt>
      <trkpt lat="45.21949" lon="5.95732">
        <ele>1371</ele>
        <time>2026-07-07T16:00:56.000Z</time>
      </trkpt>
      <trkpt lat="45.21957" lon="5.95723">
        <ele>1370</ele>
        <time>2026-07-07T16:01:06.000Z</time>
      </trkpt>
      <trkpt lat="45.21965" lon="5.95717">
        <ele>1369</ele>
        <time>2026-07-07T16:01:15.000Z</time>
      </trkpt>
      <trkpt lat="45.21971" lon="5.95707">
        <ele>1369</ele>
        <time>2026-07-07T16:01:22.000Z</time>
      </trkpt>
      <trkpt lat="45.21976" lon="5.95695">
        <ele>1366</ele>
        <time>2026-07-07T16:01:32.000Z</time>
      </trkpt>
      <trkpt lat="45.21981" lon="5.95684">
        <ele>1365</ele>
        <time>2026-07-07T16:01:40.000Z</time>
      </trkpt>
      <trkpt lat="45.21989" lon="5.95677">
        <ele>1366</ele>
        <time>2026-07-07T16:01:46.000Z</time>
      </trkpt>
      <trkpt lat="45.21997" lon="5.95669">
        <ele>1365</ele>
        <time>2026-07-07T16:01:53.000Z</time>
      </trkpt>
      <trkpt lat="45.22005" lon="5.95661">
        <ele>1363</ele>
        <time>2026-07-07T16:02:00.000Z</time>
      </trkpt>
      <trkpt lat="45.22014" lon="5.95656">
        <ele>1358</ele>
        <time>2026-07-07T16:02:07.000Z</time>
      </trkpt>
      <trkpt lat="45.22022" lon="5.95649">
        <ele>1358</ele>
        <time>2026-07-07T16:02:16.000Z</time>
      </trkpt>
      <trkpt lat="45.22029" lon="5.9564">
        <ele>1359</ele>
        <time>2026-07-07T16:02:23.000Z</time>
      </trkpt>
      <trkpt lat="45.22026" lon="5.95626">
        <ele>1359</ele>
        <time>2026-07-07T16:02:31.000Z</time>
      </trkpt>
      <trkpt lat="45.22023" lon="5.95614">
        <ele>1357</ele>
        <time>2026-07-07T16:02:38.000Z</time>
      </trkpt>
      <trkpt lat="45.22025" lon="5.95601">
        <ele>1355</ele>
        <time>2026-07-07T16:02:45.000Z</time>
      </trkpt>
      <trkpt lat="45.2202" lon="5.9559">
        <ele>1353</ele>
        <time>2026-07-07T16:02:52.000Z</time>
      </trkpt>
      <trkpt lat="45.22013" lon="5.9558">
        <ele>1353</ele>
        <time>2026-07-07T16:03:00.000Z</time>
      </trkpt>
      <trkpt lat="45.22008" lon="5.95568">
        <ele>1350</ele>
        <time>2026-07-07T16:03:08.000Z</time>
      </trkpt>
      <trkpt lat="45.22004" lon="5.95556">
        <ele>1348</ele>
        <time>2026-07-07T16:03:16.000Z</time>
      </trkpt>
      <trkpt lat="45.21999" lon="5.95545">
        <ele>1349</ele>
        <time>2026-07-07T16:03:23.000Z</time>
      </trkpt>
      <trkpt lat="45.21993" lon="5.95535">
        <ele>1349</ele>
        <time>2026-07-07T16:03:31.000Z</time>
      </trkpt>
      <trkpt lat="45.21986" lon="5.95524">
        <ele>1347</ele>
        <time>2026-07-07T16:03:39.000Z</time>
      </trkpt>
      <trkpt lat="45.21982" lon="5.95513">
        <ele>1344</ele>
        <time>2026-07-07T16:03:46.000Z</time>
      </trkpt>
      <trkpt lat="45.21979" lon="5.955">
        <ele>1343</ele>
        <time>2026-07-07T16:03:54.000Z</time>
      </trkpt>
      <trkpt lat="45.21983" lon="5.95489">
        <ele>1338</ele>
        <time>2026-07-07T16:04:02.000Z</time>
      </trkpt>
      <trkpt lat="45.2199" lon="5.95479">
        <ele>1336</ele>
        <time>2026-07-07T16:04:10.000Z</time>
      </trkpt>
      <trkpt lat="45.21999" lon="5.95476">
        <ele>1335</ele>
        <time>2026-07-07T16:04:19.000Z</time>
      </trkpt>
      <trkpt lat="45.22008" lon="5.95472">
        <ele>1332</ele>
        <time>2026-07-07T16:04:27.000Z</time>
      </trkpt>
      <trkpt lat="45.22016" lon="5.95466">
        <ele>1325</ele>
        <time>2026-07-07T16:04:37.000Z</time>
      </trkpt>
      <trkpt lat="45.22025" lon="5.95467">
        <ele>1327</ele>
        <time>2026-07-07T16:04:56.000Z</time>
      </trkpt>
      <trkpt lat="45.22034" lon="5.95466">
        <ele>1326</ele>
        <time>2026-07-07T16:05:08.000Z</time>
      </trkpt>
      <trkpt lat="45.22043" lon="5.95465">
        <ele>1325</ele>
        <time>2026-07-07T16:05:21.000Z</time>
      </trkpt>
      <trkpt lat="45.22053" lon="5.95466">
        <ele>1322</ele>
        <time>2026-07-07T16:05:35.000Z</time>
      </trkpt>
      <trkpt lat="45.22062" lon="5.95467">
        <ele>1315</ele>
        <time>2026-07-07T16:05:47.000Z</time>
      </trkpt>
      <trkpt lat="45.22071" lon="5.95472">
        <ele>1312</ele>
        <time>2026-07-07T16:05:59.000Z</time>
      </trkpt>
      <trkpt lat="45.2208" lon="5.95472">
        <ele>1313</ele>
        <time>2026-07-07T16:06:08.000Z</time>
      </trkpt>
      <trkpt lat="45.2209" lon="5.95477">
        <ele>1310</ele>
        <time>2026-07-07T16:06:15.000Z</time>
      </trkpt>
      <trkpt lat="45.22099" lon="5.9548">
        <ele>1308</ele>
        <time>2026-07-07T16:06:23.000Z</time>
      </trkpt>
      <trkpt lat="45.22108" lon="5.95485">
        <ele>1305</ele>
        <time>2026-07-07T16:06:33.000Z</time>
      </trkpt>
      <trkpt lat="45.22117" lon="5.95492">
        <ele>1304</ele>
        <time>2026-07-07T16:06:42.000Z</time>
      </trkpt>
      <trkpt lat="45.22125" lon="5.955">
        <ele>1304</ele>
        <time>2026-07-07T16:06:50.000Z</time>
      </trkpt>
      <trkpt lat="45.22132" lon="5.95509">
        <ele>1300</ele>
        <time>2026-07-07T16:06:59.000Z</time>
      </trkpt>
      <trkpt lat="45.22139" lon="5.95517">
        <ele>1299</ele>
        <time>2026-07-07T16:07:09.000Z</time>
      </trkpt>
      <trkpt lat="45.22147" lon="5.95526">
        <ele>1299</ele>
        <time>2026-07-07T16:07:18.000Z</time>
      </trkpt>
      <trkpt lat="45.22155" lon="5.95533">
        <ele>1300</ele>
        <time>2026-07-07T16:07:27.000Z</time>
      </trkpt>
      <trkpt lat="45.22157" lon="5.95519">
        <ele>1299</ele>
        <time>2026-07-07T16:07:48.000Z</time>
      </trkpt>
      <trkpt lat="45.22156" lon="5.95506">
        <ele>1297</ele>
        <time>2026-07-07T16:07:53.000Z</time>
      </trkpt>
      <trkpt lat="45.22165" lon="5.95508">
        <ele>1294</ele>
        <time>2026-07-07T16:08:07.000Z</time>
      </trkpt>
      <trkpt lat="45.22173" lon="5.955">
        <ele>1293</ele>
        <time>2026-07-07T16:08:53.000Z</time>
      </trkpt>
      <trkpt lat="45.22171" lon="5.95513">
        <ele>1297</ele>
        <time>2026-07-07T16:09:32.000Z</time>
      </trkpt>
    </trkseg>
  </trk>
</gpx>